     2              OBSERVATION DATA    GPS                 RINEX VERSION / TYPE
TRRINEXO-V2.3.1-LH UCLA/SCEC 08-FEB-1994                    PGM / RUN BY / DATE
                                                            COMMENT
Original Marker Name: CHATSWORTH RE62 1933                  COMMENT
Campaign Name: Northridge 1994                              COMMENT
4-Character Station Name: CHT1                              COMMENT
6-Character Antenna Code: TRMSST                            COMMENT
Vertical Measurement Point: TGP                             COMMENT
Vertical Offset to Rinex Ref. Point: 0.0629                 COMMENT
Radial Measurement Point: OGP                               COMMENT
Radial Offset to Rinex Ref. Point: 0.2413                   COMMENT
Antenna Height from Field Measurement: 0.9795 m             COMMENT
Original XYZ: -2529783.4443 -4632089.5383 3570401.6091      COMMENT
New XYZ position is based on association with SCEC monument COMMENT
E1E9I1E1+0071. Position of that monument is believed to be  COMMENT
valid to within 1 m horizontally; vertical accuracy         COMMENT
should be no worse than 3-times this value.                 COMMENT
                                                            COMMENT
Revised Rinex header created by UCSD GPS archive for        COMMENT
GSAC on 26-May-1999 (1999:146) 22:45:06 GMT                 COMMENT
For assistance contact dagnew@ucsd.edu or hjohnson@ucsd.edu COMMENT
                                                            COMMENT
CHATSWORTH RE62 1933                                        MARKER NAME
D. POTTER UCLA                                              OBSERVER / AGENCY
930 TRIMBLE 4000 SST 4.81                                   REC # / TYPE / VERS
S/N UNKNOWN TR 4000SST L1/L2 GEO                            ANT # / TYPE
 -2529753.0000 -4632035.0000  3570415.0000                  APPROX POSITION XYZ
        0.8864        0.0000        0.0000                  ANTENNA: DELTA H/E/N
     1     2     0                                          WAVELENGTH FACT L1/2
     3    C1    L1    L2                                    # / TYPES OF OBSERV
    30                                                      INTERVAL
  1994     1    29     0    27   30.000000                  TIME OF FIRST OBS
  1994     1    29    23    54   30.000000                  TIME OF LAST OBS
     0                                                      # OF SATELLITES
                                                            END OF HEADER
 94  1 29  0 27 30.0000000  0  7 27 19  2  7 16 18 31
  20347597.391          -0.86217
  21025206.742          -0.20017
  21483398.375          -0.90517
  23476789.906          -0.44715
  24031573.703          -0.99014
  22946941.891          -0.71916
  22867980.391          -0.80616
 94  1 29  0 28  0.0000000  0  7 27 19  2  7 16 18 31
  20337533.555      -52887.534 7        -0.32419
  21024296.672       -4781.686 7        -0.20519
  21469541.687      -72824.411 7        -0.17918
  23450363.133     -138887.987 5
  24030303.625       -6695.663 5        -0.24914
  22960182.000       69578.694 6        -0.23815
  22875068.219       37247.456 6        -0.20016
 94  1 29  0 28 30.0000000  0  7 27 19  2  7 16 18 31
  20327517.406     -105518.527 7    -41011.464 9
  21023431.367       -9326.815 7     -3541.848 9
  21455728.242     -145414.006 7    -56563.471 8
  23423950.047     -277678.447 5        -0.37215
  24029107.383      -12989.336 5     -4904.415 4
  22973464.273      139372.826 6     54384.773 5
  22882229.219       74887.591 6     29329.787 6
 94  1 29  0 29  0.0000000  0  7 27 19  2  7 16 18 31
  20317547.758     -157911.696 7    -81837.289 9
  21022607.547      -13659.773 7     -6918.161 9
  21441957.117     -217785.025 7   -112956.447 8
  23397558.961     -416404.270 5   -108098.250 5
  24027977.469      -18923.980 5     -9528.812 3
  22986777.914      209333.560 6    108899.598 5
  22889459.797      112873.215 6     58928.988 6
 94  1 29  0 29 30.0000000  0  7 27 19  2  7 16 18 31
  20307622.391     -210062.950 7   -122474.595 9
  21021823.195      -17788.949 7    -10135.691 9
  21428228.094     -289929.823 7   -169173.127 8
  23371171.758     -555060.708 5   -216142.053 5
  24026914.195      -24494.771 4    -13869.698 4
  23000115.430      279435.048 6    163524.114 5
  22896754.016      151211.819 6     88803.240 6
 94  1 29  0 29 59.9990000  0  7 27 19  2  7 16 18 31
  20297745.854     -261964.045 7   -162916.979 9
  21021074.440      -21714.360 7    -13194.438 8
  21414541.089     -361851.413 7   -225215.902 8
  23344802.003     -693645.371 5   -324129.944 5
  24025925.761      -29697.908 5    -17924.065 4
  23013479.995      349661.012 6    218245.621 5
  22904119.276      189925.903 6    118970.062 6
 94  1 29  0 30 29.9990000  0  7 27 19  2  7 16 18 31
  20287919.651     -313610.981 7   -203161.312 9
  21020368.104      -25429.446 7    -16089.303 9
  21400900.237     -433542.304 7   -281078.895 8
  23318442.729     -832149.683 5   -432055.228 5
  24025008.800      -34512.179 5    -21675.446 3
  23026868.315      419998.521 6    273054.035 5
  22911565.323      229044.513 6    149452.097 6
 94  1 29  0 30 59.9990000  0  7 27 19  2  7 16 18 31
  20278133.854     -365034.232 7   -243231.354 9
  21019695.104      -28963.815 7    -18843.331 9
  21387295.308     -505024.118 7   -336778.975 8
  23292105.448     -970574.470 5   -539918.541 5
  24024166.620      -38960.261 5    -25141.484 1
  23040268.034      490410.284 6    327920.316 5
  22919085.800      268559.584 6    180243.081 6
 94  1 29  0 31 29.9990000  0  7 27 19  2  7 16 18 31
  20268390.972     -416235.752 7   -283128.620 9
  21019056.339      -32324.197 7    -21461.807 9
  21373729.386     -576317.679 7   -392332.365 8
  23265780.058    -1108914.672 5   -647715.970 5
  24023380.917      -43053.593 5    -28331.108 2
  23053676.362      560899.167 6    382846.685 5
  22926682.425      308483.813 6    211352.880 6
 94  1 29  0 31 59.9990000  0  7 27 19  2  7 16 18 31
  20258690.323     -467213.890 7   -322851.817 9
  21018451.097      -35506.149 7    -23941.245 9
  21360193.940     -647441.817 7   -447753.729 8
  23239460.839    -1247179.616 5   -755454.743 5
  24022670.276      -46803.439 5    -31253.054 2
  23067109.526      631482.970 5    437847.024 5
  22934351.784      348793.009 6    242762.649 6
 94  1 29  0 32 29.9990000  0  7 27 19  2  7 16 18 31
  20249033.058     -517959.269 7   -362393.645 9
  21017879.604      -38501.625 7    -26275.369 9
  21346694.542     -718389.250 7   -503037.407 8
  23213167.323    -1385364.263 5   -863130.934 5
  24022025.065      -50210.578 5    -33907.977 1
  23080560.409      702174.911 5    492931.628 5
  22942092.347      389461.409 6    274452.330 6
 94  1 29  0 32 59.9990000  0  7 27 19  2  7 16 18 31
  20239419.050     -568477.563 7   -401758.522 9
  21017347.894      -41296.628 7    -28453.287 9
  21333229.480     -789156.016 7   -558180.310 8
  23186893.753    -1523471.275 5   -970746.648 5
  24021438.253      -53285.332 4    -36303.891 1
  23094039.003      772999.194 5    548119.353 5
  22949896.479      430475.279 6    306411.214 6
 94  1 29  0 33 29.9990000  0  7 27 19  2  7 16 18 31
  20229849.862     -618754.644 7   -440935.447 9
  21016859.433      -43868.112 7
  21319802.011     -859721.858 7   -613166.646 8
  23160624.706    -1661503.995 5  -1078304.477 5
  24020920.425      -56007.935 4
  23107542.690      843976.132 5    603426.030 5
  22957767.878      471831.588 6    338636.919 6
 94  1 29  0 33 59.9990000  0  7 27 19  2  7 16 18 31
  20220329.612     -668788.128 7   -479922.557 9
  21016414.065      -46209.309 7
  21306416.370     -930066.136 7   -667980.341 8
  23134375.253    -1799453.176 6  -1185797.214 5
  24020471.651      -58355.722 4
  23121079.573      915103.447 5    658849.888 5
  22965701.269      513534.517 6    371132.733 6
 94  1 29  0 34 29.9990000  0  7 27 19  2  7 16 18 31
  20210854.378     -718586.763 7   -518726.669 9
  21016011.573      -48325.613 7    -33930.427 9
  21293072.526    -1000172.396 7   -722608.558 8
  23108141.011    -1937308.156 5  -1293216.560 5
  24020100.604      -60326.100 4    -41790.177 4
  23134642.456      986359.477 5    714374.040 5
  22973704.956      555597.594 6    403909.177 5
 94  1 29  0 34 59.9990000  0  7 27 19  2  7 16 18 31
  20201425.409     -768142.004 7   -557341.126 9
  21015650.269      -50222.358 7    -35408.408 9
  21279776.292    -1070045.626 7   -777055.209 8
  23081924.558    -2075055.521 5  -1400552.060 6
  24019797.581      -61923.326 5    -43034.804 2
  23148223.081     1057735.072 5    769991.363 5
  22981783.823      598036.050 6    436978.124 6
 94  1 29  0 35 29.9990000  0  7 27 19  2  7 16 18 31
  20192041.917     -817445.280 7   -595759.245 9
  21015328.378      -51910.129 7    -36723.550 9
  21266523.253    -1139696.406 7   -831328.518 8
  23055736.276    -2212683.333 5  -1507794.404 5
  24019559.745      -63154.315 4    -43994.003 2
  23161825.917     1129202.797 6    825680.467 5
  22989931.831      640857.730 6    470345.675 6
 94  1 29  0 35 59.9990000  0  7 27 19  2  7 16 18 31
  20182704.870     -866504.296 7   -633987.034 9
  21015048.089      -53394.654 7    -37880.330 9
  21253312.276    -1209133.636 7   -885435.429 8
  23029569.464    -2350185.053 5  -1614938.517 5
  24019388.409      -64040.850 4    -44684.780 1
  23175435.808     1200745.051 5    881427.644 5
  22998150.433      684051.747 6    504003.358 6
 94  1 29  0 36 29.9990000  0  7 27 19  2  7 16 18 31
  20173419.198     -915302.462 7   -672011.566 9
  21014804.948      -54664.174 7    -38869.568 9
  21240135.948    -1278362.615 7   -939380.060 8
  23003429.839    -2487560.912 6  -1721984.570 5
  24019288.597      -64599.706 5    -45120.234 1
  23189068.370     1272371.817 5    937240.685 5
  23006440.495      727615.081 6    537948.817 6
 94  1 29  0 36 59.9990000  0  7 27 19  2  7 16 18 31
  20164186.597     -963830.959 7   -709825.962 9
  21014604.370      -55712.967 7    -39686.804 9
  21226999.597    -1347387.313 7   -993165.507 8
  22977313.628    -2624806.627 5  -1828929.212 5
  24019237.698      -64835.297 5
  23202715.167     1344105.438 5    993136.977 5
  23014800.698      771545.893 6    572180.626 6
 94  1 29  0 37 29.9990000  0  7 27 19  2  7 16 18 31
  20154993.245    -1012129.584 7   -747461.239 9
  21014440.784      -56570.300 7    -40354.851 9
  21213902.042    -1416232.438 7  -1046811.041 8
  22951210.042    -2761958.950 5  -1935801.081 6
  24019251.206      -64786.921 5
  23216385.753     1415919.186 5   1049095.707 5
  23023221.831      815799.068 6    606663.631 6
 94  1 29  0 37 59.9990000  0  7 27 19  2  7 16 18 31
  20145851.948    -1060174.211 7   -784898.592 9
  21014319.433      -57220.021 7    -40861.118 9
  21200835.745    -1484883.577 7  -1100305.402 8
  22925134.761    -2899005.461 5  -2042590.508 6
  24019317.862      -64429.515 4
  23230068.433     1487838.282 5   1105136.524 5
  23031705.011      860374.302 6    641397.576 6
 94  1 29  0 38 29.9990000  0  7 27 19  2  7 16 18 31
  20136761.261    -1107952.285 7   -822128.243 9
  21014235.237      -57662.571 7    -41205.953 9
  21187809.323    -1553338.034 7  -1153646.512 8
  22899076.245    -3035928.089 5  -2149283.404 6
  24019447.628      -63741.047 4    -44451.205 2
  23243779.761     1559874.028 5   1161268.240 5
  23040248.269      905275.461 6    676385.504 5
 94  1 29  0 38 59.9990000  0  8 27 19  2  7 16 18 31 26
  20127715.573    -1155475.427 7   -859159.246 9
  21014189.276      -57895.536 7
  21174822.675    -1621592.411 7  -1206831.711 8
  22873047.612    -3172710.166 6  -2255866.791 6
  24019642.784      -62712.344 4    -43649.599 1
  23257506.362     1632019.680 5   1217485.595 5
  23048853.144      950489.715 6    711617.395 5
  24681195.284          -0.18113
 94  1 29  0 39 29.9990000  0  8 27 19  2  7 16 18 31 26
  20118725.925    -1202727.492 7   -895979.025 9
  21014189.019      -57899.728 7
  21161872.745    -1689637.087 7  -1259853.513 8
  22847046.901    -3309346.695 6  -2362336.765 6
  24019909.425      -61317.835 5    -42562.940 2
  23271250.300     1704265.677 5   1273781.148 5
  23057515.144      996017.077 6    747093.272 5
  24656292.909     -130794.181 3
 94  1 29  0 39 59.9990000  0  8 27 19  2  7 16 18 31 26
  20109781.628    -1249717.711 7   -932594.763 9
  21014231.847      -57678.670 7
  21148964.362    -1757477.125 7  -1312715.858 8
  22821072.964    -3445837.951 6  -2468693.538 6
  24020245.714      -59543.935 5    -41180.672 2
  23285019.487     1776606.151 5   1330150.307 5
  23066236.565     1041847.137 6    782805.024 5
  24631424.026     -261499.742 3        -0.19512
 94  1 29  0 40 29.9990000  0  8 27 19  2  7 16 18 31 26
  20100887.815    -1296460.403 7   -969017.624 9
  21014320.206      -57222.529 7    -40863.038 8
  21136094.831    -1825106.284 7  -1365413.876 9
  22795130.815    -3582177.810 6  -2574932.343 6
  24020651.956      -57401.087 4    -39510.914 3
  23298805.612     1849048.737 5   1386599.037 5
  23075017.878     1087989.600 6    818760.197 5
  24606579.386     -392092.786 3   -101760.888 2
 94  1 29  0 40 59.9990000  0  8 27 19  2  7 16 18 31 26
  20092040.714    -1342960.059 7  -1005251.100 9
  21014447.933      -56537.412 7    -40329.170 9
  21123262.229    -1892528.788 7  -1417950.863 8
  22769209.644    -3718385.634 6  -2681068.270 6
  24021124.253      -54914.677 4    -37573.460 5
  23312606.644     1921579.415 5   1443116.409 4
  23083857.823     1134446.672 6    854960.523 5
  24581766.448     -522557.782 3   -203421.805 1
 94  1 29  0 41 29.9990000  0  8 27 19  2  7 16 18 31 26
  20083232.284    -1389232.887 7  -1041307.833 9
  21014616.362      -55660.677 7    -39645.998 8
  21110471.472    -1959764.654 7  -1470342.434 8
  22743312.675    -3854489.269 6  -2787123.007 6
  24021663.370      -52112.167 5    -35389.713 4
  23326423.589     1994179.459 5   1499687.829 4
  23092756.276     1181204.810 6    891395.434 5
  24556949.315     -652895.585 3   -304983.593 2
 94  1 29  0 41 59.9990000  0  8 27 19  2  7 16 18 31 26
  20074477.769    -1435258.191 7  -1077171.683 9
  21014820.097      -54575.406 7    -38800.313 8
  21097714.073    -2026795.243 7  -1522574.026 8
  22717437.112    -3990451.419 6  -2893067.483 6
  24022254.386      -49006.619 4    -32969.795 4
  23340254.308     2066874.563 5   1556333.320 5
  23101717.339     1228286.875 6    928082.772 5
  24532168.448     -783071.103 3   -406418.907 1
 94  1 29  0 42 29.9990000  0  8 27 19  2  7 16 18 31 26
  20065769.886    -1481007.124 7  -1112820.170 9
  21015068.675      -53274.038 7    -37786.250 8
  21084999.597    -2093609.130 7  -1574636.768 9
  22691590.745    -4126265.751 6  -2998896.755 6
  24022897.315      -45612.905 4    -30325.363 3
  23354110.190     2139667.470 5   1613055.036 3
  23110742.339     1275719.141 6    965042.990 5
  24507433.979     -913074.686 3   -507720.258 1
 94  1 29  0 42 59.9990000  0  8 27 19  2  7 16 18 31 26
  20057120.300    -1526460.073 7  -1148238.039 9
  21015358.323      -51753.670 7    -36601.539 8
  21072331.722    -2160191.007 7  -1626518.729 9
  22665774.729    -4261928.661 6  -3104608.041 6
  24023603.167      -41921.224 4    -27448.732 3
  23367973.558     2212551.622 5   1669847.845 4
  23119837.214     1323507.289 6   1002280.519 5
  24482731.722    -1042921.259 3   -608899.263 1
 94  1 29  0 43 29.9990000  0  8 27 19  2  7 16 18 31 26
  20048526.058    -1571624.643 7  -1183431.195 9
  21015690.472      -50007.385 7    -35240.787 8
  21059703.105    -2226550.391 7  -1678227.312 9
  22639992.800    -4397436.254 6  -3210198.275 6
  24024361.315      -37927.676 4    -24336.884 2
  23381862.354     2285517.748 5   1726704.524 5
  23128995.909     1371643.709 6   1039789.427 5
  24458049.323    -1172631.985 3   -709972.451 2
 94  1 29  0 43 59.9990000  0  8 27 19  2  7 16 18 31 26
  20039988.089    -1616506.460 7  -1218404.023 8
  21016067.581      -48027.672 7    -33698.145 8
  21047113.690    -2292699.026 7  -1729771.680 8
  22614230.355    -4532794.113 6  -3315671.837 6
  24025177.198      -33640.531 4    -20996.267 3
  23395761.401     2358550.278 5   1783612.935 4
  23138217.987     1420117.682 6   1077561.359 5
  24433380.886    -1302216.632 3   -810947.369 2
 94  1 29  0 44 29.9990000  0  8 27 19  2  7 16 18 31 26
  20031497.175    -1661117.295 7  -1253165.688 9
  21016488.042      -45820.808 7    -31978.499 8
  21034563.667    -2358646.007 7  -1781158.899 9
  22588500.972    -4668014.428 6  -3421038.215 6
  24026045.222      -29042.761 3    -17413.603 4
  23409665.972     2431641.827 5   1840567.373 5
  23147507.659     1468929.573 6   1115596.612 5
  24408748.261    -1431680.927 3   -911828.498 1
 94  1 29  0 44 59.9990000  0  8 27 19  2  7 16 18 31 26
  20023061.394    -1705446.438 7  -1287707.865 9
  21016957.347      -43356.613 7    -30058.323 8
  21022054.276    -2424385.008 7  -1832384.070 9
  22562803.831    -4803060.265 6  -3526268.633 6
  24026997.136      -24097.991 4    -13560.524 4
  23423591.737     2504815.388 5   1897585.671 5
  23156862.409     1518081.822 6   1153897.086 5
  24384142.230    -1560995.391 3  -1012592.870 2
 94  1 29  0 45 29.9990000  0  8 27 19  2  7 16 18 31 26
  20014675.284    -1749515.758 7  -1322047.579 9
  21017469.823      -40662.103 7    -27958.705 8
  21009575.706    -2489958.282 7  -1883480.098 9
  22537136.284    -4937933.820 6  -3631364.815 6
  24027991.628      -18839.846 3     -9463.303 2
  23437530.198     2578049.695 5   1954651.323 4
  23166273.597     1567540.893 6   1192436.628 5
  24359568.308    -1690158.073 4  -1113238.981 2
 94  1 29  0 45 59.9990000  0  8 27 19  2  7 16 18 31 26
  20006339.011    -1793322.325 7  -1356182.546 9
  21018024.003      -37753.676 7    -25692.387 8
  20997129.089    -2555368.250 7  -1934448.867 9
  22511503.511    -5072639.394 6  -3736330.104 6
  24029048.769      -13285.980 3     -5135.600 2
  23451479.128     2651341.331 5   2011761.644 4
  23175739.886     1617292.047 6   1231203.783 5
  24335020.011    -1819155.391 4  -1213756.241 2
 94  1 29  0 46 29.9990000  0  8 27 19  2  7 16 18 31 26
  19998054.628    -1836859.439 7  -1390107.558 9
  21018615.964      -34638.449 7    -23264.928 8
  20984714.073    -2620606.615 7  -1985283.917 9
  22485903.894    -5207169.258 6  -3841158.470 6
  24030163.792       -7433.245 4      -575.037 2
  23465433.956     2724689.424 5   2068915.969 4
  23185262.769     1667328.797 5   1270193.471 5
  24310503.620    -1947985.313 4  -1314143.081 3
 94  1 29  0 46 59.9990000  0  8 27 19  2  7 16 18 31 26
  19989827.870    -1880098.986 7  -1423800.692 9
  21019247.839      -31310.145 7    -20671.437 8
  20972335.636    -2685655.821 7  -2035971.582 9
  22460339.886    -5341506.536 6  -3945836.777 6
  24031336.183       -1286.178 3      4214.875 3
  23479403.565     2798097.297 5   2126116.854 4
  23194837.644     1717652.595 5   1309406.822 5
  24286014.503    -2076634.402 4  -1414388.995 2
 94  1 29  0 47 29.9990000  0  8 27 19  2  7 16 18 31 26
  19981655.753    -1923028.753 7  -1457252.434 9
  21019923.651      -27763.390 7    -17907.728 8
  20959998.792    -2750493.380 7  -2086494.326 9
  22434810.058    -5475659.841 6  -4050371.736 6
  24032562.190        5149.753 3      9229.887 3
  23493381.284     2871557.310 5   2183358.371 5
  23204470.425     1768272.071 6   1348850.574 6
  24261573.628    -2205098.878 4  -1514491.082 2
 94  1 29  0 47 59.9990000  0  8 27 19  2  7 16 18 31 26
  19973545.198    -1965644.433 7  -1490459.447 9
  21020645.144      -23976.924 7    -14957.229 8
  20947706.792    -2815095.340 7  -2136833.490 9
  22409315.472    -5609641.851 6  -4154773.222 6
  24033845.667       11895.464 4     14486.254 2
  23507371.831     2945072.983 5   2240643.275 5
  23214162.448     1819196.950 5   1388532.296 6
  24237156.034    -2333381.041 3  -1614451.093 3
 94  1 29  0 48 29.9990000  0  8 27 19  2  7 16 18 31 26
  19965498.237    -2007944.757 7  -1523420.720 9
  21021414.542      -19933.217 7    -11806.286 8
  20935456.362    -2879459.273 7  -2186987.179 9
  22383855.979    -5743437.870 6  -4259029.780 6
  24035188.315       18970.462 3     19999.229 2
  23521372.097     3018649.772 5   2297975.796 3
  23223911.589     1870435.209 5   1428458.209 5
  24212787.675    -2461480.660 4  -1714268.870 3
 94  1 29  0 48 59.9990000  0  8 27 19  2  7 16 18 31 26
  19957505.855    -2049935.883 7  -1556141.064 9
  21022236.167      -15619.095 7     -8444.627 9
  20923256.394    -2943577.018 7  -2236949.035 9
  22358431.636    -5877046.263 6  -4363140.140 6
  24036599.589       26372.095 3     25766.727 2
  23535386.878     3092288.174 5   2355356.319 3
  23233724.026     1921992.829 5   1468632.982 5
  24188441.339    -2589402.801 4  -1813948.356 2
 94  1 29  0 49 29.9990000  0  8 27 19  2  7 16 18 31 26
  19949565.214    -2091659.359 7  -1588652.850 9
  21023104.597      -11052.776 7     -4886.451 8
  20911097.315    -3007474.583 7  -2286739.316 9
  22333040.214    -6010486.599 6  -4467119.548 6
  24038064.073       34078.910 4     31772.020 2
  23549406.558     3165969.182 5   2412770.033 3
  23243588.870     1973835.938 5   1509030.218 5
  24164120.011    -2717178.230 4  -1913513.536 1
 94  1 29  0 49 59.9990000  0  8 27 19  2  7 16 18 31 26
  19941680.097    -2133107.040 7  -1620949.728 9
  21024022.581       -6231.386 7     -1129.517 8
  20898981.151    -3071137.544 7  -2336346.785 9
  22307681.948    -6143728.698 6  -4570944.487 6
  24039591.870       42106.919 3     38027.627 1
  23563443.683     3239726.484 5   2470243.214 4
  23253507.175     2025966.651 5   1549651.567 5
  24139838.589    -2844792.772 4  -2012953.335 2
 94  1 29  0 50 29.9990000  0  8 27 19  2  7 16 18 31 26
  19933841.425    -2174283.532 7  -1653035.294 9
  21024983.917       -1176.144 7      2809.640 8
  20886912.464    -3134575.363 7  -2385778.827 8
  22282363.065    -6276767.717 6  -4674611.187 6
  24041178.112       50432.378 4     44515.018 2
  23577490.987     3313556.059 5   2527772.708 3
  23263480.292     2078366.148 6   1590482.345 5
  24115595.769    -2972254.762 4  -2112274.284 2
 94  1 29  0 50 59.9990000  0  8 27 19  2  7 16 18 31 26
  19926062.089    -2215189.177 7  -1684909.802 9
  21025986.730        4099.352 7      6920.418 8
  20874878.097    -3197795.068 7  -2435040.909 9
  22257084.698    -6409605.034 6  -4778120.705 6
  24042815.354       59038.378 3     51220.986 1
  23591557.315     3387453.402 5   2585354.976 3
  23273500.198     2131022.087 5   1631512.963 5
  24091362.706    -3099569.438 4  -2211480.431 2
 94  1 29  0 51 29.9990000  0  8 27 19  2  7 16 18 31 26
  19918326.331    -2255816.977 7  -1716567.808 9
  21027034.706        9597.033 7     11204.338 8
  20862890.534    -3260810.985 7  -2484144.191 9
  22231850.323    -6542234.336 6  -4881468.145 6
  24044505.979       67924.159 3     58144.964 3
  23605626.933     3461417.753 5   2642989.503 5
  23283568.776     2183930.783 6   1672740.525 5
  24067161.573    -3226710.393 4  -2310551.198 4
 94  1 29  0 51 59.9980000  0  8 27 19  2  7 16 18 31 26
  19910651.943    -2296161.570 7  -1748005.132 9
  21028122.631       15315.249 7     15660.095 8
  20850933.889    -3323631.097 7  -2533094.902 9
  22206648.264    -6674656.574 6  -4984654.238 6
  24046243.670       77077.159 3     65277.150 2
  23619715.779     3535425.252 5   2700657.618 3
  23293685.061     2237098.406 5   1714169.848 5
  24043004.311    -3353661.197 4  -2409473.801 4
 94  1 29  0 52 29.9980000  0  8 27 19  2  7 16 18 31 26
  19903030.201    -2336211.922 7  -1779213.185 9
  21029254.162       21266.822 7     20297.688 8
  20839014.217    -3386270.470 7  -2581904.779 9
  22181489.068    -6806873.647 6  -5087680.468 6
  24048037.146       86494.908 3     72615.638 2
  23633803.740     3609460.261 5   2758347.170 4
  23303855.389     2290539.609 5   1755812.353 5
  24018884.764    -3480415.957 4  -2508243.638 3
 94  1 29  0 52 59.9980000  0  8 27 19  2  7 16 18 31 26
  19895468.365    -2375940.401 7  -1810170.421 9
  21030436.318       27475.915 7     25135.950 8
  20827131.295    -3448720.751 7  -2630567.302 9
  22156371.881    -6938865.532 6  -5190531.215 6
  24049887.037       96205.411 3     80182.245 3
  23647896.311     3683527.388 5   2816061.765 3
  23314080.404     2344278.256 5   1797686.629 5
  23994804.771    -3606937.923 4  -2606832.080 3
 94  1 29  0 53 29.9980000  0  8 27 19  2  7 16 18 31 26
  19887969.256    -2415351.595 7  -1840880.426 9
  21031662.232       33932.928 7     30167.394 8
  20815282.514    -3510988.212 7  -2679087.366 9
  22131295.311    -7070651.141 6  -5293221.246 6
  24051783.576      106192.052 4     87964.040 3
  23661997.467     3757612.049 5   2873790.007 3
  23324363.420     2398307.857 5   1839787.612 5
  23970781.553    -3733226.447 5  -2705238.613 3
 94  1 29  0 53 59.9980000  0  8 27 19  2  7 16 18 31 26
  19880530.553    -2454436.241 7  -1871335.973 9
  21032937.842       40621.794 7     35379.499 8
  20803469.029    -3573068.780 7  -2727461.799 9
  22106258.201    -7202219.569 6  -5395742.044 6
  24053741.162      116459.679 3     95964.768 2
  23676098.459     3831719.699 5   2931536.183 3
  23334699.967     2452624.390 5   1882112.189 5
  23946794.764    -3859287.409 5  -2803467.835 2
 94  1 29  0 54 29.9980000  0  8 27 19  2  7 16 18 31 26
  19873156.107    -2493187.067 7  -1901531.402 9
  21034254.061       47535.558 7     40766.861 8
  20791689.646    -3634960.690 7  -2775689.240 9
  22081262.326    -7333568.949 6  -5498092.151 6
  24055749.904      127017.624 3    104191.720 1
  23690199.850     3905870.139 5   2989315.676 3
  23345087.420     2507219.485 5   1924653.813 5
  23922847.623    -3985129.798 5  -2901526.736 2
 94  1 29  0 54 59.9980000  0  8 27 19  2  7 16 18 31 26
  19865849.021    -2531590.597 7  -1931456.213 9
  21035614.982       54695.190 7     46345.798 8
  20779953.498    -3696644.583 7  -2823754.587 8
  22056314.693    -7464686.434 6  -5600261.567 6
  24057814.193      137872.916 3    112650.360 2
  23704327.982     3980084.018 5   3047144.618 2
  23355532.584     2562107.816 5   1967423.939 5
  23898941.436    -4110744.041 5  -2999407.870 3
 94  1 29  0 55 29.9980000  0  8 27 19  2  7 16 18 31 26
  19858601.365    -2569678.574 7  -1961135.149 9
  21037019.834       62071.914 7     52093.876 8
  20768252.498    -3758131.456 7  -2871666.430 9
  22031402.803    -7595583.474 6  -5702259.215 6
  24059932.850      148994.015 3    121316.122 2
  23718455.701     4054331.025 5   3104999.350 2
  23366029.170     2617261.207 5   2010400.584 5
  23875076.451    -4236160.268 5  -3097134.719 2
 94  1 29  0 55 59.9980000  0  8 27 19  2  7 16 18 31 26
  19851417.373    -2607447.086 7  -1990565.133 9
  21038466.709       69676.371 7     58019.438 8
  20756588.334    -3819413.412 7  -2919418.575 8
  22006539.732    -7726238.016 6  -5804067.900 7
  24062097.811      160385.298 3    130192.431 1
  23732596.576     4128616.109 5   3162883.778 3
  23376573.115     2672674.394 5   2053579.696 5
  23851240.787    -4361381.900 5  -3194709.898 3
 94  1 29  0 56 29.9980000  0  8 27 19  2  7 16 18 31 26
  19844289.670    -2644891.173 7  -2019742.326 9
  21039961.646       77533.110 7     64141.578 8
  20744970.154    -3880479.059 7  -2967002.167 8
  21981721.709    -7856651.928 6  -5905689.074 6
  24064315.022      172031.011 3    139267.018 2
  23746733.670     4202936.780 5   3220795.905 2
  23387169.225     2728362.004 5   2096972.626 5
  23827449.225    -4486402.972 5  -3292128.819 2
 94  1 29  0 56 59.9980000  0  8 27 19  2  7 16 18 31 26
  19837225.381    -2682016.221 7  -2048670.914 9
  21041505.365       85645.189 7     70462.693 8
  20733392.904    -3941317.966 7  -3014409.069 8
  21956952.897    -7986816.716 6  -6007116.130 7
  24066577.600      183917.630 3    148529.320 2
  23760882.178     4277274.378 5   3278721.255 3
  23397819.936     2784327.682 5   2140582.263 5
  23803706.209    -4611212.786 5  -3389383.135 2
 94  1 29  0 57 29.9980000  0  8 27 19  2  7 16 18 31 26
  19830221.873    -2718825.958 7  -2077353.806 9
  21043095.607       94006.889 7     76978.314 8
  20721859.170    -4001927.443 7  -3061637.204 9
  21932232.756    -8116726.123 6  -6108344.179 7
  24068884.795      196041.767 3    157976.670 4
  23775036.334     4351631.899 5   3336662.102 3
  23408521.193     2840561.460 5   2184400.791 5
  23779991.186    -4735800.505 5  -3486464.377 3
 94  1 29  0 57 59.9980000  0  8 27 19  2  7 16 18 31 26
  19823275.842    -2755319.746 7  -2105790.506 9
  21044735.178      102621.625 7     83691.106 8
  20710367.420    -4062320.580 7  -3108696.756 8
  21907557.373    -8246387.028 6  -6209378.594 6
  24071232.498      208396.343 3    167603.602 4
  23789185.959     4426018.322 5   3394625.486 2
  23419270.686     2897059.082 5   2228424.918 5
  23756330.811    -4860159.331 5  -3583367.260 3
 94  1 29  0 58 29.9980000  0  8 27 19  2  7 16 18 31 26
  19816389.959    -2791502.836 7  -2133985.119 9
  21046425.740      111493.629 7     90604.345 7
  20698914.193    -4122499.389 7  -3155589.320 8
  21882928.912    -8375815.333 6  -6310231.772 6
  24073630.561      220989.127 3    177416.135 2
  23803343.201     4500420.923 5   3452601.451 2
  23430076.467     2953819.174 5   2272653.554 4
  23732712.443    -4984278.348 5  -3680083.312 4
 94  1 29  0 58 59.9980000  0  8 27 19  2  7 16 18 31 26
  19809563.014    -2827388.140 7  -2161947.671 9
  21048160.607      120623.519 7     97718.559 8
  20687501.396    -4182468.925 7  -3202318.786 8
  21858343.272    -8505016.070 6  -6410907.602 6
  24076077.967      233836.483 3    187427.055 1
  23817500.803     4574825.049 4   3510578.603 1
  23440917.834     3010817.739 5   2317068.027 5
  23709139.279    -5108150.485 5  -3776606.933 2
 94  1 29  0 59 29.9980000  0  8 27 19  2  7 16 18 31 26
  19802791.068    -2862966.337 7  -2189670.922 9
  21049948.897      130017.919 7    105038.881 8
  20676131.373    -4242231.894 7  -3248887.314 8
  21833800.123    -8633985.284 6  -6511403.042 7
  24078570.279      246948.765 3    197644.402 2
  23831663.647     4649241.940 4   3568565.727 4
  23451806.873     3068032.315 5   2361650.805 5
  23685609.428    -5231774.785 5  -3872937.472 3
 94  1 29  0 59 59.9980000  0  8 27 19  2  7 16 18 31 26
  19796082.803    -2898218.761 7  -2217140.338 8
  21051788.412      139686.247 7    112572.646 7
  20664801.287    -4301775.705 7  -3295285.062 8
  21809303.670    -8762718.555 6  -6611714.628 7
  24081121.475      260340.414 3    208079.442 2
  23845826.654     4723673.825 4   3626564.517 1
  23462735.084     3125459.403 5   2406399.178 5
  23662133.912    -5355151.938 5  -3969075.413 3
 94  1 29  1  0 29.9980000  0  8 27 19  2  7 16 18 31 26
  19789436.990    -2933148.615 7  -2244358.372 9
  21053681.818      149630.073 7    120321.100 8
  20653508.975    -4361104.646 7  -3341515.358 9
  21784851.889    -8891210.300 6  -6711837.993 7
  24083720.365      274010.877 3    218731.752 2
  23859994.686     4798110.646 4   3684567.179 2
  23473705.006     3183097.204 5   2451311.774 5
  23638703.818    -5478280.963 5  -4065020.000 4
 94  1 29  1  0 59.9980000  0  8 27 19  2  7 16 18 31 26
  19782852.834    -2967748.719 7  -2271319.485 9
  21055621.248      159828.238 7    128267.719 8
  20642257.084    -4420228.850 7  -3387586.151 9
  21760451.795    -9019440.245 6  -6811757.382 7
  24086372.951      287936.156 3    229582.558 1
  23874165.100     4872571.568 4   3742588.577 2
  23484712.350     3240941.714 5   2496385.403 5
  23615320.123    -5601162.199 5  -4160771.537 4
 94  1 29  1  1 29.9980000  0  8 27 19  2  7 16 18 31 26
  19776333.576    -3002007.482 7  -2298014.611 9
  21057606.693      170259.512 7    136395.995 8
  20631042.014    -4479165.451 7  -3433510.740 9
  21736101.084    -9147400.666 6  -6911466.746 7
  24089065.779      302096.393 3    240616.494 2
  23888340.998     4947063.113 4   3800633.847 3
  23495756.857     3298999.207 5   2541625.016 5
  23591979.904    -5723805.048 5  -4256337.305 5
 94  1 29  1  1 59.9980000  0  8 27 19  2  7 16 18 31 26
  19769877.045    -3035932.045 7  -2324449.329 9
  21059636.881      180924.857 7    144706.657 8
  20619862.014    -4537926.282 7  -3479298.374 9
  21711802.787    -9275093.115 6  -7010967.310 7
  24091809.006      316488.899 3    251831.419 1
  23902510.154     5021575.984 4   3858695.755 2
  23506851.256     3357295.793 5   2587050.935 5
  23568694.506    -5846199.362 5  -4351709.414 4
 94  1 29  1  2 29.9980000  0  8 27 19  2  7 16 18 31 26
  19763486.295    -3069510.113 7  -2350614.050 9
  21061711.818      191833.418 7    153206.833 7
  20608715.084    -4596503.446 7  -3524942.893 8
  21687559.600    -9402494.144 6  -7110240.792 6
  24094591.693      331113.575 3    263227.287 2
  23916703.639     5096118.307 4   3916780.589 4
  23517993.795     3415844.965 5   2632673.661 5
  23545450.623    -5968325.722 5  -4446872.729 3
 94  1 29  1  2 59.9980000  0  8 27 19  2  7 16 18 31 26
  19757167.029    -3102730.938 7  -2376500.387 9
  21063833.084      202982.612 7    161894.529 7
  20597603.896    -4654884.453 7  -3570434.551 8
  21663369.826    -9529604.807 6  -7209288.015 6
  24097416.568      345969.243 3    274803.143 1
  23930887.404     5170676.684 4   3974877.951 2
  23529182.693     3474644.987 5   2678491.868 5
  23522261.201    -6090191.662 5  -4541833.112 2
 94  1 29  1  3 29.9980000  0  8 27 19  2  7 16 18 31 26
  19750909.045    -3135608.686 7  -2402119.402 9
  21066000.451      214372.890 7    170770.065 8
  20586531.029    -4713086.355 7  -3615786.671 9
  21639231.115    -9656450.420 6  -7308128.724 7
  24100284.873      361056.838 3    286559.693 3
  23945076.068     5245200.500 4   4032948.347 1
  23540417.975     3533682.220 5   2724494.904 5
  23499117.920    -6211822.996 5  -4636610.695 4
 94  1 29  1  3 59.9980000  0  8 27 19  2  7 16 18 31 26
  19744718.264    -3168143.112 7  -2427470.883 9
  21068216.014      226014.783 7    179841.686 8
  20575491.201    -4771087.791 7  -3660982.557 9
  21615147.326    -9783030.460 6  -7406762.469 7
  24103202.772      376377.315 3    298497.687 2
  23959246.842     5319688.165 3   4090990.586 3
  23551697.865     3592962.679 5   2770687.462 5
  23476016.600    -6333215.128 5  -4731201.907 4
 94  1 29  1  4 29.9980000  0  8 27 19  2  7 16 18 31 26
  19738594.482    -3200316.153 7  -2452540.780 9
  21070482.576      237922.119 7    189120.125 8
  20564499.529    -4828863.548 7  -3706002.615 9
  21591110.389    -9909333.512 6  -7505180.402 7
  24106157.779      391936.307 3    310621.533 3
  23973419.107     5394154.953 3   4149016.533 3
  23563025.131     3652486.216 5   2817069.452 5
  23452966.162    -6454361.194 5  -4825601.362 3
 94  1 29  1  4 59.9980000  0  8 27 19  2  7 16 18 31 26
  19732540.686    -3232144.862 7  -2477342.343 9
  21072797.631      250087.597 7    198599.730 8
  20553541.475    -4886432.412 7  -3750861.439 9
  21567127.389   -10035366.239 6  -7603387.672 7
  24109167.811      407726.453 3    322925.548 1
  23987582.881     5468596.429 4   4207022.779 1
  23574397.740     3712251.264 5   2863639.646 5
  23429954.068    -6575263.256 5  -4919810.691 4
 94  1 29  1  5 29.9980000  0  8 27 19  2  7 16 18 31 26
  19726548.092    -3263639.038 7  -2501883.241 9
  21075160.889      262508.115 7    208278.063 8
  20542624.553    -4943803.805 7  -3795566.388 9
  21543197.420   -10161120.546 6  -7701377.995 7
  24112214.873      423739.992 3    335403.629 2
  24001748.170     5543027.680 3   4265021.059 2
  23585811.420     3772238.563 5   2910383.006 5
  23407000.693    -6695903.265 5  -5013815.808 5
 94  1 29  1  5 59.9980000  0  8 27 19  2  7 16 18 31 26
  19720614.756    -3294809.844 7  -2526172.174 9
  21077571.709      275177.773 7    218150.529 8
  20531744.545    -5000975.741 7  -3840115.929 9
  21519321.076   -10286593.827 6  -7799149.343 7
  24115301.482      439966.223 3    348047.436 2
  24015915.404     5617463.392 3   4323022.795 2
  23597268.568     3832436.445 5   2957290.460 5
  23384093.857    -6816265.432 5  -5107604.442 4
 94  1 29  1  6 29.9980000  0  7 27 19  2  7 18 31 26
  19714745.334    -3325659.907 7  -2550211.180 9
  21080030.498      288096.191 7    228216.823 8
  20520899.420    -5057967.732 7  -3884525.260 9
  21495498.373   -10411778.023 6  -7896695.440 7
  24030081.959     5691898.011 3   4381023.683 2
  23608758.232     3892828.124 5   3004348.913 5
  23361244.350    -6936342.332 5  -5201170.807 4
 94  1 29  1  6 59.9980000  0  7 27 19  2  7 18 31 26
  19708934.592    -3356190.965 7  -2574001.597 9
  21082536.693      301264.726 7    238478.033 8
  20510089.404    -5114777.825 7  -3928792.833 9
  21471732.951   -10536662.734 6  -7994008.146 7
  24044243.818     5766328.819 3   4439021.586 2
  23620286.420     3953414.138 5   3051558.823 4
  23338444.654    -7056119.624 5  -5294503.675 5
 94  1 29  1  7 29.9980000  0  7 27 19  2  7 18 31 26
  19703189.311    -3386388.524 7  -2597532.149 9
  21085092.303      314696.825 7    248944.612 8
  20499314.865    -5171395.893 7  -3972910.794 9
  21448023.272   -10661263.641 6  -8091099.715 7
  24058404.537     5840750.426 3   4497012.325 2
  23631856.646     4014195.613 5   3098921.025 4
  23315713.795    -7175598.858 5  -5387604.312 4
 94  1 29  1  7 59.9980000  0  8 27 19  2  7 15 18 31 26
  19697507.350    -3416236.401 7  -2620790.227 9
  21087701.303      328410.000 7    259630.199 8
  20488581.631    -5227812.144 7  -4016871.491 9
  21424366.217   -10785575.368 6  -8187965.954 7
  24015670.287          -0.28714
  24072560.475     5915166.971 3   4554999.100 2
  23643465.006     4075199.154 5   3146456.258 5
  23293033.647    -7294787.380 5  -5480478.420 4
 94  1 29  1  8 29.9980000  0  8 27 19  2  7 15 18 31 26
  19691894.186    -3445731.312 7  -2643773.261 9
  21090364.264      342398.893 7    270530.639 7
  20477883.248    -5284027.687 7  -4060675.786 9
  21400764.975   -10909598.975 6  -8284607.683 7
  23997518.045      -95382.127 4        -0.22512
  24086722.787     5989566.421 3   4612972.602 2
  23655116.943     4136420.851 5   3194161.494 5
  23270404.537    -7413696.350 5  -5573134.679 3
 94  1 29  1  8 59.9980000  0  8 27 19  2  7 15 18 31 26
  19686353.490    -3474856.740 7  -2666468.378 9
  21093080.389      356671.141 7    281651.888 8
  20467225.014    -5340028.652 7  -4104312.867 9
  21377222.014   -11033326.843 6  -8381018.946 7
  23979422.514     -190504.104 4    -74121.214 3
  24100871.209     6063939.988 3   4670925.915 2
  23666806.045     4197871.759 5   3242045.336 5
  23247833.693    -7532320.664 5  -5665569.126 5
 94  1 29  1  9 29.9980000  0  8 27 19  2  7 15 18 31 26
  19680881.779    -3503606.581 7  -2688870.835 9
  21095847.326      371209.701 7    292980.633 8
  20456608.139    -5395831.238 7  -4147795.377 9
  21353732.428   -11156753.983 6  -8477195.889 8
  23961365.326     -285376.357 4   -148047.608 3
  24115017.178     6138275.585 3   4728849.628 1
  23678540.561     4259530.088 5   3290090.787 5
  23225314.326    -7650676.845 5  -5757794.664 4
 94  1 29  1  9 59.9980000  0  8 27 19  2  7 15 18 31 26
  19675479.928    -3531988.748 7  -2710986.792 9
  21098661.959      386005.154 7    304509.554 8
  20446028.615    -5451425.714 7  -4191115.726 9
  21330310.412   -11279847.955 6  -8573113.223 8
  23943357.506     -379994.073 4   -221775.643 2
  24129162.232     6212572.039 3   4786742.863 2
  23690312.990     4321392.500 5   3338295.288 5
  23202840.154    -7768748.029 5  -5849798.127 5
 94  1 29  1 10 29.9980000  0  8 27 19  2  7 15 18 31 26
  19670149.326    -3560015.452 7  -2732825.772 9
  21101524.912      401043.822 7    316227.997 8
  20435488.920    -5506807.146 7  -4234270.071 9
  21306947.686   -11402615.225 6  -8668775.985 8
  23925403.514     -474357.731 4   -295305.716 3
  24143289.490     6286819.241 3   4844597.708 1
  23702114.959     4383443.159 5   3386646.456 5
  23180429.100    -7886518.227 5  -5941567.059 5
 94  1 29  1 10 59.9980000  0  8 27 19  2  7 15 18 31 26
  19664882.248    -3587687.282 7  -2754388.226 9
  21104432.131      416325.384 7    328135.703 8
  20424989.529    -5561975.214 7  -4277258.148 9
  21283648.436   -11525051.581 6  -8764180.890 8
  23907490.014     -568455.668 3   -368628.710 3
  24157408.365     6361025.389 3   4902420.566 1
  23713963.842     4445679.259 5   3435142.127 4
  23158079.514    -8003979.948 5  -6033095.595 4
 94  1 29  1 11 29.9980000  0  8 27 19  2  7 15 18 31 26
  19659680.514    -3615019.808 7  -2775686.278 9
  21107386.178      431849.757 7    340232.615 8
  20414531.834    -5616935.834 7  -4320084.580 9
  21260408.709   -11647180.256 6  -8859346.042 8
  23889618.936     -662293.027 3   -441748.677 2
  24171526.943     6435199.152 3   4960218.223 1
  23725847.053     4508097.611 5   3483779.802 4
  23135786.584    -8121143.203 5  -6124391.582 5
 94  1 29  1 11 59.9980000  0  8 27 19  2  7 15 18 31 26
  19654543.998    -3642017.504 7  -2796723.431 9
  21110387.881      447632.967 7    352531.218 8
  20404113.717    -5671683.400 7  -4362744.999 9
  21237223.490   -11769016.544 6  -8954283.363 8
  23871841.311     -755863.560 4   -514660.698 3
  24185637.951     6509351.519 3   5017999.165 1
  23737759.076     4570705.478 5   3532565.158 4
  23113544.834    -8237997.212 5  -6215446.581 4
 94  1 29  1 12 29.9980000  0  8 27 19  2  7 15 18 31 26
  19649475.904    -3668657.425 7  -2817481.797 9
  21113444.209      463685.074 7    365039.348 7
  20393731.889    -5726239.212 7  -4405255.998 9
  21214093.818   -11890568.129 6  -9048998.840 8
  23854082.412     -849161.412 5   -587360.259 2
  24199736.240     6583477.217 3   5075759.365 1
  23749704.920     4633492.105 5   3581489.812 4
  23091365.982    -8354550.761 5  -6306267.478 5
 94  1 29  1 12 59.9970000  0  8 27 19  2  7 15 18 31 26
  19644475.899    -3694916.538 7  -2837943.429 9
  21116554.189      480026.715 7    377773.089 7
  20383387.290    -5780606.249 7  -4447619.894 9
  21191022.657   -12011806.049 6  -9143469.896 8
  23836381.985     -942179.460 4   -659841.765 3
  24213839.173     6657578.217 3
  23761688.376     4696466.842 5   3630561.053 4
  23069247.899    -8470795.132 5  -6396847.431 4
 94  1 29  1 13 29.9970000  0  8 27 19  2  7 15 18 31 26
  19639551.376    -3720796.389 7  -2858109.540 9
  21119719.790      496665.350 7    390738.256 7
  20373077.790    -5834780.871 7  -4489833.857 9
  21168012.259   -12132725.894 6  -9237693.105 8
  23818736.298    -1034922.567 4   -732109.064 4
  24227939.845     6731657.485 3
  23773710.548     4759639.322 5   3679786.373 4
  23047187.907    -8586713.734 5  -6487173.558 4
 94  1 29  1 13 59.9970000  0  8 27 19  2  7 15 18 31 26
  19634699.774    -3746297.500 7  -2877980.532 9
  21122940.642      513586.834 7    403923.827 7
  20362805.829    -5888759.414 7  -4531895.024 9
  21145070.063   -12253288.826 6  -9331638.197 8
  23801133.048    -1127378.543 4   -804152.634 4
  24242042.876     6805708.395 3        -0.16012
  23785768.751     4822995.270 5   3729154.650 4
  23025196.329    -8702282.329 5  -6577226.941 4
 94  1 29  1 14 29.9970000  0  8 27 19  2  7 15 18 31 26
  19629915.517    -3771434.236 7  -2897567.588 9
  21126209.493      530770.661 7    417313.824 7
  20352570.688    -5942543.899 7  -4573804.994 9
  21122200.610   -12373478.267 6  -9425292.267 8
  23783591.626    -1219550.651 4   -875975.007 3
  24256115.126     6879714.614 3     57667.025 1
  23797856.478     4886525.157 4   3778658.472 3
  23003271.704    -8817503.855 5  -6667009.886 5
 94  1 29  1 14 59.9970000  0  7 27 19  2  7 15 31 26
  19625194.157    -3796235.178 7  -2916892.987 9
  21129526.673      548199.530 7    430894.743 7
  20342378.259    -5996118.689 7  -4615551.561 9
  21099394.384   -12493309.509 6  -9518667.215 8
  23766105.134    -1311441.122 4   -947577.913 2
  23809982.001     4950226.620 4   3828296.005 3
  22981413.509    -8932370.401 5  -6756516.236 5
 94  1 29  1 15 29.9970000  0  7 27 19  2  7 15 31 26
  19620540.142    -3820704.362 7  -2935959.868 9
  21132886.368      565864.163 6    444659.395 7
  20332220.814    -6049487.879 7  -4657137.926 9
  21076658.009   -12612798.980 6  -9611775.852 8
  23748681.431    -1403037.350 4  -1018951.540 3
  23822130.962     5014090.787 5   3878060.290 3
  22959622.704    -9046891.083 5  -6845753.071 5
 94  1 29  1 15 59.9970000  0  7 27 19  2  7 15 31 26
  19615951.134    -3844823.359 7  -2954753.882 9
  21136291.157      583757.122 6    458601.962 7
  20322100.759    -6102669.413 7  -4698578.059 9
  21053979.603   -12731969.324 6  -9704635.816 8
  23731301.774    -1494343.051 4  -1090098.801 3
  23834308.618     5078099.892 5   3927937.531 3
  22937884.829    -9161099.569 5  -6934746.627 5
 94  1 29  1 16 29.9970000  0  7 27 19  2  7 15 31 26
  19611432.118    -3868574.694 7  -2973261.408 9
  21139744.009      601896.165 6    472736.275 7
  20312015.782    -6155659.369 7  -4739868.912 9
  21031359.204   -12850845.468 6  -9797266.535 8
  23713976.368    -1585356.234 4  -1161018.124 4
  23846522.149     5142266.390 5   3977937.421 3
  22916205.267    -9275012.980 5  -7023510.269 5
 94  1 29  1 16 59.9970000  0  7 27 19  2  7 15 31 26
  19606984.290    -3891937.404 7  -2991466.106 9
  21143246.821      620297.728 6    487075.151 7
  20301969.353    -6208453.459 7  -4781007.137 9
  21008791.767   -12969436.564 6  -9889675.138 8
  23696725.017    -1676067.790 4  -1231702.393 5
  23858763.603     5206602.092 5   4028069.141 4
  22894587.876    -9388635.265 5  -7112047.073 5
 94  1 29  1 17 29.9970000  0  7 27 19  2  7 15 31 26
  19602615.806    -3914888.007 7  -3009349.680 9
  21146802.290      638981.916 6    501634.265 7
  20291962.165    -6261054.316 7  -4821994.792 9
  20986284.376   -13087709.547 6  -9981835.861 8
  23679514.103    -1766470.891 4  -1302146.321 4
  23871038.188     5271113.754 4   4078337.983 4
  22873020.814    -9501961.302 5  -7200353.022 5
 94  1 29  1 17 59.9970000  0  7 27 19  2  7 15 31 26
  19598326.962    -3937435.507 7  -3026919.145 9
  21150412.392      657947.533 6    516412.667 7
  20281988.360    -6313457.351 7  -4862828.305 9
  20963842.196   -13205651.112 6 -10073738.329 8
  23662377.353    -1856575.941 5  -1372357.993 4
  23883349.064     5335801.327 4   4128743.896 4
  22851515.142    -9614985.291 5  -7288423.604 5
 94  1 29  1 18 29.9970000  0  7 27 19  2  7 15 31 26
  19594109.298    -3959589.754 7  -3044182.182 9
  21154076.821      677209.375 6    531421.889 7
  20272059.345    -6365644.315 7  -4903493.451 9
  20941467.907   -13323230.595 6 -10165358.662 8
  23645289.665    -1946369.318 5  -1442326.804 3
  23895694.993     5400674.030 4   4179294.063 4
  22830070.032    -9727672.032 5  -7376231.401 5
 94  1 29  1 18 59.9970000  0  7 27 19  2  7 15 31 26
  19589968.493    -3981362.821 7  -3061148.205 9
  21157797.001      696759.820 6    546656.001 7
  20262164.548    -6417626.839 7  -4943999.293 9
  20919165.509   -13440434.710 7 -10256686.490 8
  23628249.587    -2035853.660 4  -1512054.807 4
  23908068.907     5465713.404 3   4229974.124 4
  22808694.884    -9840004.544 5  -7463763.175 5
 94  1 29  1 19 29.9970000  0  7 27 19  2  7 15 31 26
  19585896.899    -4002752.407 7  -3077815.391 9
  21161572.267      716599.460 6    562115.455 7
  20252312.821    -6469404.360 7  -4984345.396 9
  20896935.282   -13557246.592 7 -10347708.695 8
  23611288.993    -2125016.023 4  -1581531.904 4
  23920478.431     5530911.090 3   4280777.518 4
  22787389.001    -9951958.633 5  -7551000.064 5
 94  1 29  1 19 59.9970000  0  7 27 19  2  7 15 31 26
  19581893.384    -4023784.730 7  -3094204.205 9
  21165397.579      736705.746 6    577782.693 7
  20242499.337    -6520982.343 7  -5024536.011 9
  20874775.181   -13673690.809 7 -10438444.408 8
  23594384.649    -2213859.699 5  -1650760.665 4
  23932908.689     5596247.284 3   4331688.819 3
  22766154.774   -10063546.322 5  -7637951.458 5
 94  1 29  1 20 29.9970000  0  7 27 19  2  7 15 31 26
  19577958.251    -4044464.600 7  -3110318.385 9
  21169275.853      757075.207 6    593654.995 7
  20232720.438    -6572370.589 7  -5064578.783 9
  20852686.220   -13789773.297 7 -10528898.256 8
  23577542.689    -2302377.180 5  -1719735.267 3
  23945366.610     5661720.643 3   4382707.036 4
  22744991.142   -10174770.762 5  -7724619.800 5
 94  1 29  1 20 59.9970000  0  7 27 19  2  7 15 31 26
  19574090.767    -4064790.239 7  -3126156.544 9
  21173196.681      777696.518 6    609723.551 7
  20222975.868    -6623575.723 7  -5104478.866 9
  20830666.478   -13905492.609 7 -10619069.108 9
  23560764.087    -2390562.886 5  -1788451.340 4
  23957856.392     5727340.672 3   4433839.524 3
  22723895.165   -10285634.893 5  -7811007.395 5
 94  1 29  1 21 29.9970000  0  6 27 19  2  7 15 26
  19570287.189    -4084777.614 7  -3141731.111 9
  21177168.321      798549.594 6    625972.699 7
  20213263.978    -6674610.753 7  -5144246.407 9
  20808712.446   -14020862.822 7 -10708967.934 8
  23544037.345    -2478428.894 5  -1856918.289 3
  22702858.720   -10396156.212 5  -7897127.856 5
 94  1 29  1 21 59.9970000  0  6 27 19  2  7 15 26
  19566557.446    -4104390.640 7  -3157013.984 9
  21181185.251      819666.864 6    642427.713 7
  20203589.212    -6725443.729 7  -5183856.497 9
  20786829.970   -14135854.357 7 -10798571.686 8
  23527380.962    -2565952.037 5  -1925118.082 3
  22681897.884   -10506311.748 5  -7982963.277 5
 94  1 29  1 22 29.9970000  0  6 27 19  2  7 15 26
  19562897.282    -4123615.061 7  -3171994.046 9
  21185250.868      841032.946 6    659076.603 7
  20193952.095    -6776092.285 7  -5223322.886 9
  20765019.837   -14250474.765 7 -10887886.253 8
  23510791.032    -2653146.927 4  -1993062.076 3
  22661006.720   -10616105.740 5  -8068516.977 5
 94  1 29  1 22 59.9970000  0  6 27 19  2  7 15 26
  19559319.071    -4142426.900 7  -3186652.616 9
  21189367.110      862659.725 6    675928.639 7
  20184351.853    -6826536.582 7  -5262630.118 9
  20743278.696   -14364711.132 7 -10976901.565 9
  23494261.306    -2740003.376 4  -2060742.369 4
  22640187.681   -10725519.466 5  -8153774.390 5
 94  1 29  1 23 29.9970000  0  6 27 19  2  7 15 26
  19555819.110    -4160808.479 7  -3200975.914 9
  21193535.259      884561.330 6    692994.824 7
  20174795.814    -6876766.425 7  -5301770.237 9
  20721612.142   -14478567.770 7 -11065620.986 9
  23477798.415    -2826522.413 4  -2128159.737 5
  22619437.907   -10834557.228 5  -8238738.838 5
 94  1 29  1 23 59.9970000  0  6 27 19  2  7 15 26
  19552405.149    -4178751.752 7  -3214957.682 9
  21197753.712      906740.128 6    710277.005 7
  20165277.298    -6926783.996 7  -5340744.945 9
  20700018.985   -14592045.086 7 -11154044.833 9
  23461394.048    -2912702.283 4  -2195312.822 4
  22598758.368   -10943226.010 5  -8323415.768 5
 94  1 29  1 24 29.9970000  0  6 27 19  2  7 15 26
  19549073.626    -4196258.374 7  -3228599.197 9
  21202029.626      929204.086 6    727781.384 7
  20155798.548    -6976597.950 7  -5379561.000 9
  20678497.462   -14705145.120 7 -11242174.696 9
  23445063.462    -2998530.044 4  -2262191.539 4
  22578151.462   -11051516.748 5  -8407798.103 5
 94  1 29  1 24 59.9970000  0  6 27 19  2  7 15 26
  19545819.407    -4213358.016 7  -3241923.594 9
  21206361.196      951965.571 6    745517.601 7
  20146355.626    -7026215.852 7  -5418224.283 9
  20657045.274   -14817875.158 7 -11330016.243 9
  23428794.689    -3084009.267 4  -2328798.672 4
  22557616.603   -11159441.453 5  -8491895.215 5
 94  1 29  1 25 29.9970000  0  6 27 19  2  7 15 26
  19542639.407    -4230072.208 7  -3254947.635 9
  21210749.087      975022.412 6    763483.985 7
  20136947.876    -7075653.516 7  -5456747.123 9
  20635665.306   -14930236.425 7 -11417570.443 9
  23412599.814    -3169141.619 4  -2395135.530 4
  22537143.165   -11267000.113 5  -8575707.114 5
 94  1 29  1 25 59.9970000  0  6 27 19  2  7 15 26
  19539528.063    -4246427.369 7  -3267691.915 9
  21215188.978      998364.395 6    781672.538 7
  20127570.790    -7124925.731 7  -5495141.037 9
  20614352.423   -15042229.061 7 -11504837.396 9
  23396464.056    -3253923.153 4  -2461199.007 4
  22516746.876   -11374185.511 5  -8659228.148 5
 94  1 29  1 26 29.9970000  0  6 27 19  2  7 15 26
  19536482.063    -4262426.919 7  -3280159.092 9
  21219686.509     1021997.265 6    800087.770 7
  20118229.321    -7174017.808 7  -5533394.589 9
  20593112.212   -15153843.900 7 -11591809.963 9
  23380396.259    -3338346.380 4  -2526983.305 5
  22496424.470   -11480983.843 5  -8742447.587 5
 94  1 29  1 26 59.9970000  0  6 27 19  2  7 15 26
  19533503.470    -4278080.775 7  -3292356.899 9
  21224237.142     1045903.803 6    818716.234 7
  20108923.993    -7222918.431 7  -5571498.956 9
  20571946.993   -15265072.452 7 -11678481.514 9
  23364397.438    -3422416.676 5  -2592492.564 4
  22476173.915   -11587403.639 5  -8825372.063 5
 94  1 29  1 27 29.9970000  0  6 27 19  2  7 15 26
  19530597.618    -4293358.413 7  -3304261.545 9
  21228835.993     1070067.876 6    837545.383 7
  20099654.853    -7271620.489 7  -5609448.609 9
  20550855.985   -15375901.831 7 -11764842.035 9
  23348476.954    -3506120.889 5  -2657716.582 4
  22455997.946   -11693435.769 5  -8907994.457 5
 94  1 29  1 27 59.9970000  0  6 27 19  2  7 15 26
  19527763.517    -4308247.349 7  -3315863.310 9
  21233478.751     1094475.288 6    856564.135 7
  20090426.048    -7320120.689 7  -5647240.948 9
  20529840.407   -15486335.516 7 -11850894.221 9
  23332617.024    -3589456.102 5  -2722653.090 4
  22435892.259   -11799092.145 6  -8990324.052 5
 94  1 29  1 28 29.9970000  0  6 27 19  2  7 15 26
  19525006.688    -4322730.580 7  -3327148.941 9
  21238170.735     1119129.332 6    875775.070 7
  20081235.899    -7368421.167 7  -5684877.675 9
  20508903.493   -15596360.911 7 -11936628.257 9
  23316825.376    -3672421.914 5  -2787301.730 4
  22415858.173   -11904378.500 5  -9072365.337 5
 94  1 29  1 28 59.9970000  0  6 27 19  2  7 15 26
  19522324.829    -4336825.967 7  -3338132.357 9
  21242906.282     1144017.747 6    895168.634 7
  20072075.814    -7416551.316 7  -5722381.672 9
  20488044.142   -15705977.616 7 -12022043.844 9
  23301106.782    -3755025.288 5  -2851667.957 3
  22395892.954   -12009297.733 5  -9154120.540 5
 94  1 29  1 29 29.9970000  0  6 27 19  2  7 15 26
  19519718.681    -4350522.626 7  -3348805.078 9
  21247692.774     1169167.651 6    914765.962 7
  20062948.493    -7464512.665 7  -5759754.143 9
  20467263.290   -15815176.895 7 -12107134.164 9
  23285462.415    -3837250.240 5  -2915739.302 4
  22376002.517   -12113820.961 5  -9235567.181 5
 94  1 29  1 29 59.9970000  0  6 27 19  2  7 15 26
  19517182.556    -4363841.245 7  -3359183.215 9
  21252529.665     1194592.863 6    934577.820 7
  20053855.946    -7512307.768 7  -5796997.067 9
  20446562.470   -15923956.863 7 -12191897.740 9
  23269884.173    -3919099.868 5  -2979518.191 4
  22356187.985   -12217946.767 5  -9316704.137 5
 94  1 29  1 30 29.9970000  0  6 27 19  2  7 15 26
  19514723.688    -4376780.613 7  -3369265.835 9
  21257423.813     1220305.101 6    954613.331 6
  20044790.001    -7559931.918 7  -5834106.779 9
  20425943.392   -16032316.498 7 -12276333.788 9
  23254386.743    -4000572.210 5  -3043003.083 4
  22336451.157   -12321664.042 5  -9397522.762 5
 94  1 29  1 30 59.9970000  0  6 27 19  2  7 15 26
  19512329.853    -4389344.924 7  -3379056.196 9
  21262367.095     1246298.965 6    974868.283 6
  20035764.157    -7607376.422 7  -5871076.508 9
  20405399.298   -16140275.229 7 -12360457.436 9
  23238955.509    -4081665.340 5  -3106192.493 4
  22316794.454   -12424970.147 5  -9478020.970 6
 94  1 29  1 31 29.9970000  0  6 27 19  2  7 15 26
  19510016.165    -4401503.126 7  -3388530.113 9
  21267369.079     1272573.453 6    995341.914 6
  20026772.704    -7654628.295 7  -5907896.137 9
  20384926.564   -16247858.830 7 -12444288.778 9
  23223590.407    -4162375.826 5  -3169083.741 5
  22297209.509   -12527874.136 5  -9558205.867 5
 94  1 29  1 31 59.9970000  0  6 27 19  2  7 15 26
  19507781.571    -4413253.249 7  -3397686.053 9
  21272420.110     1299108.408 6   1016018.490 6
  20017817.681    -7701688.642 7  -5944566.521 9
  20364522.954   -16355082.444 7 -12527839.622 9
  23208306.134    -4242709.393 5  -3231681.279 5
  22277699.767   -12630394.091 5  -9638091.499 5
 94  1 29  1 32 29.9970000  0  6 27 19  2  7 15 26
  19505626.579    -4424573.089 7  -3406506.706 9
  21277520.392     1325915.227 6   1036906.906 6
  20008902.649    -7748540.318 7  -5981074.310 9
  20344188.587   -16461941.968 7 -12611106.759 9
  23193096.454    -4322647.175 5  -3293970.417 4
  22258270.103   -12732503.252 5  -9717657.045 5
 94  1 29  1 32 59.9960000  0  6 27 19  2  7 15 26
  19503551.723    -4435472.390 7  -3414999.662 9
  21282671.418     1352980.718 6   1057996.911 6
  20000021.113    -7795203.984 7  -6017435.588 9
  20323923.113   -16568441.539 7 -12694093.410 9
  23177958.020    -4402195.420 5  -3355956.029 3
  22238913.629   -12834211.763 6  -9796910.388 5
 94  1 29  1 33 29.9960000  0  6 27 19  2  7 15 26
  19501558.254    -4445957.562 7  -3423169.909 9
  21287874.316     1380314.546 6   1079295.996 6
  19991175.184    -7841686.218 7  -6053655.488 9
  20303726.840   -16674567.072 7 -12776788.587 9
  23162892.512    -4481351.451 5  -3417636.001 3
  22219635.480   -12935518.870 6  -9875850.953 5
 94  1 29  1 33 59.9960000  0  6 27 19  2  7 15 26
  19499635.418    -4456049.530 7  -3431033.786 8
  21293125.535     1407918.656 6   1100805.672 6
  19982366.301    -7887986.285 7  -6089733.458 9
  20283610.246   -16780285.236 7 -12859166.363 8
  23147903.488    -4560110.789 5  -3479006.868 3
  22200434.020   -13036420.184 6  -9954475.333 5
 94  1 29  1 34 29.9960000  0  6 27 19  2  7 15 26
  19497791.902    -4465751.098 7  -3438593.443 8
  21298429.949     1435789.665 6   1122523.335 6
  19973587.801    -7934112.509 7  -6125675.955 9
  20263571.949   -16885579.925 7 -12941214.147 9
  23132992.691    -4638474.441 5  -3540069.409 3
  22181312.176   -13136918.967 6 -10032786.035 5
 94  1 29  1 34 59.9960000  0  6 27 19  2  7 15 26
  19496019.574    -4475069.330 7  -3445854.414 8
  21303781.074     1463920.704 6   1144443.608 6
  19964841.496    -7980068.606 7  -6161485.898 9
  20243620.801   -16990429.239 7 -13022914.889 9
  23118156.184    -4716434.719 5  -3600817.633 3
  22162265.309   -13237013.792 6 -10110781.994 5
 94  1 29  1 35 29.9960000  0  6 27 19  2  7 15 26
  19494317.754    -4484005.589 7  -3452817.706 8
  21309183.215     1492308.149 6   1166563.698 6
  19956132.676    -8025840.702 7  -6197152.439 9
  20223753.223   -17094830.453 7 -13104266.442 9
  23103398.723    -4793989.440 5  -3661249.824 4
  22143297.520   -13336686.546 6 -10188449.029 5
 94  1 29  1 35 59.9960000  0  6 27 19  2  7 15 26
  19492691.973    -4492556.231 7  -3459480.546 9
  21314631.660     1520936.725 6   1188871.683 6
  19947454.762    -8071440.017 7  -6232684.359 9
  20203969.543   -17198790.793 7 -13185274.471 9
  23088713.551    -4871148.431 5  -3721373.652 3
  22124411.066   -13435933.941 6 -10265784.635 5
 94  1 29  1 36 29.9960000  0  6 27 19  2  7 15 26
  19491141.879    -4500693.652 7  -3465821.395 9
  21320130.434     1549828.352 6   1211384.633 6
  19938812.277    -8116854.525 7  -6268072.273 9
  20184273.121   -17302304.137 7 -13265934.190 9
  23074114.949    -4947884.479 5  -3781167.945 4
  22105616.418   -13534710.937 6 -10342753.688 5
 94  1 29  1 36 59.9960000  0  6 27 19  2  7 15 26
  19489670.301    -4508417.362 7  -3471839.869 9
  21325677.176     1578979.184 6   1234099.548 6
  19930206.824    -8162088.870 7  -6303319.808 9
  20164657.598   -17405385.438 7 -13346257.255 9
  23059595.043    -5024201.958 5  -3840636.060 3
  22086907.520   -13633017.036 6 -10419355.809 5
 94  1 29  1 37 29.9960000  0  6 27 19  2  7 15 26
  19488284.551    -4515718.843 7  -3477529.328 8
  21331273.043     1608388.979 6   1257016.272 6
  19921631.082    -8207142.458 7  -6338426.481 9
  20145120.441   -17508047.002 7 -13426253.245 9
  23045144.981    -5100108.867 5  -3899784.262 3
  22068286.059   -13730872.057 6 -10495606.440 5
 94  1 29  1 37 59.9960000  0  6 27 19  2  7 15 26
  19486975.371    -4522592.953 7  -3482885.762 9
  21336917.816     1638059.429 6   1280136.111 6
  19913093.731    -8252015.133 7  -6373392.170 9
  20125666.145   -17610282.207 7 -13505917.007 9
  23030784.020    -5175595.799 5  -3958605.194 4
  22049748.582   -13828287.848 6 -10571514.810 6
 94  1 29  1 38 29.9960000  0  6 27 19  2  7 15 26
  19485742.535    -4529052.890 7  -3487919.488 9
  21342614.199     1667981.896 6   1303452.310 6
  19904590.887    -8296699.170 7  -6408210.894 9
  20106291.043   -17712103.885 7 -13585258.548 9
  23016493.856    -5250667.591 5  -4017102.664 4
  22031288.106   -13925291.823 6 -10647102.294 6
 94  1 29  1 38 59.9960000  0  6 27 19  2  7 15 26
  19484595.379    -4535093.978 7  -3492626.835 9
  21348359.215     1698173.005 6   1326977.861 6
  19896127.988    -8341169.192 7  -6442862.846 9
  20086998.645   -17813486.721 7 -13664258.128 9
  23002290.973    -5325314.579 5  -4075269.104 4
  22012904.824   -14021891.462 6 -10722374.716 6
 94  1 29  1 39 29.9960000  0  6 27 19  2  7 15 26
  19483519.137    -4540740.591 7  -3497026.795 9
  21354158.426     1728637.098 6   1350716.111 6
  19887705.832    -8385430.663 7  -6477352.294 9
  20067788.652   -17914432.273 7 -13742916.970 9
  22988171.184    -5399539.665 5  -4133106.809 4
  21994599.121   -14118096.005 6 -10797339.260 6
 94  1 29  1 39 59.9960000  0  6 27 19  2  7 15 26
  19482523.129    -4545985.453 7  -3501113.699 9
  21360008.785     1759387.371 6   1374677.356 6
  19879321.301    -8429488.425 7  -6511683.001 9
  20048664.801   -18014929.878 7 -13821226.761 9
  22974127.652    -5473330.887 5  -4190606.430 5
  21976373.113   -14213881.465 6 -10871977.255 6
 94  1 29  1 40 29.9960000  0  6 27 19  2  7 15 26
  19481601.168    -4550830.881 7  -3504889.370 9
  21365915.074     1790424.071 6   1398861.793 6
  19870970.879    -8473365.942 7  -6545873.263 9
  20029624.543   -18114987.737 7 -13899193.896 9
  22960167.606    -5546692.261 5  -4247771.097 4
  21958226.356   -14309241.861 6 -10946284.018 6
 94  1 29  1 40 59.9960000  0  6 27 19  2  7 15 26
  19480753.699    -4555279.079 7  -3508355.501 9
  21371874.215     1821744.432 6   1423267.262 6
  19862652.332    -8517091.040 7  -6579944.759 9
  20010665.512   -18214609.038 7 -13976820.857 9
  22946286.238    -5619624.468 5  -4304601.364 4
  21940163.363   -14404162.959 6 -11020248.478 6
 94  1 29  1 41 29.9960000  0  6 27 19  2  7 15 26
  19479985.895    -4559315.791 7  -3511500.992 9
  21377887.426     1853346.640 6   1447892.354 6
  19854358.488    -8560666.620 7  -6613899.741 9
  19991792.113   -18313797.326 7 -14054110.406 9
  22932488.434    -5692118.243 5  -4361089.974 3
  21922187.645   -14498627.541 6 -11093857.217 6
 94  1 29  1 41 59.9960000  0  6 27 19  2  7 15 26
  19479297.137    -4562932.903 7  -3514319.516 9
  21383952.270     1885214.792 6   1472724.665 6
  19846094.410    -8604094.301 7  -6647739.485 9
  19972999.113   -18412557.376 7 -14131066.264 9
  22918778.723    -5764174.687 5  -4417237.836 4
  21904301.356   -14592632.273 6 -11167107.629 6
 94  1 29  1 42 29.9960000  0  6 27 19  2  7 15 26
  19478688.168    -4566146.655 7  -3516823.742 9
  21390065.551     1917336.059 6   1497754.225 6
  19837859.871    -8647367.700 7  -6681459.001 9
  19954285.887   -18510897.264 7 -14207694.716 9
  22905147.223    -5835797.548 5  -4473047.805 5
  21886494.418   -14686196.732 6 -11240014.977 6
 94  1 29  1 42 59.9960000  0  6 27 19  2  7 15 26
  19478152.496    -4568945.184 7  -3519004.409 9
  21396228.762     1949725.690 6   1522992.904 6
  19829660.871    -8690452.445 7  -6715031.512 9
  19935657.707   -18608785.978 7 -14283971.605 9
  22891608.074    -5906971.781 5  -4528508.220 5
  21868776.949   -14779303.634 6 -11312565.777 6
 94  1 29  1 43 29.9960000  0  6 27 19  2  7 15 26
  19477700.363    -4571328.349 7  -3520861.420 9
  21402439.332     1982370.661 6   1548430.537 6
  19821499.262    -8733342.844 7  -6748452.592 9
  19917116.621   -18706220.843 7 -14359894.848 9
  22878147.981    -5977705.541 5  -4583625.421 4
  21851144.090   -14871957.837 6 -11384763.831 6
 94  1 29  1 43 59.9960000  0  6 27 19  2  7 15 26
  19477327.254    -4573297.175 7  -3522395.566 9
  21408698.629     2015258.463 6   1574057.388 6
  19813372.449    -8776048.752 7  -6781729.914 9
  19898662.527   -18803200.169 7 -14435463.127 9
  22864769.035    -6048000.448 5  -4638400.644 3
  21833597.270   -14964160.189 6 -11456609.794 6
 94  1 29  1 44 29.9960000  0  6 27 19  2  7 15 26
  19477031.473    -4574838.703 7  -3523596.756 9
  21415004.785     2048401.814 6   1599883.380 6
  19805282.934    -8818564.590 7  -6814859.125 9
  19880298.902   -18899701.439 7 -14510658.890 9
  22851472.590    -6117840.701 5  -4692821.598 3
  21816144.481   -15055884.026 6 -11528082.886 6
 94  1 29  1 44 59.9960000  0  6 27 19  2  7 15 26
  19476823.387    -4575943.669 7  -3524457.773 9
  21421362.410     2081801.877 6   1625909.395 6
  19797226.520    -8860896.480 7  -6847845.003 9
  19862025.512   -18995722.025 7 -14585480.096 9
  22838277.441    -6187223.168 5  -4746885.833 4
  21798782.723   -15147111.721 6 -11599169.381 6
 94  1 29  1 45 29.9960000  0  6 27 19  2  7 15 26
  19476693.371    -4576615.311 7  -3524981.133 9
  21427764.004     2115455.488 6   1652132.985 6
  19789204.762    -8903060.270 7  -6880699.889 9
  19843840.207   -19091286.475 7 -14659945.874 9
  22825155.645    -6256149.013 5  -4800594.248 4
  21781514.824   -15237864.763 6 -11669886.014 6
 94  1 29  1 45 59.9960000  0  6 27 19  2  7 15 26
  19476643.270    -4576882.341 7
  21434215.512     2149362.666 6   1678554.159 6
  19781209.262    -8945076.756 7  -6913439.994 9
  19825736.582   -19186421.951 7 -14734077.389 9
  22812128.707    -6324625.143 5  -4853952.249 4
  21764331.699   -15328174.932 6 -11740257.546 6
 94  1 29  1 46 29.9960000  0  6 27 19  2  7 15 26
  19476671.895    -4576733.782 7
  21440720.895     2183546.961 6   1705191.268 6
  19773244.613    -8986925.163 7  -6946049.133 9
  19807714.082   -19281125.945 7 -14807872.679 9
  22799188.770    -6392639.202 5  -4906950.188 3
  21747232.512   -15418032.317 6 -11810276.263 6
 94  1 29  1 46 59.9960000  0  6 27 19  2  7 15 26
  19476780.527    -4576170.038 7  -3524634.165 9
  21447280.840     2218009.560 6   1732045.230 6
  19765314.973    -9028593.384 7  -6978517.863 9
  19789772.551   -19375415.326 7 -14881344.899 9
  22786328.223    -6460195.024 5  -4959591.083 4
  21730211.731   -15507459.116 6 -11879959.465 6
 94  1 29  1 47 29.9960000  0  6 27 19  2  7 15 26
  19476966.402    -4575192.322 7  -3523872.337 9
  21453893.645     2252756.177 6   1759120.491 6
  19757423.707    -9070058.646 7  -7010828.477 9
  19771913.949   -19469268.628 7 -14954477.347 9
  22773561.207    -6527280.750 5  -5011865.669 4
  21713279.426   -15596440.296 6 -11949295.459 6
 94  1 29  1 47 59.9960000  0  6 27 19  2  7 15 26
  19477228.785    -4573809.236 7  -3522794.604 9
  21460557.309     2287774.835 6   1786407.753 6
  19749573.457    -9111321.028 7  -7042980.964 9
  19754138.746   -19562673.512 7 -15027260.341 9
  22760887.090    -6593901.923 5  -5063778.241 4
  21696435.035   -15684964.987 6 -12018275.692 6
 94  1 29  1 48 29.9960000  0  6 27 19  2  7 15 26
  19477570.309    -4572010.788 7  -3521393.216 9
  21467272.441     2323063.321 6   1813905.272 6
  19741762.543    -9152366.253 7  -7074964.255 9
  19736452.606   -19655611.723 7 -15099679.702 9
  22748299.543    -6660056.499 5  -5115327.256 5
  21679678.566   -15773015.958 6 -12086886.819 6
 94  1 29  1 48 59.9960000  0  7 27 19  2  7 15 13 26
  19477990.473    -4569808.778 7  -3519677.359 9
  21474040.395     2358620.433 6   1841612.094 6
  19733990.481    -9193200.147 7  -7106782.853 9
  19718859.715   -19748064.785 7 -15171721.015 9
  22735796.113    -6725740.224 5  -5166509.342 2
  23502208.113          -0.70013
  21663014.941   -15860589.826 6 -12155126.169 6
 94  1 29  1 49 29.9960000  0  7 27 19  2  7 15 13 26
  19478482.887    -4567214.012 7  -3517655.473 9
  21480852.824     2394438.234 6   1869522.070 5
  19726254.949    -9233856.698 7  -7138463.280 9
  19701359.543   -19840027.543 7 -15243380.283 9
  22723389.051    -6790960.413 5  -5217330.246 5
  23471782.809     -159902.142 3
  21646444.168   -15947686.817 6 -12222993.944 6
 94  1 29  1 49 59.9960000  0  7 27 19  2  7 15 13 26
  19479053.488    -4564221.502 7  -3515323.617 9
  21487718.738     2430517.557 6   1897635.861 6
  19718549.535    -9274353.301 7  -7170019.031 9
  19683948.902   -19931522.573 7 -15314675.051 9
  22711064.207    -6855718.254 5  -5267790.853 5
  23441359.941     -319777.096 4
  21629956.606   -16034317.073 6 -12290497.979 6
 94  1 29  1 50 29.9960000  0  7 27 19  2  7 15 13 26
  19479700.957    -4560817.058 7  -3512670.809 9
  21494635.934     2466861.309 6   1925955.656 6
  19710873.691    -9314683.367 7  -7201445.051 9
  19666628.551   -20022548.892 7 -15385604.632 9
  22698832.574    -6920001.841 5  -5317881.934 4
  23410944.918     -479612.287 3        -0.07611
  21613560.996   -16120461.055 6 -12357623.143 6
 94  1 29  1 50 59.9960000  0  7 27 19  2  7 15 13 26
  19480425.723    -4556997.837 7  -3509694.819 9
  21501604.449     2503460.812 6   1954474.713 6
  19703229.496    -9354861.042 7  -7232752.345 9
  19649392.254   -20113120.993 7 -15456180.299 9
  22686689.543    -6983813.687 5  -5367605.450 4
  23380537.293     -639409.217 3   -124517.040 1
  21597259.520   -16206121.674 6 -12424371.685 6
 94  1 29  1 51 29.9960000  0  7 27 19  2  7 15 13 26
  19481236.363    -4552746.747 7  -3506382.279 9
  21508611.676     2540314.960 6   1983192.223 5
  19695614.590    -9394875.055 7  -7263932.083 9
  19632242.770   -20203235.381 7 -15526399.274 9
  22674639.285    -7047140.514 5  -5416951.008 4
  23350136.652     -799153.589 4   -248992.979 1
  21581053.816   -16291284.068 6 -12490731.976 6
 94  1 29  1 51 59.9960000  0  7 27 19  2  7 15 13 26
  19482127.863    -4548071.202 7  -3502738.998 9
  21515676.754     2577413.040 6   2012099.812 5
  19688031.809    -9434717.509 7  -7294978.132 9
  19615179.707   -20292901.880 7 -15596269.251 9
  22662676.918    -7109980.578 5  -5465917.263 5
  23319743.145     -958842.366 3   -373425.601 1
  21564945.426   -16375949.183 6 -12556704.763 6
 94  1 29  1 52 29.9960000  0  7 27 19  2  7 15 13 26
  19483094.043    -4542982.243 7  -3498773.574 9
  21522779.074     2614748.450 6   2041192.342 5
  19680480.012    -9474405.732 7  -7325903.998 9
  19598205.168   -20382115.087 7 -15665786.012 9
  22650811.051    -7172343.947 5  -5514512.081 4
  23289369.098    -1118484.153 3   -497821.576 1
  21548923.348   -16460125.689 6 -12622296.829 6
 94  1 29  1 52 59.9950000  0  7 27 19  2  7 15 13 26
  19484140.601    -4537481.498 7  -3494487.275 9
  21529929.944     2652337.206 6   2070482.266 5
  19672958.507    -9513933.650 7  -7356704.969 9
  19581318.523   -20470852.259 7 -15734931.841 9
  22639041.218    -7234216.517 5  -5562724.439 5
  23259003.382    -1278060.282 4   -622166.381 1
  21533000.788   -16543807.821 6 -12687503.653 6
 94  1 29  1 53 29.9950000  0  7 27 19  2  7 15 13 26
  19485261.796    -4531591.179 7  -3489897.426 9
  21537133.679     2690173.088 6   2099964.770 5
  19665462.921    -9553316.254 7  -7387392.702 9
  19564521.101   -20559112.685 7 -15803706.173 9
  22627356.476    -7295612.727 5  -5610565.608 4
  23228645.569    -1437590.754 4   -746475.671 1
  21517168.937   -16627013.934 6 -12752339.556 6
 94  1 29  1 53 59.9950000  0  7 27 19  2  7 15 13 26
  19486459.905    -4525296.895 7  -3484992.797 9
  21544383.882     2728286.374 6   2129663.426 6
  19658001.444    -9592533.611 7  -7417951.681 9
  19547821.343   -20646869.534 7 -15872088.114 9
  22615763.858    -7356519.799 5  -5658025.654 4
  23198297.843    -1597058.141 4   -870735.786 1
  21501429.218   -16709735.157 6 -12816797.634 6
 94  1 29  1 54 29.9950000  0  7 27 19  2  7 15 13 26
  19487735.804    -4518597.126 7  -3479772.196 9
  21551687.405     2766670.366 6   2159573.034 5
  19650569.491    -9631580.345 7  -7448377.693 9
  19531218.327   -20734126.217 7 -15940080.309 9
  22604271.093    -7416941.971 5  -5705107.830 5
  23167964.155    -1756465.070 4   -994948.814 1
  21485776.702   -16791972.284 6 -12880878.494 6
 94  1 29  1 54 59.9950000  0  7 27 19  2  7 15 13 26
  19489089.616    -4511484.584 7  -3474229.963 9
  21559041.374     2805313.406 6   2189684.485 5
  19643176.405    -9670436.834 7  -7478655.468 9
  19514707.265   -20820891.347 7 -16007689.478 9
  22592862.687    -7476870.117 5  -5751805.047 5
  23137638.452    -1915801.288 4  -1119106.721 1
  21470220.046   -16873719.133 6 -12944577.322 6
 94  1 29  1 55 29.9950000  0  7 27 19  2  7 15 13 26
  19490524.054    -4503940.912 7  -3468351.774 9
  21566442.030     2844205.058 6   2219989.676 5
  19635817.507    -9709108.324 7  -7508789.085 9
  19498284.804   -20907182.634 7 -16074929.418 9
  22581553.319    -7536308.569 5  -5798120.716 4
  23107332.983    -2075069.560 5  -1243211.746 1
  21454760.507   -16954981.615 6 -13007898.725 6
 94  1 29  1 55 59.9950000  0  7 27 19  2  7 15 13 26
  19492043.116    -4495956.901 7  -3462130.470 9
  21573888.835     2883341.342 6   2250485.471 5
  19628493.413    -9747596.591 7  -7538779.923 9
  19481952.249   -20993021.254 7 -16141816.627 9
  22570333.327    -7595253.948 5  -5844052.151 4
  23077039.679    -2234265.096 4  -1367260.105 1
  21439389.710   -17035744.576 6 -13070830.884 6
 94  1 29  1 56 29.9950000  0  7 27 19  2  7 15 13 26
  19493646.921    -4487527.265 7  -3455561.933 9
  21581381.023     2922710.590 6   2281162.792 5
  19621202.218    -9785909.926 7  -7568634.460 9
  19465702.749   -21078415.277 7 -16208357.408 9
  22559216.671    -7653698.472 5  -5889593.333 4
  23046757.804    -2393378.844 4  -1491244.749 1
  21424117.671   -17115991.610 6 -13133361.023 6
 94  1 29  1 56 59.9950000  0  7 27 19  2  7 15 13 26
  19495335.468    -4478660.681 7  -3448652.916 9
  21588919.608     2962325.379 6   2312031.455 5
  19613940.569    -9824069.306 7  -7598369.035 9
  19449537.601   -21163358.809 7 -16274547.150 9
  22548182.171    -7711647.578 5  -5934748.457 4
  23016495.694    -2552414.809 4  -1615168.820 1
  21408947.819   -17195726.693 6 -13195492.233 6
 94  1 29  1 57 29.9950000  0  7 27 19  2  7 15 13 26
  19497103.296    -4469369.645 7  -3441413.149 8
  21596508.554     3002196.654 6   2343099.974 5
  19606710.780    -9862069.358 7  -7627979.453 9
  19433464.554   -21247827.101 7 -16340366.577 9
  22537252.835    -7769103.781 5  -5979519.508 5
  22986250.819    -2711373.964 5  -1739032.997 1
  21393868.835   -17274951.262 6 -13257225.644 6
 94  1 29  1 57 59.9950000  0  7 27 19  2  7 15 13 26
  19498946.366    -4459677.475 7  -3433860.816 8
  21604142.054     3042326.706 6   2374370.124 5
  19599512.718    -9899895.785 7  -7657454.580 9
  19417482.655   -21331805.521 7 -16405804.287 9
  22526413.179    -7826060.846 5  -6023901.606 4
  22956015.710    -2870248.648 4  -1862831.408 1
  21378889.304   -17353669.606 6 -13318564.600 6
 94  1 29  1 58 29.9950000  0  7 27 19  2  7 15 13 26
  19500867.718    -4449590.492 7  -3426000.832 8
  21611830.280     3082712.182 6   2405839.321 5
  19592347.382    -9937544.699 7  -7686791.381 9
  19401598.460   -21415279.439 7 -16470848.876 9
  22515670.796    -7882519.584 5  -6067895.417 4
  22925801.523    -3029037.886 5  -1986563.221 1
  21364004.937   -17431904.799 6 -13379527.076 6
 94  1 29  1 58 59.9950000  0  7 27 19  2  7 15 13 26
  19502860.749    -4439108.169 7  -3417832.796 8
  21619562.343     3123362.840 6   2437515.150 5
  19585219.319    -9975001.649 7  -7715978.603 9
  19385815.913   -21498226.888 7 -16535483.226 9
  22505025.499    -7938468.800 5  -6111492.174 5
  22895603.085    -3187728.585 5  -2110218.261 1
  21349206.046   -17509656.297 6 -13440112.634 6
 94  1 29  1 59 29.9950000  0  7 27 19  2  7 15 13 26
  19504930.679    -4428233.050 7  -3409358.678 8
  21627342.874     3164250.668 5   2469375.789 5
  19578124.319   -10012277.395 7  -7745024.630 9
  19370126.905   -21580664.492 7 -16599720.302 9
  22494475.398    -7993911.336 5  -6154694.144 4
  22865424.343    -3346322.624 5  -2233797.971 1
  21334503.444   -17586936.235 6 -13500330.760 6
 94  1 29  1 59 59.9950000  0  7 27 19  2  7 15 13 26
  19507075.226    -4416963.863 7  -3400577.501 8
  21635165.319     3205365.953 5   2501413.663 5
  19571061.819   -10049401.832 7  -7773952.756 9
  19354530.468   -21662625.681 7 -16663586.141 9
  22484015.991    -8048852.333 5  -6197505.291 4
  22835264.437    -3504823.313 5  -2357304.957 1
  21319886.319   -17663745.601 6 -13560182.198 6
 94  1 29  2  0 29.9950000  0  7 27 19  2  7 15 13 26
  19509298.335    -4405287.065 7  -3391478.707 8
  21643035.647     3246710.344 5   2533630.064 5
  19564024.757   -10086378.370 7  -7802765.636 9
  19339024.554   -21744115.536 7 -16727084.710 9
  22473660.523    -8103286.125 5  -6239921.206 5
  22805117.913    -3663223.185 5  -2480733.377 2
  21305359.398   -17740068.640 6 -13619654.686 6
 94  1 29  2  0 59.9950000  0  7 27 19  2  7 15 13 26
  19511599.421    -4393188.137 7  -3382050.979 8
  21650946.226     3288287.679 5   2566027.977 5
  19557020.015   -10123196.006 7  -7831454.693 9
  19323602.304   -21825145.731 7 -16790225.104 9
  22463397.569    -8157205.537 5  -6281936.305 4
  22774997.226    -3821513.902 5  -2604076.744 1
  21290933.319   -17815890.129 6 -13678736.348 6
 94  1 29  2  1 29.9950000  0  7 27 19  2  7 15 13 26
  19513988.288    -4380634.546 7  -3372268.966 8
  21658908.866     3330119.893 5   2598624.504 5
  19550049.702   -10159822.060 7  -7859994.461 9
  19308273.444   -21905704.744 7 -16852998.338 9
  22453240.288    -8210589.706 5  -6323534.341 5
  22744900.679    -3979672.758 5  -2727317.376 1
  21276601.944   -17891193.677 6 -13737414.419 6
 94  1 29  2  1 59.9950000  0  7 27 19  2  7 15 13 26
  19516457.733    -4367658.692 7  -3362157.909 8
  21666911.632     3372180.101 5   2631398.695 5
  19543112.616   -10196281.356 7  -7888404.289 9
  19293027.491   -21985819.084 7 -16915425.071 9
  22443182.944    -8263469.941 5  -6364739.694 4
  22714822.710    -4137729.055 5  -2850478.075 1
  21262367.413   -17966006.962 6 -13795710.465 6
 94  1 29  2  2 29.9950000  0  7 27 19  2  7 15 13 26
  19519010.944    -4354244.915 7  -3351705.622 8
  21674953.851     3414468.233 5   2664350.475 5
  19536205.421   -10232570.988 7  -7916681.925 9
  19277872.007   -22065469.054 7 -16977489.967 9
  22433213.577    -8315845.314 5  -6405551.654 4
  22684764.905    -4295680.088 5  -2973556.741 1
  21248221.991   -18040334.473 6 -13853627.983 6
 94  1 29  2  2 59.9950000  0  7 27 19  2  7 15 13 26
  19521649.390    -4340371.371 7  -3340895.070 8
  21683053.749     3457013.303 5   2697502.476 5
  19529334.780   -10268682.760 7  -7944820.959 9
  19262808.640   -22144624.502 7 -17039169.519 9
  22423346.210    -8367697.170 5  -6445955.688 5
  22654731.132    -4453505.789 5  -3096537.749 1
  21234175.827   -18114148.617 6 -13911145.484 6
 94  1 29  2  3 29.9950000  0  7 27 19  2  7 15 13 26
  19524375.991    -4326049.403 7  -3329735.103 8
  21691202.796     3499817.424 5   2730856.331 5
  19522492.983   -10304631.594 7  -7972833.027 9
  19247843.562   -22223261.342 7 -17100444.958 9
  22413577.788    -8419023.173 5  -6485949.967 5
  22624724.687    -4611202.212 5  -3219417.999 2
  21220229.390   -18187442.119 6 -13968257.298 6
 94  1 29  2  3 59.9950000  0  7 27 19  2  7 15 13 26
  19527184.249    -4311291.017 7  -3318235.067 8
  21699399.077     3542876.214 5   2764408.632 5
  19515679.765   -10340431.703 7  -8000729.208 9
  19232979.249   -22301379.196 7 -17161315.987 9
  22403910.960    -8469826.140 5  -6525536.663 5
  22594739.890    -4768770.221 5  -3342198.219 1
  21206382.757   -18260201.698 6 -14024953.068 6
 94  1 29  2  4 29.9950000  0  7 27 19  2  7 15 13 26
  19530073.124    -4296115.217 7  -3306409.774 8
  21707636.687     3586179.779 5   2798151.659 5
  19508897.483   -10376075.946 7  -8028503.934 9
  19218212.780   -22378979.970 7 -17221784.099 9
  22394343.827    -8520110.041 5  -6564718.919 5
  22564782.101    -4926211.837 5  -3464879.938 1
  21192640.304   -18332418.999 6 -14081226.265 6
 94  1 29  2  4 59.9950000  0  7 27 19  2  7 15 13 26
  19533033.054    -4280555.247 7  -3294285.123 8
  21715918.812     3629731.613 5   2832088.133 5
  19502147.304   -10411545.767 7  -8056142.747 9
  19203545.671   -22456063.824 7 -17281849.427 9
  22384869.530    -8569869.879 5  -6603492.801 5
  22534848.757    -5083520.283 5  -3587457.908 2
  21179003.218   -18404087.891 6 -14137072.131 6
 94  1 29  2  5 29.9950000  0  7 27 19  2  7 15 13 26
  19536066.038    -4264618.898 7  -3281867.197 8
  21724255.468     3673522.137 5   2866210.620 5
  19495433.483   -10446828.863 7  -8083636.067 9
  19188973.773   -22532637.849 7 -17341517.482 9
  22375502.155    -8619104.916 5  -6641857.742 5
  22504935.077    -5240692.902 5  -3709930.021 2
  21165463.476   -18475223.683 6 -14192502.614 6
 94  1 29  2  5 59.9950000  0  7 27 19  2  7 15 13 26
  19539167.804    -4248315.410 7  -3269163.184 8
  21732634.452     3717550.380 5   2900518.334 5
  19488756.663   -10481922.118 7  -8110981.453 9
  19174492.882   -22608725.035 7 -17400806.176 9
  22366235.601    -8667817.541 5  -6679815.618 4
  22475053.812    -5397730.416 5  -3832296.832 1
  21152028.968   -18545832.019 6 -14247522.087 6
 94  1 29  2  6 29.9950000  0  7 27 19  2  7 15 13 26
  19542341.499    -4231637.048 7  -3256167.062 8
  21741057.773     3761823.898 5   2935017.184 5
  19482111.999   -10516831.768 7  -8138183.769 9
  19160108.804   -22684327.244 7 -17459716.968 9
  22357068.398    -8716004.020 5  -6717363.501 5
  22445189.179    -5554627.010 5  -3954553.856 1
  21138688.546   -18615922.737 6 -14302138.223 6
 94  1 29  2  6 59.9950000  0  7 27 19  2  7 15 13 26
  19545588.601    -4214574.941 7  -3242871.920 8
  21749528.866     3806340.862 5   2969705.715 5
  19475500.671   -10551573.414 7  -8165255.175 9
  19145808.733   -22759461.561 7 -17518263.175 9
  22347992.616    -8763670.993 5  -6754506.581 4
  22415363.194    -5711387.279 5  -4076704.672 1
  21125450.319   -18685520.258 6 -14356370.043 6
 94  1 29  2  7 29.9950000  0  7 27 19  2  7 15 13 26
  19548915.530    -4197087.657 7  -3229245.479 8
  21758053.757     3851107.648 5   3004588.912 5
  19468923.538   -10586144.863 7  -8192193.969 9
  19131603.194   -22834117.126 7 -17576436.329 9
  22339024.444    -8810806.183 5  -6791235.291 5
  22385562.913    -5867997.210 5  -4198738.322 2
  21112298.202   -18754605.247 6 -14410202.496 6
 94  1 29  2  7 59.9950000  0  7 27 19  2  7 15 13 26
  19552328.116    -4179159.844 7  -3215275.752 8
  21766616.726     3896119.078 5   3039662.743 5
  19462375.062   -10620552.472 7  -8219005.079 9
  19117488.687   -22908289.279 7 -17634232.792 9
  22330154.702    -8857410.640 5  -6827550.443 5
  22355790.819    -6024455.970 5  -4320654.158 2
  21099251.874   -18823172.136 6 -14463631.224 6
 94  1 29  2  8 29.9950000  0  7 27 19  2  7 15 13 26
  19555826.077    -4160774.023 7  -3200949.141 8
  21775226.108     3941376.074 5   3074927.924 5
  19455860.546   -10654789.334 7  -8245683.147 9
  19103467.085   -22981960.299 7 -17691638.762 9
  22321389.077    -8903483.175 5  -6863451.089 3
  22326049.507    -6180760.074 5  -4442449.531 1
  21086303.468   -18891221.577 6 -14516656.750 6
 94  1 29  2  8 59.9950000  0  7 27 19  2  7 15 13 26
  19559409.882    -4141939.229 7  -3186272.685 8
  21783881.585     3986862.264 5   3110371.717 5
  19449377.788   -10688849.019 7  -8272223.157 9
  19089546.507   -23055129.290 7 -17748653.543 9
  22312717.296    -8949026.195 5  -6898939.153 5
  22296334.054    -6336910.126 5  -4564124.825 2
  21073450.679   -18958749.530 6 -14569275.928 6
 94  1 29  2  9 29.9950000  0  7 27 19  2  7 15 13 26
  19563078.155    -4122671.166 7  -3171258.619 8
  21792584.194     4032573.488 5   3145990.835 5
  19442928.577   -10722746.792 7  -8298636.998 9
  19075716.780   -23127796.763 7 -17805277.530 9
  22304153.968    -8994041.186 5  -6934015.738 4
  22266643.163    -6492905.478 5  -4685679.620 2
  21060702.999   -19025758.942 6 -14621491.041 6
 94  1 29  2  9 59.9950000  0  7 27 19  2  7 15 13 26
  19566825.132    -4102980.221 7  -3155915.025 8
  21801325.288     4078518.549 5   3181792.167 5
  19436509.226   -10756477.101 7  -8324920.336 9
  19061985.210   -23199959.746 7 -17861508.407 9
  22295689.741    -9038520.035 5  -6968674.556 5
  22236990.663    -6648735.706 5  -4807105.704 1
  21048050.921   -19092252.601 6 -14673304.258 6
 94  1 29  2 10 29.9950000  0  7 27 19  2  7 15 13 26
  19570644.179    -4082903.325 7  -3140270.705 8
  21810111.999     4124699.743 5   3217777.506 4
  19430121.382   -10790044.242 7  -8351076.542 9
  19048349.108   -23271630.394 7 -17917355.646 9
  22287325.593    -9082464.258 5  -7002916.789 5
  22207365.687    -6804400.520 5  -4928402.924 1
  21035493.421   -19158223.646 6 -14724710.253 6
 94  1 29  2 10 59.9950000  0  7 27 19  2  7 15 13 26
  19574535.538    -4062463.991 7  -3124343.964 8
  21818944.304     4171105.329 5   3253937.699 5
  19423761.233   -10823470.880 7  -8377123.269 9
  19034797.640   -23342826.576 7 -17972833.175 9
  22279067.694    -9125878.821 5  -7036746.301 5
  22177779.960    -6959902.923 5  -5049573.549 3
  21023043.390   -19223663.612 6 -14775702.427 6
 94  1 29  2 11 29.9950000  0  7 27 19  2  7 15 13 26
  19578492.765    -4041658.435 7  -3108131.855 8
  21827822.976     4217753.596 5   3290286.984 5
  19417427.444   -10856755.418 7  -8403059.267 9
  19021343.601   -23413536.682 7 -18027931.944 9
  22270908.132    -9168756.458 5  -7070157.435 5
  22148217.624    -7115233.107 5  -5170610.028 1
  21010690.726   -19288563.729 6 -14826273.942 6
 94  1 29  2 11 59.9950000  0  7 27 19  2  7 15 13 26
  19582522.983    -4020479.751 7  -3091628.984 8
  21836739.843     4264636.083 5   3326818.776 5
  19411122.288   -10889885.602 7  -8428874.984 9
  19007981.116   -23483752.513 7 -18082645.561 9
  22262852.796    -9211096.815 5  -7103149.910 5
  22118700.468    -7270388.601 5  -5291510.351 2
  20998449.944   -19352904.563 6 -14876409.636 6
 94  1 29  2 12 29.9950000  0  7 27 19  2  7 15 13 26
  19586627.015    -3998922.828 7  -3074831.394 8
  21845701.983     4311739.600 5   3363522.809 5
  19404846.882   -10922865.393 7  -8454573.513 9
  18994714.374   -23553465.620 7 -18136967.444 9
  22254896.108    -9252899.825 5  -7135723.663 5
  22089203.413    -7425367.567 5  -5412273.143 2
  20986310.343   -19416682.892 6 -14926107.032 6
 94  1 29  2 12 59.9940000  0  7 27 19  2  7 15 13 26
  19590805.705    -3976951.578 7  -3057710.953 8
  21854712.596     4359058.771 5   3400394.877 4
  19398602.299   -10955687.292 7  -8480149.020 9
  18981546.822   -23622664.658 7 -18190888.756 9
  22247042.455    -9294156.457 5  -7167871.673 5
  22059747.854    -7580154.984 5  -5532886.647 2
  20974276.557   -19479910.674 6 -14975375.420 6
 94  1 29  2 13 29.9940000  0  7 27 19  2  7 15 13 26
  19595069.229    -3954548.963 7  -3040254.383 8
  21863753.666     4406586.111 5   3437429.164 5
  19392386.666   -10988341.897 7  -8505594.162 9
  18968478.377   -23691353.012 7 -18244412.132 9
  22239297.807    -9334871.519 5  -7199597.697 5
  22030331.127    -7734760.670 5  -5653358.526 1
  20962347.236   -19542609.391 6 -15024231.554 6
 94  1 29  2 13 59.9940000  0  7 27 19  2  7 15 13 26
  19599415.479    -3931713.354 7  -3022460.409 8
  21872830.955     4454302.222 5   3474610.526 4
  19386204.275   -11020828.651 7  -8530908.503 9
  18955501.143   -23759551.722 7 -18297553.967 9
  22231650.565    -9375049.141 5  -7230904.917 5
  22000943.236    -7889182.939 5  -5773687.538 1
  20950513.033   -19604788.853 6 -15072683.072 6
 94  1 29  2 14 29.9940000  0  7 27 19  2  7 15 13 26
  19603844.596    -3908436.416 7  -3004322.552 8
  21881949.682     4502220.535 5   3511949.462 5
  19380053.736   -11053152.827 7  -8556096.169 9
  18942614.119   -23827274.251 7 -18350324.755 9
  22224106.033    -9414690.122 5  -7261793.979 5
  21971591.979    -8043420.115 5  -5893872.290 3
  20938774.963   -19666471.436 6 -15120747.412 6
 94  1 29  2 14 59.9940000  0  7 27 19  2  7 15 13 26
  19608361.408    -3884701.959 7  -2985828.174 8
  21891114.260     4550366.450 5   3549465.763 5
  19373935.400   -11085301.384 7  -8581146.977 9
  18929816.088   -23894513.502 7 -18402718.956 9
  22216669.533    -9453785.530 5  -7292257.911 5
  21942277.986    -8197461.021 5  -6013904.105 2
  20927136.315   -19727649.899 6 -15168418.934 6
 94  1 29  2 15 29.9940000  0  7 27 19  2  7 15 13 26
  19612956.854    -3860552.892 7  -2967010.729 7
  21900318.072     4598731.696 5   3587152.970 5
  19367847.057   -11117294.635 7  -8606076.773 9
  18917110.713   -23961273.738 7 -18454739.900 9
  22209332.283    -9492352.474 5  -7322310.052 4
  21912998.619    -8351320.492 5  -6133794.552 2
  20915589.846   -19788335.462 6 -15215706.370 6
 94  1 29  2 15 59.9940000  0  7 27 19  2  7 15 13 26
  19617633.494    -3835978.108 7  -2947861.564 7
  21909570.361     4647357.410 5   3625043.127 4
  19361794.463   -11149106.408 7  -8630865.163 9
  18904505.471   -24027518.245 7 -18506358.978 8
  22202098.533    -9530361.878 5  -7351927.759 4
  21883761.955    -8504967.209 5  -6253519.227 1
  20904139.565   -19848499.280 6 -15262587.259 6
 94  1 29  2 16 29.9940000  0  7 27 19  2  7 15 13 26
  19622386.994    -3810992.521 6  -2928392.286 7
  21918871.971     4696233.702 5   3663128.531 5
  19355772.432   -11180752.006 7  -8655524.061 9
  18892002.158   -24093227.887 7 -18557561.277 9
  22194966.400    -9567824.738 5  -7381119.586 4
  21854560.447    -8658409.758 5  -6373084.825 2
  20892790.221   -19908142.591 6 -15309062.549 6
 94  1 29  2 16 59.9940000  0  7 27 19  2  7 15 13 26
  19627216.541    -3785624.600 6  -2908625.094 7
  21928217.736     4745342.833 5   3701395.373 4
  19349783.330   -11212230.934 7  -8680053.093 9
  18879600.400   -24158391.328 7 -18608337.981 9
  22187940.065    -9604742.328 5  -7409886.528 5
  21825402.705    -8811647.013 5  -6492490.417 2
  20881541.900   -19967254.054 6 -15355123.420 6
 94  1 29  2 17 29.9940000  0  7 27 19  2  7 15 13 26
  19632112.627    -3759885.963 6  -2888569.029 7
  21937606.760     4794678.080 5   3739838.400 4
  19343825.510   -11243533.493 7  -8704444.700 9
  18867302.065   -24223015.981 7 -18658694.838 9
  22181020.697    -9641110.719 5  -7438225.538 4
  21796277.729    -8964672.412 5  -6611730.937 2
  20870397.072   -20025830.877 6 -15400767.696 6
 94  1 29  2 17 59.9940000  0  7 27 19  2  7 15 13 26
  19637083.080    -3733764.007 6  -2868214.269 7
  21947031.299     4844212.483 5   3778436.628 4
  19337902.815   -11274663.452 7  -8728701.798 9
  18855103.768   -24287119.674 7 -18708645.758 9
  22174204.002    -9676935.765 5  -7466141.132 5
  21767202.213    -9117489.603 5  -6730809.234 2
  20859350.174   -20083871.986 6 -15445994.517 6
 94  1 29  2 18 29.9940000  0  7 27 19  2  7 15 13 26
  19642129.033    -3707252.804 6  -2847556.190 7
  21956496.674     4893949.827 5   3817193.012 5
  19332009.932   -11305619.434 7  -8752823.324 9
  18843003.650   -24350710.574 7 -18758197.080 9
  22167491.572    -9712209.853 5  -7493627.403 5
  21738166.549    -9270088.458 5  -6849717.369 2
  20848409.658   -20141371.035 6 -15490798.943 6
 94  1 29  2 18 59.9940000  0  7 27 19  2  7 15 13 26
  19647245.486    -3680366.235 6  -2826605.615 8
  21965999.252     4943877.505 5   3856097.693 2
  19326149.479   -11336415.015 7  -8776819.861 9
  18830992.744   -24413830.023 7 -18807381.039 9
  22160883.408    -9746939.714 5  -7520689.602 5
  21709168.963    -9422473.515 5  -6968458.906 4
  20837567.986   -20198349.330 6 -15535197.597 6
 94  1 29  2 19 29.9940000  0  7 27 19  2  7 15 13 26
  19652437.236    -3653076.520 6  -2805340.917 7
  21975537.385     4994004.432 5   3895157.638 4
  19320323.846   -11367045.859 7  -8800688.042 9
  18819069.252   -24476483.158 7 -18856201.653 9
  22154379.268    -9781116.088 5  -7547320.548 5
  21680211.432    -9574632.858 5  -7087024.582 3
  20826822.815   -20254793.307 6 -15579179.903 6
 94  1 29  2 19 59.9940000  0  7 27 19  2  7 15 13 26
  19657708.002    -3625382.621 6  -2783761.315 7
  21985112.565     5044329.627 5   3934372.030 4
  19314521.221   -11397529.117 7  -8824441.265 9
  18807235.260   -24538672.893 7 -18904661.215 9
  22147977.525    -9814743.947 5  -7573524.102 5
  21651306.065    -9726568.709 5  -7205416.136 4
  20816189.338   -20310700.199 6 -15622743.746 6
 94  1 29  2 20 29.9940000  0  7 27 19  2  7 15 13 26
  19663054.416    -3597287.229 6  -2761868.806 7
  21994733.908     5094883.008 5   3973764.261 3
  19308749.900   -11427857.631 7  -8848073.865 9
  18795489.549   -24600395.453 7 -18952756.695 9
  22141687.135    -9847814.647 5  -7599293.449 4
  21622432.799    -9878270.047 5  -7323624.917 2
  20805651.838   -20366062.510 6 -15665883.185 6
 94  1 29  2 20 59.9940000  0  7 27 19  2  7 15 13 26
  19668477.135    -3568793.840 6  -2739666.178 7
  22004392.822     5145643.214 5   4013317.653 4
  19303006.400   -11458042.124 7  -8871594.244 9
  18783835.791   -24661649.267 7 -19000486.935 9
  22135497.315    -9880341.256 5  -7624638.861 5
  21593607.080   -10029747.392 5  -7441659.168 2
  20795216.041   -20420887.134 6 -15708603.664 6
 94  1 29  2 21 29.9940000  0  7 27 19  2  7 15 13 26
  19673977.463    -3539885.591 6  -2717140.289 7
  22014100.283     5196634.315 5   4053050.969 2
  19297293.252   -11488057.300 7  -8894982.687 9
  18772277.471   -24722398.758 7 -19047824.189 9
  22129414.752    -9912310.152 5  -7649549.674 5
  21564828.408   -10180984.812 6  -7559506.467 3
  20784892.752   -20475146.412 6 -15750883.614 6
 94  1 29  2 21 59.9940000  0  7 27 19  2  7 15 13 26
  19679554.439    -3510583.773 6  -2694307.712 7
  22023839.705     5247847.496 5   4092957.333 2
  19291614.236   -11517910.258 7  -8918244.726 9
  18760807.440   -24782645.053 7 -19094769.358 9
  22123436.260    -9943735.977 5  -7674037.329 5
  21536092.346   -10331994.284 6  -7677176.144 5
  20774667.346   -20528864.818 6 -15792742.102 6
 94  1 29  2 22 29.9940000  0  7 27 19  2  7 15 13 26
  19685207.346    -3480871.407 6  -2671155.228 7
  22033630.330     5299299.782 5   4133050.006 4
  19285966.346   -11547577.854 7  -8941362.325 9
  18749445.361   -24842363.162 7 -19141302.925 9
  22117561.760    -9974600.083 5  -7698087.269 4
  21507401.072   -10482754.433 5  -7794651.536 2
  20764556.619   -20582025.911 6 -15834166.318 6
 94  1 29  2 22 59.9940000  0  7 27 19  2  7 15 13 26
  19690936.697    -3450766.550 6  -2647696.918 7
  22043465.768     5350968.352 5   4173311.204 3
  19280354.885   -11577079.824 7  -8964350.871 9
  18738178.947   -24901564.331 7 -19187433.694 9
  22111790.619   -10004916.393 5  -7721710.349 5
  21478761.205   -10633276.439 6  -7911941.363 3
  20754541.815   -20634641.939 6 -15875165.808 6
 94  1 29  2 23 29.9940000  0  7 27 19  2  7 15 13 26
  19696734.010    -3420289.904 6  -2623948.892 7
  22053336.838     5402849.034 5   4213737.694 3
  19274773.440   -11606420.828 7  -8987213.985 9
  18727009.588   -24960263.685 7 -19233173.443 9
  22106124.932   -10034688.112 5  -7744909.072 5
  21450161.190   -10783561.061 6  -8029046.209 3
  20744629.721   -20686717.687 6 -15915744.309 6
 94  1 29  2 23 59.9940000  0  7 27 19  2  7 15 13 26
  19702608.361    -3389440.782 6  -2599910.631 7
  22063248.877     5454935.817 5   4254324.784 4
  19269215.252   -11635610.803 7
  18715935.182   -25018451.464 7 -19278514.558 9
  22100564.182   -10063907.100 5
  21421609.721   -10933597.118 6  -8145957.366 3
  20734826.385   -20738258.634 6 -15955906.090 6
 94  1 29  2 24 29.9940000  0  7 27 19  2  7 15 13 26
  19708549.018    -3358212.622 6  -2575577.013 7
  22073196.111     5507217.785 5   4295063.967 4
  19263688.736   -11664654.601 7  -9032590.937 9
  18704962.150   -25076129.508 7 -19323458.476 9
  22095110.072   -10092568.127 5  -7790009.373 5
  21393109.611   -11083376.621 6  -8262668.614 4
  20725118.354   -20789254.216 6 -15995642.896 6
 94  1 29  2 24 59.9940000  0  7 27 19  2  7 15 13 26
  19714563.666    -3326604.815 6  -2550947.570 7
  22083181.713     5559687.214 5   4335949.213 3
  19258189.635   -11693549.340 7  -9055106.314 9
  18694082.018   -25133301.987 7 -19368008.452 9
  22089769.252   -10120671.745 5  -7811908.267 4
  21364655.666   -11232897.690 6  -8379178.502 3
  20715513.932   -20839719.095 6 -16034966.172 6
 94  1 29  2 25 29.9940000  0  7 27 19  2  7 15 13 26
  19720655.033    -3294600.649 6  -2526009.280 7
  22093203.236     5612338.839 5   4376976.452 4
  19252724.650   -11722272.719 7  -9077488.161 9
  18683297.400   -25189962.422 7 -19412159.425 8
  22084523.088   -10148214.026 5  -7833369.785 4
  21336253.338   -11382153.823 6  -8495481.927 4
  20706015.580   -20889657.651 6 -16073879.327 7
 94  1 29  2 25 59.9940000  0  7 27 19  2  7 15 13 26
  19726820.533    -3262193.520 6  -2500756.944 7
  22103256.955     5665165.177 5   4418139.858 3
  19247292.065   -11750822.998 7  -9099735.082 9
  18672613.416   -25246120.202 7 -19455918.684 9
  22079388.174   -10175204.047 5  -7854400.908 4
  21307901.033   -11531151.463 6  -8611583.890 3
  20696607.322   -20939084.154 6 -16112393.447 6
 94  1 29  2 26 29.9940000  0  7 27 19  2  7 15 13 26
  19733067.322    -3229377.379 6  -2475185.990 7
  22113338.572     5718170.999 5   4459443.038 2
  19241893.916   -11779176.716 7  -9121828.931 9
  18662020.557   -25301790.960 7 -19499298.530 9
  22074357.666   -10201643.675 5  -7875003.260 3
  21279594.971   -11679889.368 6  -8727483.567 2
  20687303.111   -20987990.845 6 -16150502.598 6
 94  1 29  2 26 59.9940000  0  7 27 19  2  7 15 13 26
  19739387.815    -3196158.704 6  -2449301.311 7
  22123464.041     5771370.868 5   4500897.488 3
  19236541.088   -11807326.677 7  -9143763.956 9
  18651517.947   -25356965.447 7 -19542291.617 8
  22069426.674   -10227529.631 5  -7895174.113 4
  21251339.346   -11828361.343 6  -8843175.953 4
  20678095.900   -21036380.331 6 -16188208.677 6
 94  1 29  2 27 29.9940000  0  7 27 19  2  7 15 13 26
  19745783.869    -3162546.969 6  -2423110.359 7
  22133625.846     5824764.021 5   4542502.528 3
  19231218.885   -11835278.061 7  -9165544.250 9
  18641119.104   -25411635.320 7 -19584891.509 8
  22064607.033   -10252861.212 5  -7914912.993 4
  21223138.127   -11976563.938 6  -8958658.459 4
  20668984.377   -21084238.161 6 -16225500.489 6
 94  1 29  2 27 59.9940000  0  7 27 19  2  7 15 13 26
  19752250.174    -3128562.388 6  -2396628.893 7
  22143819.369     5878351.055 5   4584258.640 4
  19225932.893   -11863056.323 7  -9187189.644 9
  18630809.330   -25465803.163 7 -19627100.212 9
  22059894.088   -10277644.210 5  -7934224.407 5
  21194986.979   -12124500.431 6  -9073933.605 5
  20659982.565   -21131560.750 6 -16262375.236 6
 94  1 29  2 28 29.9940000  0  7 27 19  2  7 15 13 26
  19758786.650    -3094212.172 6  -2369862.514 7
  22154053.619     5932129.543 4   4626163.937 3
  19220675.393   -11890686.958 7  -9208719.994 9
  18620598.900   -25519467.134 7 -19668916.279 8
  22055281.025   -10301879.236 5  -7953108.832 5
  21166887.549   -12272168.247 6  -9188999.390 5
  20651079.690   -21178332.456 6 -16298820.713 6
 94  1 29  2 28 59.9940000  0  7 27 19  2  7 15 13 26
  19765394.088    -3059488.050 6  -2342804.780 7
  22164329.713     5986110.637 5   4668227.087 3
  19215446.455   -11918178.545 7  -9230142.007 9
  18610480.947   -25572610.668 7 -19710326.816 9
  22050779.572   -10325554.115 5  -7971556.785 4
  21138841.127   -12419552.396 6  -9303844.152 4
  20642286.354   -21224548.053 6 -16334832.876 6
 94  1 29  2 29 29.9940000  0  7 27 19  2  7 15 13 26
  19772075.924    -3024376.524 6  -2315445.163 7
  22174639.666     6040290.437 5   4710445.104 4
  19210238.143   -11945531.603 7  -9251456.081 9
  18600470.533   -25625246.761 7 -19751341.939 9
  22046374.361   -10348668.915 5  -7989568.318 4
  21110848.104   -12566649.862 6  -9418465.508 3
  20633597.596   -21270194.676 6 -16370401.670 6
 94  1 29  2 29 59.9940000  0  7 27 19  2  7 15 13 26
  19778834.002    -2988870.248 6  -2287777.946 7
  22184983.236     6094664.511 4   4752814.504 3
  19205059.354   -11972753.689 7  -9272668.086 9
  18590544.244   -25677396.875 7 -19791978.381 8
  22042082.088   -10371233.833 5  -8007151.352 4
  21082912.268   -12713468.239 6  -9532869.395 4
  20625023.314   -21315281.355 6 -16405534.148 6
 94  1 29  2 30 29.9940000  0  7 27 19  2  7 15 13 26
  19785667.947    -2952960.925 6  -2259796.673 7
  22195369.479     6149243.501 4   4795343.589 3
  19199906.104   -11999829.244 7  -9293765.919 9
  18580713.502   -25729057.873 7 -19832233.691 8
  22037897.127   -10393244.939 5  -8024302.851 5
  21055027.213   -12860000.256 6  -9647050.162 5
  20616544.385   -21359817.341 6 -16440237.504 6
 94  1 29  2 30 59.9940000  0  7 27 19  2  7 15 13 26
  19792577.033    -2916647.812 6  -2231500.755 7
  22205796.690     6204034.707 4   4838038.025 4
  19194787.494   -12026728.961 7  -9314726.721 9
  18570979.674   -25780219.356 7 -19872099.768 8
  22033812.065   -10414693.106 5  -8041015.703 5
  21027199.783   -13006234.199 6  -9760998.659 3
  20608169.104   -21403821.313 6 -16474526.308 6
 94  1 29  2 31 29.9940000  0  7 27 19  2  7 15 13 26
  19799559.354    -2879947.843 6  -2202903.398 7
  22216261.494     6259028.077 4   4880890.004 2
  19189702.111   -12053463.048 7  -9335558.470 9
  18561332.463   -25830892.378 7 -19911585.226 8
  22029834.471   -10435589.438 5  -8057298.543 5
  20999430.822   -13152178.412 6  -9874721.384 5
  20599901.705   -21447299.035 6 -16508405.065 7
 94  1 29  2 31 59.9940000  0  7 27 19  2  7 15 13 26
  19806614.096    -2842880.629 6  -2174019.878 7
  22226765.065     6314225.167 4   4923900.680 2
  19184644.221   -12080033.825 7  -9356262.969 9
  18551785.908   -25881070.887 7 -19950685.366 9
  22025966.643   -10455934.399 5  -8073151.751 5
  20971707.994   -13297830.157 6  -9988216.220 4
  20591722.025   -21490267.000 6 -16541886.596 6
 94  1 29  2 32 29.9930000  0  7 27 19  2  7 15 13 26
  19813735.763    -2805454.400 6  -2144856.596 7
  22237308.958     6369620.388 4   4967065.787 2
  19179618.060   -12106439.177 7  -9376838.549 9
  18542336.560   -25930741.496 7 -19989389.711 8
  22022198.528   -10475716.250 5  -8088566.165 5
  20944055.669   -13443170.464 6 -10101468.379 5
  20583641.427   -21532724.376 6 -16574970.246 6
 94  1 29  2 32 59.9930000  0  7 27 19  2  7 15 13 26
  19820925.302    -2767673.028 6  -2115416.556 7
  22247882.771     6425192.423 4   5010368.674 4
  19174623.935   -12132698.203 7  -9397300.092 9
  18532974.786   -25979929.447 7 -20027717.952 9
  22018542.552   -10494946.371 5  -8103550.636 5
  20916452.583   -13588216.022 6 -10214490.834 5
  20575659.442   -21574667.007 6 -16607652.783 6
 94  1 29  2 33 29.9930000  0  7 27 19  2  7 15 13 26
  19828184.833    -2729522.881 6  -2085689.224 7
  22258489.231     6480942.624 3   5053810.337 3
  19169655.989   -12158808.781 7  -9417646.021 9
  18523704.575   -26028623.127 7 -20065661.106 8
  22014991.044   -10513614.672 5  -8118097.401 5
  20888909.146   -13732949.501 6 -10327270.176 5
  20567784.935   -21616063.555 6 -16639909.866 7
 94  1 29  2 33 59.9930000  0  7 27 19  2  7 15 13 26
  19835514.130    -2691011.889 6  -2055680.666 7
  22269128.575     6536850.549 3   5097374.949 4
  19164714.271   -12184755.171 7  -9437863.978 9
  18514536.271   -26076827.650 7 -20103223.051 8
  22011543.310   -10531728.842 5  -8132212.309 5
  20861425.646   -13877375.469 6 -10439809.862 5
  20560006.622   -21656930.357 6 -16671754.113 7
 94  1 29  2 34 29.9930000  0  7 27 19  2  7 15 13 26
  19842914.646    -2652125.750 6  -2025379.799 7
  22279798.442     6592917.748 3   5141063.664 2
  19159812.552   -12210525.920 7  -9457945.074 9
  18505458.224   -26124533.760 7 -20140396.633 8
  22008200.692   -10549283.494 5  -8145891.262 4
  20834004.067   -14021485.693 6 -10552103.528 5
  20552329.357   -21697258.510 6 -16703178.645 6
 94  1 29  2 34 59.9930000  0  7 27 19  2  7 15 13 26
  19850384.364    -2612865.457 6  -1994787.378 7
  22290502.591     6649166.181 4   5184893.582 3
  19154944.669   -12236108.371 7  -9477879.453 9
  18496473.177   -26171741.841 7 -20177182.141 8
  22004969.771   -10566276.559 5  -8159132.608 5
  20806642.544   -14165274.744 6 -10664146.914 5
  20544762.122   -21737039.198 6 -16734176.589 6
 94  1 29  2 35 29.9930000  0  7 27 19  2  7 15 13 26
  19857923.161    -2573248.934 6  -1963917.373 7
  22301244.396     6705597.434 3   5228865.978 2
  19150109.138   -12261513.070 7  -9497675.315 9
  18487585.739   -26218449.727 7 -20213577.888 8
  22001841.106   -10582716.861 5  -8171943.222 5
  20779338.794   -14308748.722 6 -10775944.798 5
  20537293.005   -21776297.454 6 -16764767.429 6
 94  1 29  2 35 59.9930000  0  7 27 19  2  7 15 13 26
  19865532.427    -2533267.476 6  -1932763.006 7
  22312018.052     6762232.946 3   5272997.537 1
  19145312.231   -12286737.231 7  -9517330.503 9
  18478791.278   -26264653.962 7 -20249581.177 9
  21998818.685   -10598599.308 5  -8184319.141 5
  20752098.591   -14451899.290 6 -10887490.672 5
  20529920.481   -21815035.710 6 -16794953.082 6
 94  1 29  2 36 29.9930000  0  7 27 19  2  7 15 13 26
  19873210.927    -2492912.401 6  -1901317.509 6
  22322840.052     6819092.359 3   5317303.573 2
  19140537.255   -12311809.250 7  -9536867.134 9
  18470096.122   -26310358.829 7 -20285195.349 9
  21995903.021   -10613921.785 5  -8196258.722 5
  20724920.630   -14594721.130 6 -10998780.387 5
  20522651.372   -21853237.741 6 -16824720.893 6
 94  1 29  2 36 59.9930000  0  7 27 19  2  7 15 13 26
  19880962.513    -2452184.223 6  -1869581.281 6
  22333696.052     6876163.366 3   5361774.463 2
  19135795.942   -12336732.734 7  -9556288.033 9
  18461490.310   -26355575.091 7 -20320428.794 9
  21993094.778   -10628688.794 5  -8207765.487 5
  20697803.341   -14737215.826 6 -11109815.200 5
  20515481.896   -21890902.112 6 -16854069.744 6
 94  1 29  2 37 29.9930000  0  8 27 19  2  7 15 13  4 26
  19888783.771    -2411069.993 6  -1837544.239 6
  22344592.317     6933419.691 3   5406389.758 2
  19131084.122   -12361495.188 7  -9575583.452 9
  18452980.489   -26400300.568 7 -20355279.811 9
  21990388.911   -10642900.510 5  -8218839.547 5
  20670752.364   -14879380.047 6 -11220592.504 5
  22716397.513          -0.79713
  20508417.833   -21928023.350 6 -16882995.387 6
 94  1 29  2 37 59.9930000  0  8 27 19  2  7 15 13  4 26
  19896681.263    -2369572.051 6  -1805208.197 6
  22355517.919     6990831.599 3   5451126.302 2
  19126402.231   -12386089.497 7  -9594747.843 9
  18444562.427   -26444550.139 7 -20389759.979 8
  21987785.575   -10656568.266 5  -8229489.743 5
  20643758.317   -15021222.050 6 -11331118.713 5
  22689874.606     -139389.832 3        -0.24012
  20501460.513   -21964599.067 6 -16911495.941 6
 94  1 29  2 38 29.9930000  0  8 27 19  2  7 15 13  4 26
  19904650.052    -2327690.097 6  -1772572.926 6
  22366473.106     7048389.845 3   5495976.861 3
  19121763.903   -12410489.226 7  -9613760.616 9
  18436230.411   -26488309.609 7 -20423858.262 9
  21985290.763   -10669679.989 5  -8239706.671 5
  20616833.372   -15162726.355 6 -11441381.794 5
  22663341.208     -278850.598 3   -108670.934 2
  20494604.349   -22000611.524 6 -16939557.596 6
 94  1 29  2 38 59.9930000  0  8 27 19  2  7 15 13  4 26
  19912694.255    -2285420.665 6  -1739635.719 6
  22377448.013     7106075.908 3   5540927.026 3
  19117157.997   -12434669.057 7  -9632602.039 9
  18428002.372   -26531566.060 7 -20457564.575 9
  21982902.372   -10682226.185 5  -8249482.923 4
  20589971.583   -15303880.065 6 -11551371.680 5
  22636786.716     -418365.141 3   -217383.533 1
  20487863.997   -22036058.141 6 -16967178.324 6
 94  1 29  2 39 29.9930000  0  8 27 19  2  7 15 13  4 26
  19920809.317    -2242785.978 6  -1706413.900 6
  22388445.481     7163882.883 3   5585971.398 3
  19112592.521   -12458657.041 7  -9651293.977 9
  18419864.966   -26574323.830 7 -20490882.312 9
  21980620.950   -10694220.815 5  -8258829.383 4
  20563179.106   -15444694.453 6 -11661097.152 5
  22610221.396     -557949.888 3   -326150.844 2
  20481223.325   -22070952.564 6 -16994368.781 6
 94  1 29  2 39 59.9930000  0  8 27 19  2  7 15 13  4 26
  19928988.481    -2199792.302 6  -1672912.354 6
  22399479.153     7221836.959 3   5631130.435 2
  19108062.716   -12482469.425 7  -9669849.077 9
  18411823.724   -26616583.020 7 -20523811.549 8
  21978442.325   -10705656.725 5  -8267740.479 4
  20536447.833   -15585159.194 6 -11770550.184 5
  22583648.435     -697587.655 3   -434959.380 2
  20474688.708   -22105294.151 6 -17021128.463 7
 94  1 29  2 40 29.9930000  0  8 27 19  2  7 15 13  4 26
  19937236.528    -2156456.110 6  -1639143.901 6
  22410536.466     7279954.970 3   5676417.167 2
  19103561.013   -12506128.630 7  -9688284.812 9
  18403876.474   -26658348.151 7 -20556355.789 9
  21976374.497   -10716534.724 5  -8276216.837 5
  20509783.341   -15725271.518 6 -11879728.595 5
  22557073.044     -837264.955 3   -543798.756 2
  20468254.442   -22139086.531 6 -17047460.187 7
 94  1 29  2 40 59.9930000  0  8 27 19  2  7 15 13  4 26
  19945546.528    -2112783.608 6  -1605113.391 6
  22421627.521     7338235.415 3   5721830.503 2
  19099084.505   -12529659.399 7  -9706620.470 9
  18396017.630   -26699635.925 7 -20588528.072 9
  21974408.208   -10726866.843 5  -8284267.841 4
  20483186.935   -15865040.267 6
  22530477.606     -977006.779 3
  20461925.208   -22172348.095 6 -17073378.286 6
 94  1 29  2 41 29.9930000  0  8 27 19  2  7 15 13  4 26
  19953922.474    -2068772.584 6  -1570819.106 6
  22432753.317     7396708.447 3   5767393.900 1
  19094632.333   -12553062.811 7  -9724856.894 9
  18388251.755   -26740444.692 7 -20620327.110 9
  21972544.481   -10736648.264 5  -8291889.715 4
  20456654.716   -16004457.504 6 -12097276.086 5
  22503873.067    -1116812.647 3   -761628.037 2
  20455698.161   -22205073.209 6 -17098878.375 6
 94  1 29  2 41 59.9930000  0  8 27 19  2  7 15 13  4 26
  19962361.544    -2024428.744 6  -1536265.479 6
  22443916.364     7455368.950 3   5813103.372 1
  19090203.935   -12576331.372 7  -9742988.227 9
  18380574.583   -26780789.827 7 -20651764.855 9
  21970788.700   -10745885.497 5  -8299087.527 4
  20430191.927   -16143526.225 6 -12205641.305 5
  22477262.302    -1256680.199 3   -870615.645 2
  20449570.122   -22237278.876 6 -17123973.695 6
 94  1 29  2 42 29.9930000  0  8 27 19  2  7 15 13  4 26
  19970864.099    -1979741.469 6  -1501444.209 6
  22455117.317     7514209.734 3   5858953.319 2
  19085804.653   -12599447.967 7  -9761001.120 9
  18372987.208   -26820658.146 7 -20682831.033 9
  21969133.786   -10754576.755 5  -8305859.913 5
  20403796.521   -16282241.189 6 -12313730.831 5
  22450628.177    -1396616.495 3   -979656.817 2
  20443542.106   -22268964.593 6 -17148663.831 7
 94  1 29  2 42 59.9930000  0  8 27 19  2  7 15 13  4 26
  19979438.130    -1934688.903 6  -1466338.366 6
  22466344.638     7573222.099 3   5904936.984 1
  19081437.192   -12622398.642 7  -9778884.799 9
  18365491.911   -26860048.859 7 -20713525.120 9
  21967583.872   -10762717.696 5  -8312203.523 5
  20377467.685   -16420594.814 6 -12421538.863 5
  22423985.310    -1536617.627 3  -1088748.582 2
  20437604.888   -22300134.264 6 -17172951.929 7
 94  1 29  2 43 29.9930000  0  8 27 19  2  7 15 13  4 26
  19988081.310    -1889265.792 6  -1430943.713 6
  22477606.099     7632397.772 3   5951047.909 1
  19077102.505   -12645172.049 7  -9796630.276 9
  18358087.849   -26898963.052 7 -20743847.823 9
  21966140.677   -10770310.354 5  -8318119.838 5
  20351209.997   -16558585.917 6 -12529064.347 5
  22397331.794    -1676677.933 3  -1197886.401 2
  20431774.474   -22330793.047 6 -17196841.857 7
 94  1 29  2 43 59.9930000  0  8 27 19  2  7 15 13  4 26
  19996793.661    -1843479.912 6  -1395266.426 6
  22488892.380     7691708.752 3   5997264.234 1
  19072801.981   -12667767.331 7  -9814236.995 9
  18350773.677   -26937404.803 7 -20773802.432 9
  21964799.005   -10777366.918 5  -8323618.454 4
  20325018.849   -16696223.408 6 -12636314.329 5
  22370675.614    -1816804.775 3  -1307076.102 1
  20426032.630   -22360956.710 6 -17220346.017 6
 94  1 29  2 44 29.9930000  0  8 27 19  2  7 15 13  4 26
  20005582.513    -1797293.867 6  -1359277.312 6
  22500208.606     7751176.716 3   6043602.918 1
  19068540.763   -12690159.473 7  -9831685.412 9
  18343554.169   -26975339.373 7 -20803361.820 9
  21963561.325   -10783848.407 5  -8328668.959 5
  20298901.817   -16833464.730 6 -12743255.615 5
  22343995.302    -1956959.762 3  -1416287.729 1
  20420396.810   -22390580.284 6 -17243429.320 7
 94  1 29  2 44 59.9930000  0  8 27 19  2  7 15 13  4 26
  20014441.388    -1750743.778 6  -1323004.535 6
  22511551.606     7810769.201 3   6090038.580 2
  19064310.364   -12712385.759 7  -9849004.592 9
  18336425.310   -27012801.840 7 -20832553.345 9
  21962434.544   -10789790.691 5  -8333299.281 5
  20272854.638   -16970342.093 6 -12849913.289 5
  22317319.122    -2097162.466 3  -1525536.548 2
  20414856.044   -22419702.949 6 -17266122.307 7
 94  1 29  2 45 29.9930000  0  8 27 19  2  7 15 13  4 26
  20023368.153    -1703836.654 6  -1286453.548 6
  22522914.130     7870495.345 3   6136578.433 1
  19060115.200   -12734435.429 7  -9866186.149 9
  18329390.489   -27049774.075 7 -20861362.872 9
  21961408.013   -10795186.883 5  -8337504.103 4
  20246878.942   -17106845.491 6 -12956279.550 5
  22290633.356    -2237402.045 3  -1634814.103 2
  20409411.224   -22448319.041 6 -17288420.573 7
 94  1 29  2 45 59.9930000  0  8 27 19  2  7 15 13  4 26
  20032357.161    -1656589.267 6  -1249637.420 6
  22534303.278     7930354.121 3   6183221.601 2
  19055949.927   -12756320.409 7  -9883239.377 9
  18322445.536   -27086258.780 7 -20889792.504 8
  21960487.786   -10800039.106 5  -8341285.046 4
  20220975.544   -17242973.811 6 -13062353.550 5
  22263940.942    -2377676.915 4  -1744119.194 2
  20404066.739   -22476419.964 6 -17310317.404 7
 94  1 29  2 46 29.9930000  0  8 27 19  2  7 15 13  4 26
  20041411.513    -1609012.068 6  -1212564.309 6
  22545725.052     7990355.064 3   6229975.563 2
  19051819.646   -12778042.224 7  -9900165.490 9
  18315592.442   -27122265.093 7 -20917849.383 8
  21959661.333   -10804349.819 5  -8344644.056 5
  20195141.661   -17378725.905 6 -13168134.412 5
  22237237.685    -2517986.343 3  -1853451.225 2
  20398811.278   -22504006.560 6 -17331813.484 6
 94  1 29  2 46 59.9930000  0  8 27 19  2  7 15 13  4 26
  20050525.411    -1561107.324 6  -1175235.927 6
  22557176.435     8050517.206 3   6276855.191 1
  19047723.036   -12799572.513 7  -9916942.302 9
  18308831.974   -27157786.120 7 -20945528.060 8
  21958947.317   -10808118.201 5  -8347580.421 5
  20169382.575   -17514097.610 6 -13273618.811 5
  22210534.528    -2658324.578 3  -1962805.632 1
  20393661.317   -22531076.667 6 -17352907.038 6
 94  1 29  2 47 29.9930000  0  8 27 19  2  7 15 13  4 26
  20059703.677    -1512888.643 6  -1137662.978 6
  22568653.458     8110840.686 3   6323860.456 1
  19043662.419   -12820913.428 7  -9933571.615 9
  18302165.599   -27192827.076 7 -20972832.729 9
  21958337.521   -10811342.918 5  -8350093.211 5
  20143694.536   -17649083.977 6 -13378803.012 5
  22183823.606    -2798694.776 3  -2072185.016 3
  20388609.185   -22557623.201 6 -17373592.687 7
 94  1 29  2 47 59.9930000  0  8 27  9  2  7 15 13  4 26
  20068936.028    -1464362.213 6  -1099850.192 6
  22537479.411          -0.59813
  19039631.739   -12842073.486 7  -9950059.965 9
  18295587.942   -27227397.765 7 -20999770.911 8
  21957819.966   -10814023.744 5  -8352182.150 5
  20118081.271   -17783681.492 6 -13483684.175 5
  22157103.388    -2939091.158 3  -2181584.777 3
  20383664.653   -22583638.598 6 -17393864.439 7
 94  1 29  2 48 29.9930000  0  8 27  9  2  7 15 13  4 26
  20078229.630    -1415535.822 6  -1061803.681 6
  22510988.403     -139225.549 3
  19035638.989   -12863058.965 7  -9966412.297 9
  18289097.528   -27261511.837 7 -21026353.313 8
  21957413.677   -10816169.920 5  -8353854.503 5
  20092540.536   -17917896.177 6 -13588267.041 5
  22130387.669    -3079506.019 4  -2290998.932 3
  20378808.067   -22609136.745 6 -17413733.147 6
 94  1 29  2 48 59.9930000  0  8 27  9  2  7 15 13  4 26
  20087582.310    -1366385.112 6  -1023504.430 6
  22484501.349     -278437.053 3        -0.40612
  19031678.208   -12883873.156 7  -9982631.137 9
  18282694.325   -27295163.342 7 -21052575.243 8
  21957109.396   -10817772.587 5  -8355103.311 5
  20067077.231   -18051715.359 6 -13692541.703 6
  22103662.880    -3219923.065 3  -2400414.780 2
  20374054.950   -22634108.367 6 -17433191.537 6
 94  1 29  2 49 29.9930000  0  8 27  9  2  7 15 13  4 26
  20096998.317    -1316910.739 6   -984952.973 6
  22458010.856     -417643.677 3   -108473.056 3
  19027742.810   -12904547.001 7  -9998740.617 9
  18276374.481   -27328365.411 7 -21078446.973 8
  21956904.942   -10818840.411 5  -8355935.368 4
  20041686.700   -18185144.138 6 -13796512.159 5
  22076948.372    -3360348.384 3  -2509837.070 3
  20369405.981   -22658561.353 6 -17452245.801 6
 94  1 29  2 49 59.9930000  0  8 27  9  2  7 15 13  4 26
  20106473.185    -1267108.488 6   -946146.039 6
  22431517.216     -556841.980 3   -216939.230 3
  19023835.552   -12925085.573 7 -10014744.702 9
  18270142.200   -27361124.689 7 -21103973.681 9
  21956804.403   -10819383.098 5
  20016367.356   -18318189.067 6 -13900183.519 6
  22050220.513    -3500783.842 3  -2619267.291 1
  20364843.974   -22682506.443 6 -17470904.319 6
 94  1 29  2 50 29.9930000  0  8 27  9  2  7 15 13  4 26
  20116020.833    -1216941.011 6   -907054.493 6
  22405043.653     -695989.567 3   -325365.873 2
  19019959.489   -12945455.360 7 -10030617.233 9
  18263999.435   -27393408.545 7 -21129129.899 9
  21956805.356   -10819382.891 5
  19991127.927   -18450828.615 6 -14003538.967 6
  22023500.341    -3641216.865 4  -2728695.554 4
  20360387.458   -22705928.489 6 -17489155.251 6
 94  1 29  2 50 59.9930000  0  8 27  9  2  7 15 13  4 26
  20125635.138    -1166410.948 6   -867680.466 6
  22378571.138     -835073.790 3   -433743.207 2
  19016115.763   -12965659.927 7 -10046361.088 9
  18257944.497   -27425208.407 7 -21153909.038 8
  21956905.942   -10818846.386 5
  19965964.278   -18583066.075 6 -14106581.171 6
  21996770.153    -3781669.955 4  -2838139.534 3
  20356033.466   -22728835.551 6 -17507004.946 6
 94  1 29  2 51 29.9930000  0  8 27  9  2  7 15 13  4 26
  20135318.677    -1115523.850 6   -828028.188 6
  22352122.958     -974073.018 3   -542054.220 2
  19012307.153   -12985681.401 7 -10061962.236 9
  18251990.724   -27456498.479 7 -21178290.904 8
  21957112.130   -10817763.473 5  -8355096.153 4
  19940878.575   -18714887.527 6 -14209299.170 5
  21970042.271    -3922141.157 4  -2947597.605 2
  20351769.474   -22751217.949 6 -17524445.779 6
 94  1 29  2 51 59.9930000  0  8 27  9  2  7 15 13  4 26
  20145069.833    -1064294.278 6   -788109.062 6
  22325682.458    -1112992.636 3   -650303.234 2
  19008530.677   -13005517.118 7 -10077418.649 9
  18246135.544   -27487278.919 7 -21202275.658 8
  21957417.911   -10816144.996 5  -8353834.993 5
  19915871.474   -18846300.334 6 -14311698.749 6
  21943301.700    -4062634.440 4  -3057072.875 3
  20347608.747   -22773081.233 6 -17541482.121 6
 94  1 29  2 52 29.9920000  0  8 27  9  2  7 15 13  4 26
  20154880.461    -1012727.525 6   -747927.187 6
  22299265.172    -1251838.597 4   -758494.836 4
  19004792.563   -13025163.200 7 -10092727.286 9
  18240373.438   -27517555.793 7 -21225868.025 8
  21957827.328   -10813991.016 5  -8352156.548 5
  19890944.672   -18977296.488 6 -14413773.658 6
  21916569.539    -4203142.699 5  -3166559.800 3
  20343549.524   -22794426.458 6 -17558114.755 6
 94  1 29  2 52 59.9920000  0  8 27  9  2  7 15 13  4 26
  20164754.250     -960836.580 6   -707492.699 5
  22272851.445    -1390652.164 4   -866661.197 3
  19001089.602   -13044631.398 7 -10107897.308 9
  18234699.703   -27547355.497 7 -21249088.570 9
  21958342.227   -10811305.457 5  -8350063.900 5
  19866094.219   -19107885.768 6 -14515531.525 6
  21889826.180    -4343666.624 4  -3276058.927 3
  20339583.688   -22815263.197 6 -17574351.178 6
 94  1 29  2 53 29.9920000  0  8 27  9  2  7 15 13  4 26
  20174692.766     -908621.618 6   -666805.726 6
  22246436.859    -1529447.975 4   -974813.738 2
  18997414.945   -13063926.664 7 -10122932.580 9
  18229120.016   -27576701.530 7 -21271955.607 9
  21958951.539   -10808091.335 5  -8347559.374 5
  19841321.359   -19238062.777 6 -14616968.143 6
  21863084.555    -4484181.569 4  -3385551.082 5
  20335713.289   -22835589.267 6 -17590189.677 6
 94  1 29  2 53 59.9920000  0  8 27  9  2  7 15 13  4 26
  20184690.945     -856082.182 6   -625865.924 6
  22220027.484    -1668221.322 4  -1082948.756 2
  18993778.313   -13083042.299 7 -10137827.880 9
  18223613.461   -27605616.743 7 -21294486.937 9
  21959660.656   -10804347.774 5  -8344642.303 5
  19816628.891   -19367822.888 6 -14718079.907 6
  21836347.297    -4624672.836 4  -3495024.749 2
  20331947.328   -22855408.926 6 -17605633.585 6
 94  1 29  2 54 29.9920000  0  8 27  9  2  7 15 13  4 26
  20194748.531     -803217.722 6   -584672.847 6
  22193625.922    -1806968.104 4  -1191063.088 2
  18990177.078   -13101978.737 7 -10152583.541 9
  18218190.133   -27634106.886 7 -21316687.044 9
  21960476.813   -10800071.620 5  -8341310.215 5
  19792017.078   -19497159.561 6 -14818861.711 6
  21809620.078    -4765136.637 4  -3604477.049 3
  20328266.281   -22874742.757 6 -17620698.908 6
 94  1 29  2 54 59.9920000  0  8 27  9  2  7 15 13  4 26
  20204869.172     -750038.217 6   -543234.287 6
  22167227.719    -1945674.224 4  -1299145.734 3
  18986606.828   -13120739.130 7
  18212853.383   -27662155.741 7 -21338543.293 9
  21961394.227   -10795264.686 5  -8337564.537 4
  19767487.664   -19626071.269 7 -14919312.377 6
  21782902.484    -4905565.770 4  -3713902.329 2
  20324679.250   -22893589.920 6
 94  1 29  2 55 29.9920000  0  8 27  9  2  7 15 13  4 26
  20215046.438     -696555.890 6   -501559.761 6
  22140848.109    -2084318.664 4  -1407180.306 3
  18983068.836   -13139329.194 7 -10181687.800 9
  18207603.063   -27689751.863 7 -21360046.760 9
  21962404.219   -10789929.656 5  -8333407.344 4
  19743036.000   -19754556.927 7 -15019431.055 6
  21756180.094    -5045965.024 4  -3823304.321 4
  20321187.125   -22911955.467 6 -17649695.832 6
 94  1 29  2 55 59.9920000  0  8 27  9  2  7 15 13  4 26
  20225275.727     -642801.303 6   -459673.074 6
  22114475.500    -2222907.235 4  -1515171.364 3
  18979558.156   -13157757.689 7 -10196047.661 9
  18202443.859   -27716883.441 7 -21381188.242 8
  21963521.594   -10784076.354 5  -8328846.305 4
  19718666.766   -19882622.976 7 -15119222.772 6
  21729465.656    -5186349.396 4  -3932694.725 2
  20317778.422   -22929862.613 6 -17663649.472 6
 94  1 29  2 56 29.9920000  0  8 27  9  2  7 15 13  4 26
  20235557.531     -588781.722 6   -417579.906 5
  22088111.242    -2361439.796 4  -1623118.758 4
  18976084.352   -13176034.642 7 -10210289.443 9
  18197367.688   -27743529.846 7 -21401951.669 9
  21964738.344   -10777703.504 5  -8323880.431 4
  19694375.602   -20010264.310 6 -15218683.537 6
  21702759.250    -5326706.696 5  -4042064.032 4
  20314459.242   -22947294.077 6 -17677232.430 6
 94  1 29  2 56 59.9920000  0  8 27  9  2  7 15 13  4 26
  20245884.070     -534499.329 6   -375281.956 5
  22061767.648    -2499897.122 4  -1731007.532 2
  18972634.563   -13194164.894 7 -10224416.914 9
  18192390.523   -27769696.556 7 -21422341.312 9
  21966044.656   -10770808.675 5  -8318507.819 4
  19670169.000   -20137474.886 6 -15317808.644 6
  21676050.758    -5467032.476 5  -4151408.772 4
  20311238.953   -22964205.679 6 -17690410.301 6
 94  1 29  2 57 29.9920000  0  8 27  9  2  7 15 13  4 26
  20256267.953     -479943.035 6   -332770.579 6
  22035432.063    -2638281.140 4  -1838839.182 3
  18969210.500   -13212157.454 7 -10238437.092 9
  18187498.453   -27795409.973 7 -21442377.737 9
  21967458.672   -10763396.086 5  -8312731.753 4
  19646044.117   -20264255.417 6 -15416598.662 6
  21649353.883    -5607335.846 4  -4260736.061 3
  20308118.953   -22980599.551 6 -17703184.746 6
 94  1 29  2 57 59.9920000  0  8 27  9  2  7 15 13  4 26
  20266707.258     -425082.223 6   -290021.907 6
  22009111.813    -2776579.120 5  -1946603.810 3
  18965817.711   -13229982.757 7 -10252326.943 9
  18182689.742   -27820673.703 7 -21462063.755 9
  21968967.125   -10755457.480 5  -8306545.817 4
  19622003.820   -20390593.934 6 -15515044.240 6
  21622661.789    -5747606.797 4  -4370038.064 4
  20305107.391   -22996451.763 6 -17715537.122 6
 94  1 29  2 58 29.9920000  0  8 27  9  2  7 15 13  4 26
  20277208.899     -369884.594 6   -247010.791 6
  21982817.180    -2914780.189 5  -2054292.901 4
  18962458.328   -13247630.108 7 -10266078.125 9
  18177966.055   -27845507.478 7 -21481414.749 9
  21970573.078   -10746996.291 5  -8299952.673 4
  19598045.703   -20516489.945 6 -15613145.017 6
  21595973.945    -5887841.464 5  -4479311.807 4
  20302189.602   -23011743.657 6 -17727452.890 6
 94  1 29  2 58 59.9920000  0  8 27  9  2  7 15 13  4 26
  20287784.539     -314322.601 6   -203715.746 5
  21956537.547    -3052890.402 5  -2161911.204 3
  18959136.656   -13265084.105 7 -10279678.654 9
  18173321.617   -27869918.455 7 -21500436.283 9
  21972289.109   -10738015.433 5  -8292954.581 3
  19574172.672   -20641942.892 6 -15710900.548 6
  21569298.492    -6028048.719 5  -4588564.205 4
  20299385.570   -23026503.121 6 -17738953.787 6
 94  1 29  2 59 29.9920000  0  8 27  9  2  7 15 13  4 26
  20298422.164     -258402.246 6   -160141.455 6
  21930267.055    -3190935.680 5  -2269478.922 4
  18955852.461   -13282335.121 7 -10293121.002 9
  18168755.109   -27893909.790 7 -21519130.824 9
  21974093.063   -10728523.078 5  -8285557.916 4
  19550383.172   -20766957.532 7 -15808314.535 6
  21542626.539    -6168229.084 5  -4697795.628 4
  20296671.789   -23040778.217 6 -17750077.252 6
 94  1 29  2 59 59.9920000  0  8 27  9  2  7 15 13  4 26
  20309131.359     -202133.537 6   -116295.721 6
  21904007.500    -3328911.325 5  -2376992.358 4
  18952614.617   -13299367.673 7 -10306393.124 9
  18164270.352   -27917467.119 7 -21537487.177 9
  21975996.641   -10718515.149 5  -8277759.506 3
  19526677.813   -20891526.141 7 -15905380.959 6
  21515954.750    -6308362.492 5  -4806990.493 4
  20294043.617   -23054579.939 6 -17760831.839 6
 94  1 29  3  0 29.9920000  0  8 27  9  2  7 15 13  4 26
  20319902.109     -145538.943 6    -72196.058 5
  21877765.742    -3466830.380 5  -2484461.708 4
  18949411.211   -13316210.465 7 -10319517.370 9
  18159873.781   -27940569.813 7 -21555489.277 9
  21977996.734   -10707994.864 5  -8269561.870 2
  19503058.648   -21015648.381 6 -16002099.568 6
  21489300.680    -6448434.283 5  -4916137.317 4
  20291498.797   -23067932.449 6 -17771236.404 6
 94  1 29  3  0 59.9920000  0  8 27  9  2  7 15 13  4 26
  20330724.656      -88669.780 6    -27882.440 5
  21851525.094    -3604720.382 5  -2591908.420 4
  18946232.633   -13332893.683 7 -10332517.282 9
  18155563.492   -27963225.369 7 -21573142.953 9
  21980095.664   -10696977.709 5  -8260977.050 3
  19479521.133   -21139335.875 6 -16098479.425 6
  21462654.320    -6588464.617 5  -5025251.863 5
  20289043.477   -23080867.436 6 -17781315.627 6
 94  1 29  3  1 29.9920000  0  8 27  9  2  7 15 13  4 26
  20341596.477      -31531.953 6     16640.524 5
  21825296.633    -3742553.257 5  -2699310.617 3
  18943092.813   -13349395.579 7 -10345375.904 9
  18151344.805   -27985414.869 7 -21590433.469 9
  21982285.023   -10685446.864 5  -8251991.964 4
  19456070.164   -21262568.293 6 -16194504.667 6
  21436019.203    -6728432.255 5  -5134317.559 4
  20286663.016   -23093351.604 6 -17791043.566 6
 94  1 29  3  1 59.9920000  0  8 27  9  2  7 15 13  4 26
  20352516.063       25861.042 6     61362.335 5
  21799081.867    -3880332.512 5  -2806671.039 3
  18939984.414   -13365741.332 7 -10358112.849 9
  18147205.070   -28007145.077 7 -21607366.085 9
  21984579.313   -10673415.351 5  -8242616.734 4
  19432707.055   -21385354.749 6 -16290182.411 6
  21409396.695    -6868350.360 5  -5243344.620 4
  20284373.086   -23105379.457 6 -17800415.925 6
 94  1 29  3  2 29.9920000  0  8 27  9  2  7 15 13  4 26
  20363491.039       83519.664 6    106291.140 5
  21772869.117    -4018040.963 5  -2913976.270 2
  18936903.133   -13381926.394 7 -10370724.560 9
  18143160.570   -28028414.157 7 -21623939.356 9
  21986965.641   -10660871.874 5  -8232842.560 4
  19409429.844   -21507680.536 7 -16385501.162 6
  21382778.227    -7008215.186 5  -5352330.156 4
  20282178.961   -23116922.757 6 -17809410.680 6
 94  1 29  3  2 59.9920000  0  8 27  9  2  7 15 13  4 26
  20374511.164      141434.055 6    151419.223 5
  21746677.500    -4155675.595 5  -3021223.992 3
  18933853.961   -13397944.172 7 -10383205.945 9
  18139193.914   -28049267.980 7 -21640189.092 9
  21989445.633   -10647831.528 5  -8222681.236 3
  19386235.891   -21629556.975 6 -16480469.810 6
  21356168.953    -7148054.874 5  -5461296.149 5
  20280073.766   -23127982.824 6 -17818028.925 6
 94  1 29  3  3 29.9920000  0  8 27  9  2  7 15 13  4 26
  20385585.469      199622.497 6    196760.850 5
  21720512.195    -4293204.034 5  -3128388.976 3
  18930839.422   -13413778.905 7 -10395544.703 9
  18135305.016   -28069703.987 7 -21656113.253 9
  21992023.969   -10634285.467 5  -8212125.861 5
  19363131.078   -21750971.523 7 -16575078.534 6
  21329569.578    -7287842.457 5  -5570221.532 4
  20278062.500   -23138557.570 6 -17826269.007 6
 94  1 29  3  3 59.9920000  0  8 27  9  2  7 15 13  4 26
  20396708.680      258084.156 5    242315.370 5
  21694363.055    -4430623.165 5  -3235468.791 3
  18927860.906   -13429444.933 7 -10407752.002 9
  18131493.555   -28089722.128 7 -21671711.805 9
  21994701.656   -10620234.590 5  -8201177.103 4
  19340115.523   -21871921.523 7 -16669325.273 6
  21302980.289    -7427569.029 5  -5679099.366 5
  20276141.883   -23148645.261 6 -17834129.543 6
 94  1 29  3  4 29.9920000  0  8 27  9  2  7 15 13  4 26
  20407887.203      316828.125 5    288089.879 5
  21668229.469    -4567928.072 5  -3342459.589 3
  18924917.211   -13444923.193 7 -10419812.984 9
  18127761.617   -28109320.700 7 -21686983.413 9
  21997466.531   -10605680.165 5  -8189835.990 4
  19317188.266   -21992404.705 7 -16763208.262 6
  21276403.867    -7567225.561 5  -5787922.617 5
  20274313.774   -23158246.683 6 -17841611.178 6
 94  1 29  3  4 59.9920000  0  8 27  9  2  7 15 13  4 26
  20419120.063      375853.979 5    334084.040 5
  21642125.719    -4705119.508 5  -3449361.965 4
  18922006.508   -13460199.410 7 -10431716.528 9
  18124116.656   -28128493.030 7 -21701922.887 9
  22000336.453   -10590625.809 5  -8178105.314 4
  19294349.406   -22112420.581 7 -16856727.117 6
  21249837.586    -7706808.978 5  -5896688.921 5
  20272580.289   -23167369.383 6 -17848719.790 6
 94  1 29  3  5 29.9920000  0  8 27  9  2  7 15 13  4 26
  20430406.578      435165.459 5    380300.756 5
  21616038.484    -4842207.898 5  -3556184.044 4
  18919141.383   -13475271.434 7 -10443460.959 9
  18120550.133   -28147222.371 7 -21716517.176 9
  22003294.047   -10575072.649 5  -8165985.954 4
  19271601.781   -22231966.803 7 -16949880.003 6
  21223291.188    -7846304.813 5  -6005386.952 5
  20270932.188   -23176009.317 6 -17855452.217 6
 94  1 29  3  5 59.9920000  0  8 27  9  2  7 15 13  4 26
  20441752.211      494782.734 5    426755.754 6
  21589969.398    -4979201.497 5  -3662932.276 4
  18916313.273   -13490131.950 7 -10455040.584 9
  18117071.297   -28165499.134 7 -21730758.805 9
  22006350.078   -10559017.416 5  -8153475.374 5
  19248942.148   -22351036.590 7 -17042661.644 6
  21196763.203    -7985719.430 5  -6114021.716 5
  20269389.133   -23184147.142 6 -17861793.386 6
 94  1 29  3  6 29.9920000  0  8 27  9  2  7 15 13  4 26
  20453152.836      554703.760 5    473447.443 6
  21563915.758    -5116111.573 5  -3769615.421 5
  18913524.703   -13504792.188 7 -10466464.152 9
  18113673.984   -28183349.887 7 -21744668.480 9
  22009498.719   -10542471.054 5  -8140582.087 4
  19226373.680   -22469637.204 7 -17135077.687 6
  21170244.781    -8125062.964 5  -6222601.098 4
  20267927.555   -23191806.351 6 -17867761.615 6
 94  1 29  3  6 59.9920000  0  8 27  9  2  7 15 13  4 26
  20464613.414      614923.586 5    520371.963 5
  21537879.898    -5252924.686 5  -3876223.008 4
  18910770.570   -13519261.401 7 -10477738.862 9
  18110358.297   -28200776.794 7 -21758247.887 9
  22012738.406   -10525431.223 5  -8127304.271 4
  19203894.164   -22587762.605 7 -17227123.446 6
  21143747.070    -8264324.135 5  -6331116.296 5
  20266562.578   -23198988.971 6 -17873358.480 6
 94  1 29  3  7 29.9920000  0  8 27  9  2  7 15 13  4 26
  20476127.086      675436.198 5    567524.634 5
  21511866.172    -5389641.536 5  -3982755.575 4
  18908046.344   -13533571.243 7 -10488889.392 9
  18107120.750   -28217792.619 7 -21771506.965 9
  22016073.516   -10507910.335 5  -8113651.641 4
  19181504.453   -22705421.395 7 -17318805.607 6
  21117265.617    -8403506.427 5  -6439570.020 5
  20265286.094   -23205715.875 6 -17878600.231 6
 94  1 29  3  7 59.9920000  0  8 27  9  2  7 15 13  4 26
  20487698.352      736248.798 5    614911.061 5
  21485871.844    -5526243.487 5  -4089198.633 5
  18905352.508   -13547723.683 7 -10499917.274 9
  18103964.563   -28234389.074 7 -21784439.260 9
  22019500.961   -10489896.674 5  -8099614.997 3
  19159207.180   -22822598.274 7 -17410112.251 6
  21090798.180    -8542592.680 5  -6547948.914 5
  20264089.664   -23211986.701 6 -17883486.607 6
 94  1 29  3  8 29.9920000  0  8 27  9  2  7 15 13  4 26
  20499323.680      797329.365 5    662506.284 5
  21459897.883    -5662732.924 5  -4195553.987 5
  18902690.274   -13561720.682 7 -10510824.029 9
  18100884.492   -28250569.786 7 -21797047.607 9
  22023022.141   -10471398.656 5  -8085200.957 4
  19137000.000   -22939298.203 7 -17501047.249 6
  21064346.023    -8681575.472 5  -6656247.192 5
  20262978.047   -23217811.344 6 -17888025.293 6
 94  1 29  3  8 59.9920000  0  8 27  9  2  7 15 13  4 26
  20510991.195      858652.862 5    710290.813 5
  21433945.141    -5799117.885 5  -4301827.954 4
  18900057.352   -13575555.952 7 -10521604.755 9
  18097884.727   -28266328.039 7 -21809326.759 9
  22026632.305   -10452428.995 5  -8070419.390 4
  19114881.102   -23055529.864 7 -17591617.363 6
  21037922.211    -8820456.032 5  -6764465.805 5
  20261956.961   -23223197.457 6 -17892222.283 6
 94  1 29  3  9 29.9920000  0  8 27  9  2  7 15 13  4 26
  20522709.883      920228.830 5    758272.073 5
  21408013.305    -5935393.471 5  -4408016.676 5
  18897458.039   -13589215.656 7 -10532248.676 9
  18094968.422   -28281647.456 7 -21821263.964 9
  22030333.094   -10432973.870 5  -8055259.533 5
  19092855.320   -23171275.795 7 -17681808.982 6
  21011513.547    -8959227.550 5  -6872599.440 5
  20261014.781   -23228143.007 6 -17896075.975 6
 94  1 29  3  9 59.9920000  0  8 27  9  2  7 15 13  4 26
  20534475.383      982052.078 5    806446.012 5
  21382101.406    -6071567.594 5  -4514126.340 5
  18894893.031   -13602698.266 7 -10542754.610 9
  18092136.742   -28296526.022 7 -21832857.646 9
  22034129.438   -10413035.398 5  -8039723.053 5
  19070924.570   -23286534.704 7 -17771621.103 6
  20985127.422    -9097884.982 5  -6980644.191 5
  20260158.211   -23232644.432 6 -17899583.597 6
 94  1 29  3 10 29.9920000  0  8 27  9  2  7 15 13  4 26
  20546287.547     1044128.114 5    854816.943 5
  21356208.008    -6207627.849 5  -4620147.277 5
  18892360.930   -13615995.360 7 -10553115.979 9
  18089392.578   -28310960.334 7 -21844105.152 9
  22038017.406   -10392613.480 4  -8023809.863 4
  19049085.078   -23401302.468 7 -17861050.515 6
  20958760.906    -9236419.077 5  -7088592.840 5
  20259382.320   -23236702.021 6 -17902745.358 6
 94  1 29  3 10 59.9920000  0  8 27  9  2  7 15 13  4 26
  20558149.125     1106469.333 5    903394.497 5
  21330339.828    -6343569.730 5  -4726075.961 4
  18889862.688   -13629123.411 7 -10563345.638 9
  18086728.031   -28324968.942 7 -21855020.950 9
  22041991.648   -10371712.206 4  -8007523.150 4
  19027337.570   -23515579.893 7 -17950097.848 6
  20932427.742    -9374824.882 5  -7196441.497 5
  20258695.320   -23240325.762 6 -17905569.067 6
 94  1 29  3 11 29.9920000  0  8 27  9  2  7 15 13  4 26
  20570066.156     1169072.623 5    952176.258 5
  21304493.414    -6479401.464 5  -4831918.826 5
  18887391.656   -13642107.002 7 -10573462.717 9
  18084136.477   -28338573.569 7 -21865621.952 9
  22046054.469   -10350343.301 4  -7990872.045 4
  19005683.484   -23629375.228 7 -18038769.531 6
  20906108.094    -9513118.134 5  -7304202.462 5
  20258095.203   -23243514.136 6 -17908053.534 6
 94  1 29  3 11 59.9910000  0  8 27  9  2  7 15 13  4 26
  20582027.683     1231946.315 5   1001168.719 5
  21278666.980    -6615101.561 5  -4937659.103 5
  18884955.558   -13654920.706 7 -10583447.425 9
  18081624.487   -28351771.223 7 -21875905.832 9
  22050217.058   -10328497.611 4  -7973849.420 4
  18984123.761   -23742670.386 7 -18127051.461 6
  20879819.331    -9651269.100 5  -7411852.545 5
  20257571.565   -23246230.055 6 -17910169.856 6
 94  1 29  3 12 29.9910000  0  8 27  9  2  7 15 13  4 26
  20594040.659     1295087.200 5   1050369.393 5
  21252868.933    -6750673.275 5  -5043299.347 4
  18882552.464   -13667552.238 7
  18079185.651   -28364586.040 7
  22054458.105   -10306177.115 4  -7956456.807 4
  18962656.784   -23855472.932 7 -18214949.544 6
  20853556.112    -9789291.624 5  -7519402.557 5
  20257146.800   -23248471.777 6 -17911916.665 6
 94  1 29  3 12 59.9910000  0  8 27  9  2  7 15 13  4 26
  20606107.097     1358471.101 5   1099759.434 5
  21227094.347    -6886118.008 5  -5148840.656 5
  18880183.323   -13679999.830 7
  18076818.550   -28377028.400 7
  22058795.300   -10283392.488 4  -7938702.536 4
  18941285.683   -23967785.645 7 -18302465.937 6
  20827310.026    -9927205.083 5  -7626867.570 5
  20256807.597   -23250245.963 6 -17913299.160 6
 94  1 29  3 13 29.9910000  0  8 27  9  2  7 15 13  4 26
  20618213.456     1422099.061 5   1149339.629 5
  21201343.792    -7021423.164 5  -5254273.197 5
  18877856.534   -13692231.323 7 -10612520.639 9
  18074526.839   -28389076.509 7 -21904974.882 9
  22063222.722   -10260130.720 4  -7920576.474 5
  18920009.589   -24079591.614 7 -18389587.468 6
  20801086.964   -10065004.364 5  -7734243.623 5
  20256560.433   -23251541.456 6 -17914308.635 6
 94  1 29  3 13 59.9910000  0  8 27  9  2  7 15 13  4 26
  20630363.675     1485956.072 5   1199098.316 5
  21175622.706    -7156593.045 5  -5359600.339 5
  18875566.605   -13704253.745 7 -10621888.769 9
  18072307.815   -28400741.582 7 -21914064.547 9
  22067733.839   -10236408.463 4  -7902091.586 5
  18898826.089   -24190903.867 7 -18476324.279 6
  20774889.831   -10202691.073 5  -7841531.956 5
  20256396.573   -23252398.025 6 -17914976.097 6
 94  1 29  3 14 29.9910000  0  7 27  9  2  7 13  4 26
  20642561.519     1550035.956 5   1249030.682 5
  21149930.167    -7291626.250 5  -5464820.968 5
  18873313.190   -13716082.026 7 -10631105.609 9
  18070162.464   -28412027.430 7 -21922858.712 9
  18877738.683   -24301725.780 7 -18562679.008 7
  20748707.355   -10340279.313 5  -7948743.552 5
  20256313.792   -23252853.129 6
 94  1 29  3 14 59.9910000  0  7 27  9  2  7 13  4 26
  20654797.097     1614350.214 5   1299145.669 5
  21124261.105    -7426507.590 5  -5569923.292 5
  18871105.644   -13727705.171 7 -10640162.603 9
  18068090.269   -28422892.786 7 -21931325.229 9
  18856748.644   -24412036.046 7 -18648635.050 7
  20722547.261   -10477749.567 5  -8055863.225 5
  20256301.534   -23252903.805 6
 94  1 29  3 15 29.9910000  0  7 27  9  2  7 13  4 26
  20667078.058     1678896.107 5   1349441.154 5
  21098620.722    -7561259.887 5  -5674925.046 5
  18868925.706   -13739148.474 7 -10649079.469 9
  18066102.190   -28433352.805 7 -21939475.890 9
  18835850.190   -24521846.737 7 -18734201.805 7
  20696409.792   -10615094.508 5  -8162885.238 5
  20256366.269   -23252568.958 6
 94  1 29  3 15 59.9910000  0  7 27  9  2  7 13  4 26
  20679406.612     1743691.141 5   1399930.775 5
  21073003.612    -7695869.142 5  -5779815.353 5
  18866782.066   -13750404.381 7 -10657850.308 9
  18064192.706   -28443398.966 7 -21947304.056 9
  18815052.417   -24631143.922 7 -18819368.434 7
  20670299.370   -10752298.573 5  -8269797.493 5
  20256507.511   -23251834.443 6 -17914536.979 6
 94  1 29  3 16 29.9910000  0  7 27  9  2  7 13  4 26
  20691785.534     1808724.518 5   1450606.092 5
  21047417.464    -7830345.347 5  -5884601.985 5
  18864674.683   -13761473.532 7 -10666475.616 9
  18062358.636   -28453035.855 7 -21954813.312 9
  18794351.706   -24739929.421 7 -18904136.351 6
  20644221.206   -10889367.472 5  -8376604.415 5
  20256725.808   -23250684.136 6 -17913640.660 6
 94  1 29  3 16 59.9910000  0  7 27  9  2  7 13  4 26
  20704208.566     1874000.856 5   1501470.755 4
  21021851.761    -7964689.362 5  -5989285.620 4
  18862606.276   -13772350.813 7 -10674951.423 8
  18060602.058   -28462263.002 7 -21962003.293 8
  18773749.433   -24848196.424 7 -18988500.234 6
  20618165.933   -11026272.663 5  -8483283.769 5
  20257028.987   -23249101.445 6 -17912407.405 6
 94  1 29  3 17 29.9910000  0  8 27  9  2  7 12 13  4 26
  20716677.745     1939533.267 5   1552534.937 3
  20996313.105    -8098892.993 5  -6093859.858 5
  18860575.417   -13783029.684 7 -10683272.629 8
  18058920.964   -28471097.916 7 -21968887.642 8
  22050387.722          -0.81213
  18753244.097   -24955949.755 7 -19072463.867 6
  20592141.440   -11163013.965 5  -8589835.423 5
  20257414.667   -23247070.066 6 -17910824.529 6
 94  1 29  3 17 59.9910000  0  8 27  9  2  7 12 13  4 26
  20729192.472     2005309.825 5   1603789.373 4
  20970800.917    -8232949.878 5  -6198319.749 4
  18858582.792   -13793512.629 7 -10691441.157 8
  18057306.589   -28479559.011 7 -21975480.701 8
  22025534.581     -130559.172 3
  18732837.151   -25063188.448 7 -19156026.473 6
  20566152.894   -11299596.227 5  -8696263.151 5
  20257884.659   -23244592.832 6 -17908894.242 6
 94  1 29  3 18 29.9910000  0  8 27  9  2  7 12 13  4 26
  20741761.003     2071339.262 5   1655240.859 5
  20945324.573    -8366845.088 5  -6302653.640 5
  18856621.698   -13803802.415 7 -10699459.165 9
  18055773.964   -28487641.096 7 -21981778.417 9
  22000685.276     -261135.449 3        -0.45311
  18712527.800   -25169906.764 7 -19239183.585 7
  20540195.011   -11436006.414 5  -8802556.783 5
  20258441.605   -23241664.156 6 -17906612.179 6
 94  1 29  3 18 59.9910000  0  8 27  9  2  7 12 13  4 26
  20754371.097     2137628.126 5   1706894.503 5
  20919876.761    -8500568.618 5  -6406853.784 5
  18854702.706   -13813897.640 7 -10707325.575 9
  18054303.347   -28495344.612 7 -21987781.151 9
  21975835.441     -391725.326 3   -101758.681 1
  18692320.753   -25276100.202 7 -19321931.709 7
  20514275.612   -11572235.687 5  -8908709.446 5
  20259088.714   -23238285.337 6 -17903979.365 6
 94  1 29  3 19 29.9910000  0  8 27  9  2  7 12 13  4 26
  20767033.792     2204156.597 5   1758734.844 4
  20894463.534    -8634113.266 5  -6510914.524 5
  18852814.534   -13823806.685 7 -10715046.919 9
  18052911.487   -28502678.287 7 -21993495.703 9
  21950984.308     -522333.266 4   -203531.023 2
  18672211.847   -25381773.214 7 -19404274.308 7
  20488382.183   -11708295.727 5  -9014730.256 5
  20259810.480   -23234477.251 6 -17901012.050 6
 94  1 29  3 19 59.9910000  0  8 27  9  2  7 12 13  4 26
  20779733.120     2270902.077 5   1810744.276 5
  20869081.808    -8767481.557 5  -6614837.831 5
  18850959.698   -13833546.798 7 -10722636.605 9
  18051588.378   -28509639.097 7 -21998919.704 9
  21926121.401     -652974.224 3   -305329.065 2
  18652198.933   -25486940.753 7 -19486223.023 7
  20462518.261   -11844206.881 5  -9120635.033 5
  20260612.964   -23230259.235 6 -17897725.275 6
 94  1 29  3 20 29.9910000  0  8 27  9  2  7 12 13  4 26
  20792479.636     2337872.992 5   1862929.368 5
  20843742.089    -8900666.252 5  -6718618.101 5
  18849145.206   -13843087.303 7 -10730070.759 9
  18050342.331   -28516181.722 7 -22004017.849 9
  21901267.550     -783627.016 4   -407136.371 1
  18632286.831   -25591581.531 7 -19567761.282 7
  20436690.690   -11979947.897 5  -9226407.252 5
  20261497.714   -23225622.229 6 -17894112.037 6
 94  1 29  3 20 59.9910000  0  8 27  9  2  7 12 13  4 26
  20805261.136     2405049.505 5   1915274.684 4
  20818427.847    -9033677.081 5  -6822262.879 5
  18847368.409   -13852426.662 7 -10737348.179 9
  18049178.308   -28522304.977 7 -22008789.213 9
  21876391.472     -914295.850 3   -508956.174 2
  18612472.675   -25695699.949 7 -19648892.506 7
  20410885.253   -12115528.667 5  -9332054.594 5
  20262451.300   -23220586.067 6 -17890187.768 6
 94  1 29  3 21 29.9910000  0  8 27  9  2  7 12 13  4 26
  20818086.112     2472423.306 5   1967773.734 4
  20793151.378    -9166513.042 5  -6925771.388 5
  18845628.941   -13861575.506 7 -10744477.141 9
  18048088.667   -28528014.680 7 -22013238.323 9
  21851525.245    -1044981.434 4   -610789.030 2
  18592759.081   -25799296.736 7 -19729617.265 7
  20385119.714   -12250954.981 5  -9437581.569 6
  20263487.042   -23215159.353 6 -17885959.176 6
 94  1 29  3 21 59.9910000  0  8 27  9  2  7 12 13  4 26
  20830943.097     2539998.054 5   2020429.353 5
  20767903.831    -9299194.948 5  -7029159.861 5
  18843923.120   -13870547.767 7 -10751468.509 9
  18047075.769   -28533327.895 7 -22017378.483 9
  21826650.355    -1175686.906 4   -712637.380 1
  18573143.870   -25902375.057 7 -19809938.023 7
  20359376.730   -12386225.643 5  -9542987.265 5
  20264590.464   -23209345.713 6 -17881429.083 6
 94  1 29  3 22 29.9910000  0  8 27  9  2  7 12 13  4 26
  20843839.042     2607775.481 5   2073242.912 5
  20742680.690    -9431732.588 5  -7132435.926 5
  18842249.159   -13879334.696 7 -10758315.467 9
  18046138.370   -28538266.166 7 -22021226.476 9
  21801772.972    -1306403.928 4   -814494.762 2
  18553629.503   -26004926.738 7 -19889848.408 7
  20333667.440   -12521314.939 5  -9648251.637 6
  20265772.620   -23203144.333 6 -17876596.855 6
 94  1 29  3 22 59.9910000  0  8 27  9  2  7 12 13  4 26
  20856784.480     2675784.894 5   2126237.228 5
  20717491.292    -9564109.650 5  -7235586.867 5
  18840612.355   -13887937.057 7 -10765018.605 9
  18045264.808   -28542853.341 7 -22024800.890 9
  21776909.558    -1437118.138 5   -916349.921 2
  18534217.581   -26106937.795 7 -19969337.526 7
  20308002.198   -12656203.290 5  -9753359.429 6
  20267031.831   -23196532.747 6 -17871444.983 6
 94  1 29  3 23 29.9910000  0  8 27  9  2  7 12 13  4 26
  20869767.136     2744028.769 5   2179414.254 4
  20692329.292    -9696335.653 5  -7338620.095 5
  18839012.456   -13896355.614 7 -10771578.513 9
  18044454.323   -28547110.894 7 -22028118.456 9
  21752030.597    -1567839.013 4  -1018210.324 2
  18514905.995   -26208417.755 7 -20048412.804 7
  20282370.690   -12790895.497 6  -9858314.384 6
  20268363.753   -23189519.816 5 -17865980.365 6
 94  1 29  3 23 59.9910000  0  8 27  9  2  7 12 13  4 26
  20882799.659     2812498.011 5   2232766.891 5
  20667193.534    -9828418.106 5  -7441541.454 5
  18837445.487   -13904579.478 7 -10777986.721 9
  18043708.034   -28551031.120 7 -22031173.166 9
  21727158.730    -1698570.206 5  -1120078.742 2
  18495696.847   -26309370.752 7 -20127077.467 7
  20256776.581   -12925395.422 6  -9963119.498 6
  20269773.589   -23182119.090 5 -17860213.583 6
 94  1 29  3 24 29.9910000  0  8 27  9  2  7 12 13  4 26
  20895868.933     2881173.368 5   2286280.120 4
  20642093.847    -9960334.184 5  -7544333.201 5
  18835919.487   -13912593.765 7 -10784231.615 9
  18043032.800   -28554597.717 7 -22033952.326 9
  21702273.386    -1829309.293 4  -1221953.312 2
  18476585.526   -26409794.164 7 -20205329.459 7
  20231219.800   -13059707.126 6 -10067777.952 6
  20271252.566   -23174335.414 6 -17854148.398 6
 94  1 29  3 24 59.9910000  0  8 27  9  2  7 12 13  4 26
  20908974.698     2950060.042 5   2339958.026 4
  20617024.909   -10092057.184 5  -7646974.473 5
  18834434.792   -13920392.478 7 -10790308.536 9
  18042423.120   -28557790.177 7 -22036439.948 9
  21677389.714    -1960048.091 4  -1323827.655 2
  18457578.198   -26509680.761 7 -20283163.153 7
  20205693.628   -13193834.331 6 -10172292.646 6
  20272810.269   -23166161.084 6 -17847778.824 6
 94  1 29  3 25 29.9910000  0  8 27  9  2  7 12 13  4 26
  20922121.925     3019138.292 5   2393785.203 4
  20591997.409   -10223578.811 5  -7749458.840 5
  18832995.159   -13927970.229 7 -10796213.271 8
  18041890.269   -28560590.863 7 -22038622.294 9
  21652517.980    -2090788.201 4  -1425703.024 2
  18438672.808   -26609031.934 7 -20360579.638 7
  20180205.917   -13327770.073 6 -10276658.139 6
  20274439.003   -23157600.097 6 -17841107.939 6
 94  1 29  3 25 59.9910000  0  8 27  9  2  7 12 13  4 26
  20935299.472     3088394.839 5   2447751.336 4
  20567009.761   -10354882.484 5  -7851773.374 5
  18831593.323   -13935340.249 7 -10801956.148 9
  18041427.659   -28563008.909 7 -22040506.479 9
  21627642.198    -2221522.194 5  -1527573.627 2
  18419869.651   -26707840.977 7 -20437573.681 7
  20154758.230   -13461501.552 6 -10380864.474 6
  20276144.558   -23148642.703 6 -17834128.167 6
 94  1 29  3 26 29.9910000  0  8 27  9  2  7 12 13  4 26
  20948504.222     3157826.227 5   2501853.711 4
  20542064.190   -10485977.878 5  -7953925.611 5
  18830224.331   -13942524.404 7 -10807554.183 9
  18041033.972   -28565080.647 7 -22042120.820 9
  21602759.464    -2352262.818 5  -1629449.400 3
  18401167.409   -26806120.788 7 -20514155.329 7
  20129350.370   -13595028.372 6 -10484911.329 6
  20277925.964   -23139288.931 6 -17826839.541 6
 94  1 29  3 26 59.9910000  0  8 27  9  2  7 12 13  4 26
  20961762.987     3227464.472 5   2556117.252 3
  20517157.237   -10616859.330 5
  18828893.105   -13949519.425 7 -10813004.848 9
  18040706.870   -28566802.899 7 -22043462.832 9
  21577882.909    -2482998.534 5
  18382568.065   -26903860.499 7 -20590316.135 7
  20103983.831   -13728338.613 6 -10588789.420 5
  20279777.269   -23129535.040 6 -17819239.121 6
 94  1 29  3 27 29.9910000  0  8 27  9  2  7 12 13  4 26
  20975051.659     3297297.183 5   2610532.326 3
  20492290.214   -10747548.763 5
  18827598.519   -13956325.900 7 -10818308.592 8
  18040441.714   -28568185.417 7 -22044540.111 9
  21553002.112    -2613736.147 5
  18364070.151   -27001067.291 7 -20666061.670 7
  20078652.909   -13861434.703 6 -10692500.640 6
  20281705.815   -23119410.998 6 -17811350.264 5
 94  1 29  3 27 59.9910000  0  8 27  9  2  7 12 13  4 26
  20988385.230     3367345.538 5   2665115.422 5
  20467456.956   -10878036.001 5  -8259425.374 5
  18826343.237   -13962923.721 7 -10823449.749 8
  18040249.315   -28569219.987 7 -22045346.260 9
  21528129.417    -2744461.622 5  -1935058.721 2
  18345676.323   -27097727.696 7 -20741381.447 7
  20053369.925   -13994305.681 6 -10796036.455 6
  20283704.886   -23108910.719 6 -17803168.249 6
 94  1 29  3 28 29.9910000  0  8 27  9  2  7 12 13  4 26
  21001753.503     3437608.812 5   2719866.001 4
  20442666.808   -11008320.148 6  -8360945.458 5
  18825125.495   -13969306.378 7 -10828423.241 8
  18040123.526   -28569884.965 7 -22045864.420 9
  21503259.675    -2875174.838 5  -2036913.135 1
  18327385.261   -27193842.095 7 -20816275.776 7
  20028127.206   -14126956.984 6 -10899401.103 6
  20285774.339   -23098040.431 6 -17794697.922 6
 94  1 29  3 28 59.9910000  0  8 27  9  2  7 12 13  4 26
  21015160.644     3508073.120 5   2774773.235 4
  20417911.620   -11138399.224 6  -8462305.758 6
  18823954.019   -13975471.418 7 -10833227.172 8
  18040067.894   -28570172.103 7
  21478383.980    -3005875.335 5  -2138757.660 2
  18309200.800   -27289410.797 7 -20890744.871 7
  20002923.745   -14259388.474 6 -11002594.455 6
  20287908.792   -23086815.368 5 -17785951.140 6
 94  1 29  3 29 29.9910000  0  8 27  9  2  7 12 13  4 26
  21028609.472     3578727.080 5   2829828.245 3
  20393197.612   -11268276.291 6  -8563508.628 6
  18822821.503   -13981418.039 7 -10837860.895 8
  18040079.940   -28570096.023 7
  21453508.839    -3136564.423 5  -2240593.283 2
  18291117.222   -27384435.536 7 -20964790.101 7
  19977766.433   -14391587.455 6 -11105606.627 6
  20290115.808   -23075216.289 5 -17776912.914 6
 94  1 29  3 29 59.9910000  0  8 27  9  2  7 12 13  4 26
  21042085.714     3649565.640 4   2885027.120 5
  20368524.472   -11397940.187 6  -8664545.421 6
  18821729.714   -13987162.972 7 -10842337.464 8
  18040165.183   -28569653.372 7
  21428649.105    -3267239.402 5  -2342417.931 2
  18273138.237   -27478914.457 7 -21038410.023 7
  19952654.237   -14523559.686 6 -11208442.129 6
  20292398.737   -23063225.698 5 -17767569.611 6
 94  1 29  3 30 29.9910000  0  8 27  9  2  7 12 13  4 26
  21055598.089     3720583.607 4   2940365.753 3
  20343892.323   -11527379.514 6  -8765407.204 6
  18820674.253   -13992702.789 7 -10846654.201 8
  18040322.112   -28568843.372 7 -22045052.756 9
  21403782.401    -3397889.599 5  -2444223.245 3
  18255265.323   -27572837.374 7 -21111596.694 7
  19927588.612   -14655298.029 6 -11311095.373 6
  20294754.355   -23050851.102 5 -17757927.090 6
 94  1 29  3 30 59.9910000  0  8 27  9  2  7 12 13  4 26
  21069147.573     3791767.072 4   2995833.359 4
  20319297.706   -11656618.730 6  -8866113.058 5
  18819657.831   -13998050.003 7 -10850820.855 8
  18040539.526   -28567703.428 7 -22044164.477 9
  21378921.800    -3528529.726 5  -2546020.709 3
  18237495.769   -27666219.486 7 -21184361.961 7
  19902558.667   -14786809.411 6 -11413571.767 6
  20297176.058   -23038115.450 5 -17748003.238 6
 94  1 29  3 31 29.9910000  0  8 27  9  2  7 12 13  4 26
  21082721.753     3863116.014 4   3051429.929 4
  20294747.417   -11785642.957 6  -8966651.399 6
  18818679.276   -14003204.214 7 -10854837.117 8
  18040812.886   -28566229.305 7 -22043015.802 9
  21354068.105    -3659150.403 5  -2647803.029 3
  18219829.956   -27759052.573 7 -21256699.414 7
  19877579.823   -14918093.853 6 -11515871.313 6
  20299666.862   -23025018.557 5 -17737797.891 6
 94  1 29  3 31 59.9900000  0  8 27  9  2  7 12 13  4 26
  21096333.248     3934629.782 4   3107154.915 3
  20270239.600   -11914424.140 6  -9067000.335 6
  18817731.725   -14008167.645 7 -10858704.724 8
  18041163.764   -28564407.975 7 -22041596.584 9
  21329220.475    -3789737.208 5  -2749558.963 4
  18202273.607   -27851324.101 7 -21328599.298 7
  19852637.818   -15049139.885 6 -11617985.092 6
  20302224.178   -23011582.802 5 -17727328.498 6
 94  1 29  3 32 29.9900000  0  8 27  9  2  7 12 13  4 26
  21109969.943     4006316.267 3   3163014.493 4
  20245776.233   -12042979.692 6  -9167173.465 5
  18816825.076   -14012946.523 7 -10862428.527 8
  18041569.365   -28562267.990 7 -22039929.053 9
  21304371.490    -3920310.369 5
  18184817.131   -27943052.935 7 -21400076.286 7
  19827749.826   -15179949.490 6
  20304843.928   -22997824.014 5 -17716607.385 5
 94  1 29  3 32 59.9900000  0  8 27  9  2  7 12 13  4 26
  21123649.834     4078188.996 4   3219019.162 4
  20221357.225   -12171303.090 6  -9267165.745 5
  18815947.701   -14017547.172 7 -10866013.470 8
  18042044.084   -28559796.977 7 -22038003.611 9
  21279524.295    -4050861.522 5
  18167465.248   -28034232.225 7 -21471125.088 7
  19802900.631   -15310510.471 6
  20307524.818   -22983729.016 5 -17705624.318 5
 94  1 29  3 33 29.9900000  0  8 27  9  2  7 12 13  4 26
  21137364.678     4150249.918 4   3275170.537 4
  20196986.506   -12299376.199 6  -9366962.919 6
  18815109.662   -14021965.540 7 -10869456.320 8
  18042576.178   -28556971.520 7 -22035801.913 9
  21254688.436    -4181380.387 5  -3054735.393 3
  18150220.498   -28124852.984 7 -21541738.620 7
  19778106.897   -15440809.757 6 -11923182.356 6
  20310275.514   -22969293.759 5 -17694376.049 5
 94  1 29  3 33 59.9900000  0  8 27  9  2  7 12 13  4 26
  21151107.725     4222487.323 4   3331459.388 4
  20172654.092   -12427230.509 6  -9466589.636 6
  18814303.967   -14026198.348 7 -10872754.615 8
  18043180.967   -28553799.427 7 -22033330.141 9
  21229862.592    -4311875.696 5  -3156420.002 3
  18133081.022   -28214924.862 7 -21611924.479 7
  19753363.943   -15570844.563 6 -12024508.156 6
  20313084.686   -22954520.127 5 -17682864.150 5
 94  1 29  3 34 29.9900000  0  8 27  9  2  7 12 13  4 26
  21164885.459     4294903.033 3   3387887.176 3
  20148366.381   -12554878.877 5  -9566055.882 6
  18813540.631   -14030209.545 7 -10875880.221 8
  18043852.881   -28550263.175 7 -22030574.609 9
  21205030.943    -4442333.430 5  -3258075.352 3
  18116047.412   -28304434.854 7 -21681672.502 7
  19728671.131   -15700604.820 6 -12125620.016 6
  20315965.037   -22939386.150 5 -17671071.471 6
 94  1 29  3 34 59.9900000  0  8 27  9  2  7 12 13  4 26
  21178694.858     4367460.631 4   3444425.540 2
  20124111.576   -12682337.860 5  -9665374.543 6
  18812817.943   -14033991.949 7 -10878827.545 8
  18044596.240   -28546366.359 7 -22027538.115 9
  21180210.857    -4572761.716 5  -3359707.730 4
  18099119.998   -28393391.819 7 -21750989.601 7
  19704029.772   -15830104.156 6 -12226528.576 6
  20318911.420   -22923906.538 6 -17659009.458 6
 94  1 29  3 35 29.9900000  0  8 27  9  2  7 12 13  4 26
  21192530.420     4440150.107 4   3501066.682 4
  20099893.272   -12809597.024 5  -9764537.498 6
  18812146.818   -14037534.131 7 -10881587.692 8
  18045400.943   -28542131.889 7 -22024238.518 9
  21155400.725    -4703160.969 5  -3461317.514 4
  18082296.850   -28481797.408 7 -21819877.044 7
  19679433.826   -15959341.166 6 -12327232.720 6
  20321921.537   -22908087.736 6 -17646683.156 6
 94  1 29  3 35 59.9900000  0  8 27  9  2  7 12 13  4 26
  21206385.787     4512983.572 4   3557820.015 3
  20075717.561   -12936644.581 6  -9863535.584 6
  18811521.381   -14040825.505 7 -10884152.400 8
  18046267.358   -28537571.794 7 -22020685.195 9
  21130588.506    -4833524.547 5  -3562899.509 4
  18065578.779   -28569646.039 7 -21888330.502 7
  19654890.584   -16088318.216 6 -12427734.298 6
  20324997.326   -22891912.014 6 -17634078.710 6
 94  1 29  3 36 29.9900000  0  8 27  9  2  7 12 13  4 26
  21220277.232     4585971.462 4   3614693.658 3
  20051586.303   -13063456.435 6  -9962350.006 6
  18810938.162   -14043883.237 7 -10886535.046 8
  18047194.006   -28532700.038 7 -22016889.013 9
  21105789.600    -4963853.995 5  -3664454.873 3
  18048967.857   -28656940.271 7 -21956351.961 7
  19630397.303   -16217041.167 6 -12528037.867 6
  20328144.475   -22875385.796 6 -17621201.152 6
 94  1 29  3 36 59.9900000  0  8 27  9  2  7 12 13  4 26
  21234197.897     4659121.705 3   3671693.839 3
  20027503.842   -13190007.010 6 -10060960.825 6
  18810392.186   -14046739.940 7 -10888761.057 8
  18048180.522   -28527534.622 7 -22012864.002 9
  21080997.811    -5094150.743 5  -3765984.781 4
  18032460.514   -28743682.609 7 -22023943.367 7
  19605952.686   -16345508.269 6 -12628142.083 6
  20331354.897   -22858515.805 5 -17608055.727 5
 94  1 29  3 37 29.9900000  0  8 27  9  2  7 12 13  4 26
  21248154.537     4732449.816 3   3728832.599 4
  20003471.248   -13316290.128 6 -10159363.242 6
  18809882.701   -14049414.298 7 -10890844.973 8
  18049222.779   -28522067.294 7 -22008603.741 9
  21056209.490    -5224409.476 5  -3867485.067 3
  18016060.232   -28829869.095 7 -22091101.643 7
  19581554.943   -16473718.998 6 -12728046.529 6
  20334629.576   -22841295.860 5 -17594637.602 5
 94  1 29  3 37 59.9900000  0  8 27  9  2  7 12 13  4 26
  21262138.357     4805956.674 3   3786110.679 2
  19979493.193   -13442309.339 6 -10257560.027 6
  18809412.865   -14051899.418 7 -10892781.434 8
  18050320.873   -28516274.292 7 -22004089.699 9
  21031429.287    -5354618.853 5  -3968946.881 3
  17999767.404   -28915489.444 7 -22157818.774 7
  19557203.506   -16601666.662 6 -12827745.989 6
  20337978.795   -22823714.804 5 -17580938.087 5
 94  1 29  3 38 29.9900000  0  8 27  9  2  7 12 13  4 26
  21276164.397     4879629.559 3   3843518.096 2
  19955560.686   -13568075.368 6 -10355559.508 6
  18808968.209   -14054212.133 7 -10894583.555 8
  18051486.592   -28510162.642 7 -21999327.375 9
  21006661.404    -5484782.607 5  -4070373.160 3
  17983580.342   -29000548.872 7 -22224098.830 7
  19532906.443   -16729346.024 6 -12927236.382 6
  20341386.553   -22805808.825 5 -17566985.383 5
 94  1 29  3 38 59.9900000  0  8 27  9  2  7 12 13  4 26
  21290208.912     4953452.622 3   3901042.512 2
  19931674.756   -13693601.183 6 -10453371.846 6
  18808565.725   -14056345.133 7 -10896245.671 8
  18052708.483   -28503735.106 7 -21994318.932 9
  20981899.201    -5614902.542 5  -4171765.331 3
  17967500.568   -29085050.208 7 -22289944.037 7
  19508663.342   -16856752.140 6 -13026513.886 6
  20344850.787   -22787595.711 5 -17552793.404 5
 94  1 29  3 39 29.9900000  0  8 27  9  2  7 12 13  4 26
  21304285.873     5027425.995 3   3958684.078 3
  19907832.850   -13818883.077 6 -10550994.080 6
  18808198.373   -14058266.569 7 -10897742.893 8
  18053995.139   -28496984.977 7 -21989059.082 9
  20957148.725    -5744968.875 5  -4273115.675 3
  17951527.959   -29168985.076 7 -22355347.808 7
  19484473.709   -16983871.184 6 -13125567.656 6
  20348375.256   -22769070.896 5 -17538358.497 5
 94  1 29  3 39 59.9900000  0  8 27  9  2  7 12 13  4 26
  21318392.397     5101538.157 3   4016433.804 2
  19884042.295   -13943909.977 6 -10648417.631 6
  18807872.350   -14059969.874 7 -10899070.159 8
  18055336.670   -28489927.876 7 -21983560.044 9
  20932407.787    -5874985.527 5  -4374427.339 4
  17935663.592   -29252358.818 7 -22420314.344 7
  19460339.756   -17110695.021 6 -13224391.411 6
  20351952.748   -22750257.747 5 -17523698.924 5
 94  1 29  3 40 29.9900000  0  8 27  9  2  7 12 13  4 26
  21332516.209     5175788.412 3   4074291.151 2
  19860300.467   -14068679.424 6 -10745640.525 6
  18807589.240   -14061470.394 7 -10900239.360 8
  18056736.693   -28482576.287 7 -21977831.497 9
  20907677.639    -6004958.849 5  -4475705.172 3
  17919901.186   -29335178.826 7 -22484849.359 7
  19436264.811   -17237214.173 6 -13322977.706 6
  20355587.982   -22731168.929 5 -17508824.501 5
 94  1 29  3 40 59.9900000  0  8 27  9  2  7 12 13  4 26
  21346669.311     5250173.966 3   4132253.907 2
  19836608.904   -14193169.083 6 -10842645.442 6
  18807350.240   -14062745.552 7 -10901233.004 8
  18058190.795   -28474920.538 7 -21971865.974 9
  20882949.709    -6134879.265 5  -4576941.847 4
  17904249.881   -29417437.428 7 -22548946.956 7
  19412248.068   -17363418.176 6 -13421318.474 6
  20359278.725   -22711772.894 5 -17493710.727 5
 94  1 29  3 41 29.9900000  0  8 27  9  2  7 12 13  4 26
  21360852.709     5324704.392 3   4190329.552 1
  19812978.787   -14317354.608 6 -10939413.364 6
  18807149.428   -14063780.510 7 -10902039.467 8
  18059710.904   -28466946.888 7 -21965652.740 9
  20858240.115    -6264734.432 5  -4678127.664 3
  17888705.686   -29499123.268 7 -22612598.238 7
  19388292.787   -17489300.679 6 -13519408.705 6
  20363030.092   -22692055.538 5 -17478346.570 5
 94  1 29  3 41 59.9900000  0  8 27  9  2  7 12 13  4 26
  21375061.975     5399378.376 3   4248517.046 2
  19789402.811   -14441242.925 6 -11035949.704 6
  18806993.068   -14064599.700 7 -10902677.805 8
  18061287.092   -28458666.032 7 -21959200.120 9
  20833544.178    -6394531.586 5  -4779268.284 4
  17873268.029   -29580245.458 7 -22675810.318 7
  19364396.475   -17614870.248 6 -13617255.096 6
  20366839.014   -22672032.529 5 -17462744.236 5
 94  1 29  3 42 29.9900000  0  8 27  9  2  7 12 13  4 26
  21389302.334     5474196.947 3   4306817.232 2
  19765882.287   -14564835.624 6 -11132255.684 6
  18806878.920   -14065199.178 7 -10903144.948 8
  18062918.584   -28450087.256 7 -21952515.360 9
  20808855.303    -6524263.460 5  -4880358.020 5
  17857940.397   -29660797.923 7 -22738578.436 7
  19340561.107   -17740129.893 6 -13714859.985 6
  20370711.592   -22651686.141 5 -17446889.925 5
 94  1 29  3 42 59.9900000  0  8 27  9  2  7 12 13  4 26
  21403565.576     5549144.575 3   4365217.941 2
  19742420.459   -14688137.881 6 -11228335.355 6
  18806807.943   -14065573.536 7
  18064605.670   -28441219.456 7 -21945605.379 9
  20784180.967    -6653933.658 5  -4981399.718 4
  17842718.982   -29740785.972 7 -22800906.767 7
  19316779.490   -17865104.268 6 -13812242.585 6
  20374641.131   -22631033.639 5 -17430797.087 5
 94  1 29  3 43 29.9900000  0  8 27  9  2  7 12 13  4 26
  21417849.959     5624221.924 3   4423719.755 2
  19719007.428   -14811166.712 6 -11324201.953 6
  18806777.232   -14065731.953 7
  18066348.936   -28432062.680 7 -21938470.226 9
  20759516.787    -6783541.910 5  -5082393.141 4
  17827603.553   -29820210.716 7 -22862796.159 7
  19293050.865   -17989798.509 6 -13909406.896 6
  20378627.951   -22610093.402 5 -17414480.049 5
 94  1 29  3 43 59.9900000  0  8 27  9  2  7 12 13  4 26
  21432158.865     5699417.403 3   4482313.614 2
  19695643.084   -14933942.462 6 -11419871.356 6
  18806788.365   -14065687.464 7
  18068144.592   -28422623.899 7 -21931115.333 9
  20734862.670    -6913090.392 5  -5183339.993 5
  17812596.943   -29899076.381 7 -22924249.901 7
  19269379.147   -18114211.638 6 -14006352.158 6
  20382665.576   -22588872.195 5 -17397944.060 5
 94  1 29  3 44 29.9900000  0  8 27  9  2  7 12 13  4 26
  21446491.834     5774732.207 3   4541000.438 1
  19672330.178   -15056451.280 6 -11515332.751 6
  18806839.975   -14065412.902 7
  18069996.467   -28412877.621 7 -21923520.833 9
  20710226.568    -7042561.952 5  -5284226.893 5
  17797699.022   -29977367.197 7 -22985255.705 7
  19245758.240   -18238319.572 6 -14103059.599 6
  20386758.608   -22567358.169 5 -17381179.909 5
 94  1 29  3 44 59.9900000  0  8 27  9  2  7 12 13  4 26
  21460848.397     5850167.469 3   4599781.136 1
  19649068.936   -15178688.728 6 -11610582.699 6
  18806935.053   -14064917.458 7 -10902925.459 8
  18071912.100   -28402809.165 7 -21915675.283 9
  20685600.443    -7171959.064 5  -5385055.793 5
  17782908.959   -30055087.395 7 -23045816.879 7
  19222201.811   -18362115.442 6 -14199523.882 6
  20390909.654   -22545566.020 5 -17364199.019 5
 94  1 29  3 45 29.9900000  0  8 24  9  2  7 12 13  4 26
  21330031.303          -0.68613
  19625861.037   -15300648.805 6 -11705616.508 6
  18807067.350   -14064203.479 7 -10902369.120 8
  18073892.576   -28392423.423 7 -21907582.491 9
  20660994.068    -7301283.957 5  -5485828.425 5
  17768225.834   -30132240.801 7 -23105936.397 7
  19198708.912   -18485577.359 6 -14295727.945 6
  20395103.389   -22523492.803 5 -17346999.123 5
 94  1 29  3 45 59.9900000  0  8 24  9  2  7 12 13  4 26
  21302116.115     -146709.137 4        -0.26013
  19602709.459   -15422318.886 6 -11800424.356 6
  18807246.318   -14063270.045 7 -10901641.776 8
  18075924.732   -28381734.112 7 -21899253.153 9
  20636396.795    -7430534.977 5  -5586543.499 5
  17753651.834   -30208827.771 7 -23165614.532 7
  19175282.803   -18608689.521 6 -14391659.465 6
  20399359.647   -22501141.259 5 -17329582.357 5
 94  1 29  3 46 29.9900000  0  8 24  9  2  7 12 13  4 26
  21274205.670     -293375.128 4   -114285.498 2
  19579614.568   -15543683.029 6 -11894993.799 6
  18807467.826   -14062111.938 7 -10900739.363 7
  18078014.858   -28370740.328 7 -21890686.562 9
  20611815.615    -7559707.183 5  -5687197.159 4
  17739187.225   -30284845.013 7 -23224848.726 7
  19151920.100   -18731449.401 6 -14487316.480 6
  20403665.514   -22478501.192 5 -17311940.762 5
 94  1 29  3 46 59.9900000  0  8 24  9  2  7 12 13  4 26
  21246307.701     -439976.604 4   -228520.422 3
  19556578.787   -15664742.987 6 -11989326.223 6
  18807727.670   -14060735.921 7 -10899667.147 8
  18080167.358   -28359446.149 7 -21881885.902 9
  20587252.420    -7688798.206 5  -5787787.563 5
  17724830.561   -30360292.005 7 -23283638.569 7
  19128624.779   -18853862.564 6 -14582703.325 7
  20408030.881   -22455568.635 5 -17294071.258 5
 94  1 29  3 47 29.9900000  0  8 24  9  2  7 12 13  4 26
  21218427.475     -586510.905 4   -342703.016 3
  19533595.045   -15785522.186 6 -12083439.876 6
  18808038.240   -14059134.464 7 -10898419.259 7
  18082369.662   -28347862.187 7 -21872859.438 9
  20562700.873    -7817803.877 5  -5888311.440 5
  17710581.975   -30435166.473 7 -23341982.292 7
  19105394.639   -18975932.141 6 -14677822.445 7
  20412451.951   -22432342.400 5 -17275972.924 5
 94  1 29  3 47 59.9900000  0  8 24  9  2  7 12 13  4 26
  21190550.654     -732998.744 4   -456849.385 1
  19510658.272   -15906042.881 6 -12177352.098 6
  18808375.928   -14057334.010 7 -10897016.316 7
  18084627.045   -28336007.072 7 -21863621.681 9
  20538170.100    -7946731.739 5  -5988774.707 5
  17696441.100   -30509477.883 7 -23399887.258 7
  19082227.670   -19097676.450 6 -14772688.106 7
  20416923.787   -22408829.117 5 -17257650.898 5
 94  1 29  3 48 29.9900000  0  8 24  9  2  7 12 13  4 26
  21162672.693     -879451.161 4   -570968.158 3
  19487774.318   -16026303.598 6 -12271061.737 6
  18808757.537   -14055342.065 7 -10895464.162 7
  18086932.225   -28323876.026 7 -21854168.914 9
  20513647.756    -8075580.245 5  -6089176.130 5
  17682407.256   -30583226.529 7 -23457353.710 7
  19059123.217   -19219106.061 6 -14867308.550 6
  20421458.365   -22385022.868 5 -17239100.596 5
 94  1 29  3 48 59.9900000  0  8 24  9  2  7 12 13  4 26
  21134821.092    -1025861.232 4   -685053.949 2
  19464942.600   -16146291.379 6 -12364558.714 6
  18809174.295   -14053145.557 7 -10893752.611 7
  18089293.725   -28311475.881 7 -21844506.458 9
  20489146.912    -8204336.388 5  -6189505.581 5
  17668482.217   -30656401.326 7 -23514373.009 7
  19036077.826   -19340195.377 6 -14961663.826 7
  20426040.732   -22360931.683 5 -17220328.257 5
 94  1 29  3 49 29.9900000  0  8 24  9  2  7 12 13  4 26
  21106963.936    -1172245.394 4   -799119.555 2
  19442163.717   -16265993.345 6 -12457832.956 6
  18809630.443   -14050736.619 7 -10891875.528 7
  18091702.115   -28298824.658 7 -21834648.362 9
  20464665.295    -8333002.146 5  -6289764.604 5
  17654666.522   -30729006.387 7 -23570948.363 7
  19013102.615   -19460936.757 6 -15055747.984 6
  20430675.787   -22336571.977 5 -17201346.688 5
 94  1 29  3 49 59.9900000  0  8 24  9  2  7 12 13  4 26
  21079109.592    -1318619.318 5   -913177.147 3
  19419444.842   -16385372.880 6 -12550855.957 6
  18810132.428   -14048120.392 7 -10889836.919 7
  18094154.897   -28285922.755 7 -21824594.930 9
  20440196.123    -8461584.602 5  -6389958.709 5
  17640955.990   -30801050.834 7 -23627086.876 7
  18990194.998   -19581333.141 6 -15149563.312 6
  20435357.639   -22311965.817 5 -17182173.070 5
 94  1 29  3 50 29.9900000  0  8 24  9  2  7 12 13  4 26
  21051263.740    -1464964.016 5  -1027211.978 2
  19396794.623   -16504405.231 6 -12643608.432 6
  18810674.717   -14045265.951 7 -10887612.689 7
  18096661.912   -28272753.891 7 -21814333.480 9
  20415745.147    -8590071.159 5  -6490078.091 5
  17627355.670   -30872524.137 7 -23682780.339 7
  18967351.201   -19701374.351 6 -15243101.883 7
  20440083.881   -22287132.493 5 -17162822.436 5
 94  1 29  3 50 59.9900000  0  8 24  9  2  7 12 13  4 26
  21023415.686    -1611272.012 4  -1141218.202 4
  19374208.982   -16623101.220 6 -12736098.802 6
  18811264.115   -14042164.626 7 -10885196.078 7
  18099220.287   -28259317.668 7 -21803863.695 9
  20391310.225    -8718464.111 5  -6590124.543 5
  17613862.397   -30943430.609 7 -23738032.121 7
  18944573.897   -19821058.885 6 -15336362.525 7
  20444853.092   -22262086.567 5 -17143306.144 5
 94  1 29  3 51 29.9900000  0  8 24  9  2  7 12 13  4 26
  20995578.264    -1757559.293 4  -1255208.311 3
  19351681.818   -16741468.554 6 -12828333.088 6
  18811900.154   -14038821.649 7 -10882591.178 7
  18101830.662   -28245601.111 7 -21793175.468 9
  20366898.389    -8846771.462 5  -6690104.281 5
  17600474.576   -31013780.170 7 -23792849.945 7
  18921863.428   -19940403.468 6 -15429358.269 7
  20449656.967   -22236828.380 5 -17123624.454 5
 94  1 29  3 51 59.9900000  0  8 24  9  2  7 12 13  4 26
  20967755.764    -1903797.455 5  -1369160.127 2
  19329225.256   -16859493.705 6 -12920300.724 6
  18812583.709   -14035240.275 7 -10879800.510 7
  18104495.225   -28231584.895 7 -21782253.739 9
  20342498.404    -8974972.575 6  -6790001.239 5
  17587198.022   -31083554.604 7 -23847219.610 7
  18899221.381   -20059386.825 6 -15522072.541 7
  20454513.240   -22211317.109 5 -17103745.562 5
 94  1 29  3 52 29.9890000  0  8 24  9  2  7 12 13  4 26
  20939938.735    -2049968.022 5  -1483059.279 4
  19306826.431   -16977197.373 6 -13012017.861 6
  18813309.181   -14031424.591 7 -10876827.255 7
  18107221.439   -28217267.445 7 -21771097.284 9
  20318126.618    -9103055.326 6  -6889805.968 5
  17574030.470   -31152746.249 7 -23901135.157 7
  18876653.571   -20177991.452 6 -15614491.698 7
  20459419.485   -22185533.773 5 -17083654.684 5
 94  1 29  3 52 59.9890000  0  8 24  9  2  7 12 13  4 26
  20912130.196    -2196099.666 5  -1596928.153 4
  19284486.290   -17094591.260 6 -13103493.650 6
  18814072.501   -14027398.950 6 -10873690.436 7
  18110000.970   -28202664.587 7 -21759718.469 9
  20293771.040    -9231040.468 6  -6989534.662 5
  17560971.282   -31221373.923 7 -23954611.279 7
  18854154.142   -20296223.244 6 -15706620.359 7
  20464377.228   -22159466.686 5 -17063342.711 5
 94  1 29  3 53 29.9890000  0  8 24  9  2  7 12 13  4 26
  20884337.345    -2342172.342 5  -1710751.021 3
  19262210.345   -17211646.633 6 -13194705.615 6
  18814879.032   -14023156.508 7 -10870384.643 7
  18112833.032   -28187780.900 7 -21748120.782 9
  20269438.032    -9358913.607 5  -7089176.042 5
  17548021.259   -31289427.143 7 -24007639.733 7
  18831726.274   -20414073.146 6 -15798451.409 7
  20469390.595   -22133114.783 5 -17042808.759 5
 94  1 29  3 53 59.9890000  0  8 24  9  2  7 12 13  4 26
  20856547.735    -2488182.804 4  -1824525.417 4
  19239999.603   -17328373.408 6 -13285661.540 6
  18815726.673   -14018709.527 6 -10866919.471 7
  18115716.235   -28172630.984 7 -21736315.650 9
  20245125.556    -9486681.481 6  -7188735.410 5
  17535178.704   -31356915.446 7 -24060227.990 7
  18809370.626   -20531556.825 6 -15889997.102 7
  20474456.032   -22106505.430 5 -17022074.206 5
 94  1 29  3 54 29.9890000  0  8 24  9  2  7 12 13  4 26
  20828774.931    -2634126.099 5  -1938247.460 4
  19217852.290   -17444754.250 6 -13376347.921 6
  18816618.774   -14014018.555 7 -10863264.177 7
  18118652.181   -28157199.362 7 -21724291.016 9
  20220833.095    -9614333.112 6  -7288204.203 5
  17522444.884   -31423830.021 7 -24112369.203 7
  18787085.056   -20648666.910 6 -15981251.678 7
  20479564.228   -22079668.649 5 -17001162.445 4
 94  1 29  3 54 59.9890000  0  8 24  9  2  7 12 13  4 26
  20801010.821    -2780008.667 5  -2051922.191 3
  19195775.767   -17560775.528 6 -13466754.106 6
  18817560.923   -14009069.968 7 -10859408.146 7
  18121639.564   -28141510.974 7 -21712066.298 9
  20196564.751    -9741871.284 6  -7387584.569 5
  17509818.735   -31490175.843 7 -24164067.218 7
  18764867.196   -20765418.663 6 -16072227.036 7
  20484709.423   -22052620.083 5 -16980085.647 5
 94  1 29  3 55 29.9890000  0  8 24  9  2  7 12 13  4 26
  20773265.962    -2925828.727 5  -2165548.214 5
  19173760.157   -17676450.358 6 -13556890.337 6
  18818550.775   -14003865.475 7 -10855352.715 7
  18124672.548   -28125572.866 7 -21699647.000 9
  20172316.259    -9869298.597 6  -7486878.572 5
  17497301.665   -31555958.225 7 -24215326.207 7
  18742714.876   -20881832.834 6 -16162939.361 7
  20489894.540   -22025380.508 5 -16958860.017 4
 94  1 29  3 55 59.9890000  0  8 24  9  2  7 12 13  4 26
  20745530.454    -3071586.837 5  -2279125.931 4
  19151818.384   -17791771.927 6 -13646751.261 6
  18819587.267   -13998416.089 6 -10851106.413 7
  18127751.290   -28109387.118 7 -21687034.700 9
  20148089.353    -9996608.596 6  -7586081.119 5
  17484892.243   -31621172.867 7 -24266142.754 7
  18720631.673   -20997886.078 6 -16253370.395 7
  20495115.767   -21997944.292 5 -16937481.130 5
 94  1 29  3 56 29.9890000  0  8 24  9  2  7 12 13  4 26
  20717807.095    -3217279.902 5  -2392653.018 4
  19129939.064   -17906742.412 6 -13736338.654 6
  18820668.032   -13992737.970 6 -10846681.925 7
  18130873.860   -28092981.268 7 -21674250.931 9
  20123884.001   -10123802.288 6  -7685193.074 5
  17472589.837   -31685823.475 7 -24316519.848 7
  18698618.673   -21113565.245 6 -16343509.982 7
  20500373.439   -21970298.245 5 -16915938.785 5
 94  1 29  3 56 59.9890000  0  8 24  9  2  7 12 13  4 26
  20690094.634    -3362887.721 4  -2506113.637 5
  19108126.759   -18021371.184 6 -13825659.769 7
  18821788.290   -13986854.070 6 -10842097.084 7
  18134036.657   -28076363.779 7 -21661302.241 9
  20099702.712   -10250872.742 6  -7784209.000 5
  17460394.306   -31749905.324 7 -24366453.729 6
  18676677.110   -21228862.377 6 -16433351.872 7
  20505681.939   -21942418.707 5 -16894214.491 5
 94  1 29  3 57 29.9890000  0  8 24  9  2  7 12 13  4 26
  20662408.204    -3508397.701 5  -2619498.044 4
  19086375.165   -18135665.100 6 -13914720.001 6
  18822942.525   -13980787.650 6 -10837370.044 7
  18137241.228   -28059517.009 7 -21648174.924 9
  20075548.415   -10377817.667 6  -7883127.124 5
  17448307.439   -31813418.827 7 -24415944.789 7
  18654814.798   -21343755.360 6 -16522878.873 7
  20511035.056   -21914308.666 5 -16872310.628 5
 94  1 29  3 57 59.9890000  0  8 24  9  2  7 12 13  4 26
  20634732.220    -3653819.457 5  -2732813.660 4
  19064687.571   -18249639.498 6 -14003531.181 6
  18824130.720   -13974545.076 6 -10832505.687 7
  18140489.056   -28042451.919 7 -21634877.423 9
  20051413.978   -10504645.176 6  -7981953.721 5
  17436328.517   -31876374.905 7 -24465001.430 6
  18633029.110   -21458238.023 6 -16612086.086 7
  20516420.829   -21885980.356 5 -16850236.616 5
 94  1 29  3 58 29.9890000  0  8 24  9  2  7 12 13  4 26
  20607080.978    -3799132.473 5  -2846044.560 3
  19043060.673   -18363302.810 6 -14092099.995 7
  18825359.017   -13968088.921 6 -10827474.930 7
  18143781.275   -28025149.852 7 -21621395.297 9
  20027301.650   -10631343.840 6  -8080679.929 5
  17424456.290   -31938764.560 7 -24513616.734 7
  18611319.775   -21572310.313 6 -16700973.564 7
  20521853.196   -21857428.031 5 -16827988.067 5
 94  1 29  3 58 59.9890000  0  8 24  9  2  7 12 13  4 26
  20579450.126    -3944349.530 5  -2959200.716 5
  19021487.415   -18476648.530 6 -14180421.364 6
  18826630.071   -13961410.566 6 -10822271.064 7
  18147121.189   -28007594.365 7 -21607715.735 9
  20003216.946   -10757915.762 6  -8179307.436 5
  17412690.485   -32000592.411 7 -24561794.299 6
  18589693.517   -21685971.969 6 -16789541.100 7
  20527329.446   -21828659.928 5 -16805571.401 5
 94  1 29  3 59 29.9890000  0  8 24  9  2  7 12 13  4 26
  20551834.329    -4089478.165 5  -3072287.940 4
  18999983.806   -18589654.514 6 -14268477.963 6
  18827946.423   -13954495.352 6 -10816882.600 7
  18150512.829   -27989777.097 7 -21593832.141 9
  19979157.189   -10884357.544 6  -8277833.472 5
  17401031.993   -32061857.764 7 -24609533.519 7
  18568140.642   -21799228.648 6 -16877793.022 7
  20532844.360   -21799673.216 5 -16782984.361 4
 94  1 29  3 59 59.9890000  0  8 24  9  2  7 12 13  4 26
  20524227.399    -4234526.446 5  -3185312.564 5
  18978545.978   -18702310.367 6 -14356261.758 6
  18829308.103   -13947327.510 6 -10811297.280 7
  18153951.274   -27971706.776 7 -21579751.384 9
  19955121.829   -11010666.063 6  -8376255.692 5
  17389481.134   -32122560.213 7 -24656834.106 7
  18546663.298   -21912098.719 6 -16965743.708 7
  20538401.032   -21770466.080 5 -16760225.563 5
 94  1 29  4  0 29.9890000  0  8 24  9  2  7 12 13  4 26
  20496644.274    -4379491.364 5  -3298272.200 5
  18957177.509   -18814597.264 6
  18830719.376   -13939924.325 6 -10805528.583 7
  18157436.134   -27953388.893 7 -21565477.713 9
  19931111.993   -11136837.865 6  -8474571.370 5
  17378036.478   -32182699.254 7 -24703695.688 6
  18525256.939   -22024581.204 6
  20544005.743   -21741022.138 5 -16737282.255 4
 94  1 29  4  0 59.9890000  0  8 24  9  2  7 12 13  4 26
  20469069.993    -4524380.756 5  -3411172.985 5
  18935885.071   -18926497.171 6 -14530952.758 7
  18832170.548   -13932301.638 6 -10799588.827 7
  18160964.673   -27934832.029 7 -21551017.823 9
  19907127.767   -11262873.063 6  -8572780.610 5
  17366699.017   -32242277.484 7 -24750120.267 6
  18503925.540   -22136679.373 6 -17140741.591 7
  20549653.603   -21711344.395 5 -16714156.733 4
 94  1 29  4  1 29.9890000  0  8 24  9  2  7 12 13  4 26
  20441516.274    -4669173.595 5  -3523998.544 5
  18914667.337   -19038007.156 6
  18833666.493   -13924446.369 6 -10793467.864 7
  18164542.235   -27916035.598 7 -21536371.264 9
  19883169.720   -11388761.159 6  -8670875.229 5
  17355470.681   -32301287.304 7 -24796101.935 6
  18482666.524   -22248385.918 6
  20555342.775   -21681450.338 5 -16690862.673 3
 94  1 29  4  1 59.9890000  0  8 24  9  2  7 12 13  4 26
  20413982.751    -4813868.287 5  -3636747.614 5
  18893519.024   -19149136.012 6
  18835203.595   -13916364.052 6 -10787169.965 7
  18168163.493   -27897008.035 7 -21521544.597 9
  19859243.157   -11514503.500 6  -8768856.256 5
  17344348.306   -32359732.825 7 -24841643.884 6
  18461488.900   -22359679.160 6
  20561068.220   -21651363.961 5 -16667418.756 4
 94  1 29  4  2 29.9890000  0  8 24  9  2  7 12 13  4 26
  20386471.306    -4958449.934 5  -3749408.587 4
  18872447.212   -19259876.010 6
  18836786.915   -13908039.739 6 -10780683.500 7
  18171830.259   -27877742.753 7 -21506532.691 9
  19835343.415   -11640090.990 6  -8866716.628 5
  17333336.259   -32417607.710 7 -24886741.174 6
  18440395.032   -22470529.868 6
  20566828.126   -21621091.923 5 -16643830.155 5
 94  1 29  4  2 59.9890000  0  8 24  9  2  7 12 13  4 26
  20358981.978    -5102933.459 5  -3861993.094 5
  18851444.946   -19370245.056 6
  18838419.001   -13899462.413 6 -10773999.858 7
  18175538.524   -27858255.819 7 -21491348.049 9
  19811473.657   -11765536.192 6  -8964466.093 5
  17322427.610   -32474927.773 7 -24931406.139 6
  18419381.923   -22580951.754 6
  20572613.454   -21590683.488 5 -16620135.254 4
 94  1 29  4  3 29.9890000  0  8 24  9  2  7 12 13  4 26
  20331504.220    -5247310.190 5  -3974494.420 5
  18830514.431   -19480235.437 6
  18840098.517   -13890630.936 6 -10767118.231 7
  18179293.407   -27838534.321 7 -21475980.671 9
  19787632.712   -11890832.139 6  -9062099.327 5
  17311625.657   -32531688.736 7 -24975635.476 6
  18398454.681   -22690925.522 6
  20578425.337   -21560141.199 5 -16596336.103 5
 94  1 29  4  3 59.9890000  0  8 24  9  2  7 12 13  4 26
  20304052.095    -5391582.114 5  -4086914.044 5
  18809658.306   -19589835.667 6
  18841827.993   -13881543.376 6 -10760037.032 7
  18183090.079   -27818577.482 7 -21460429.891 9
  19763816.087   -12015974.496 6  -9159612.845 5
  17300932.485   -32587889.185 7 -25019428.027 6
  18377613.001   -22800452.479 6
  20584266.595   -21529444.780 4 -16572416.826 4
 94  1 29  4  4 29.9890000  0  8 24  9  2  7 12 13  4 26
  20276612.118    -5535755.982 5  -4199257.263 5
  18788875.392   -19699056.960 6
  18843603.618   -13872207.790 6 -10752762.550 7
  18186931.673   -27798396.940 7 -21444704.789 9
  19740029.353   -12140968.386 6  -9257010.672 5
  17290341.884   -32643537.351 7 -25062790.213 6
  18356851.446   -22909556.944 6
  20590137.032   -21498599.913 4 -16548381.859 5
 94  1 29  4  4 59.9890000  0  8 24  9  2  7 12 13  4 26
  20249199.548    -5679812.510 5  -4311509.055 5
  18768162.774   -19807892.202 6
  18845427.392   -13862634.806 6 -10745303.111 7
  18190814.931   -27777988.588 7 -21428802.190 9
  19716276.524   -12265806.499 6  -9354287.127 5
  17279859.071   -32698628.878 7 -25105718.679 7
  18336169.173   -23018235.262 6
  20596035.829   -21467598.224 4 -16524224.736 4
 94  1 29  4  5 29.9890000  0  8 24  9  2  7 12 13  4 26
  20221809.001    -5823739.309 5  -4423659.749 5
  18747525.728   -19916341.040 6 -15302259.628 7
  18847291.439   -13852833.958 6 -10737666.103 7
  18194739.603   -27757363.501 7 -21412730.702 9
  19692547.946   -12390485.260 6  -9451439.405 5
  17269481.587   -32753162.998 7 -25148212.781 7
  18315572.759   -23126485.591 6 -17912019.009 7
  20601969.993   -21436423.052 4 -16499932.397 4
 94  1 29  4  5 59.9890000  0  8 24  9  2  7 12 13  4 26
  20194448.665    -5967515.612 5  -4535693.181 5
  18726959.290   -20024406.700 6 -15386466.620 7
  18849201.353   -13842794.005 6 -10729842.771 7
  18198702.712   -27736542.766 7 -21396506.761 9
  19668854.774   -12514999.860 6  -9548463.760 5
  17259209.696   -32807138.360 7 -25190271.490 6
  18295052.376   -23234318.542 6 -17996044.664 7
  20607935.298   -21405070.910 4 -16475502.169 4
 94  1 29  4  6 29.9890000  0  8 24  9  2  7 12 13  4 26
  20167123.579    -6111130.754 5  -4647601.008 5
  18706467.829   -20132090.908 6 -15470376.357 7
  18851155.650   -13832523.407 6 -10721839.687 7
  18202699.657   -27715530.462 7 -21380133.506 9
  19645191.657   -12639350.497 6  -9645360.334 5
  17249045.142   -32860558.019 7 -25231897.148 6
  18274610.829   -23341733.004 6 -18079744.197 8
  20613931.001   -21373550.351 5 -16450940.683 5
 94  1 29  4  6 59.9890000  0  8 24  9  2  7 12 13  4 26
  20139829.532    -6254572.562 5  -4759373.809 5
  18686051.189   -20239391.205 6 -15553986.974 7
  18853156.228   -13822013.720 6 -10713650.338 7
  18206735.821   -27694321.483 7 -21363607.036 9
  19621559.618   -12763532.856 6  -9742125.803 5
  17238984.806   -32913420.965 7 -25273089.050 6
  18254250.165   -23448728.012 6 -18163116.920 7
  20619963.650   -21341842.923 5 -16426233.618 5
 94  1 29  4  7 29.9890000  0  8 24  9  2  7 12 13  4 26
  20112560.587    -6397856.994 5  -4871023.983 5
  18665702.626   -20346321.816 6 -15637309.524 7
  18855201.189   -13811269.960 6 -10705278.589 7
  18210808.532   -27672914.880 7 -21346926.566 9
  19597961.985   -12887550.523 6  -9838762.922 6
  17229029.642   -32965733.804 7 -25313852.290 6
  18233967.954   -23555312.664 6 -18246169.874 7
  20626034.782   -21309946.814 5 -16401379.522 5
 94  1 29  4  7 59.9890000  0  8 24  9  2  7 12 13  4 26
  20085326.009    -6540990.348 5  -4982556.416 5
  18645425.423   -20452870.321 6 -15720334.330 7
  18857290.212   -13800293.529 6 -10696725.546 7
  18214925.181   -27651286.781 7 -21330073.506 9
  19574393.470   -13011393.736 6  -9935264.114 6
  17219180.704   -33017489.852 7 -25354181.661 6
  18213766.915   -23661475.321 6 -18328894.008 7
  20632145.657   -21277856.670 5 -16376374.232 5
 94  1 29  4  8 29.9890000  0  8 24  9  2  7 12 13  4 26
  20058108.376    -6683995.888 5  -5093989.264 5
  18625222.446   -20559041.234 6 -15803064.908 7
  18859422.790   -13789090.807 6 -10687996.163 7
  18219084.845   -27629421.714 7 -21313035.798 9
  19550862.267   -13135056.997 6 -10031625.088 6
  17209438.806   -33068687.229 7 -25394075.711 6
  18193651.399   -23767186.756 6 -18411266.532 8
  20638289.798   -21245565.385 5 -16351212.213 5
 94  1 29  4  8 59.9890000  0  8 24  9  2  7 12 13  4 26
  20030918.751    -6826882.711 5  -5205329.612 5
  18605090.814   -20664839.051 6 -15885504.761 7
  18861597.517   -13777662.470 6 -10679090.984 7
  18223286.587   -27607334.008 7 -21295824.603 9
  19527364.946   -13258538.971 6 -10127844.798 6
  17199801.407   -33119327.535 7 -25433535.689 6
  18173621.407   -23872431.978 6 -18493275.776 8
  20644465.001   -21213084.543 5 -16325902.487 5
 94  1 29  4  9 29.9890000  0  8 24  9  2  7 12 13  4 26
  20003752.204    -6969672.126 5  -5316594.088 5
  18585027.962   -20770258.987 6 -15967650.204 7
  18863813.517   -13766028.529 6 -10670025.623 6
  18227529.462   -27585039.458 7 -21278452.271 9
  19503900.767   -13381847.296 6 -10223929.245 6
  17190269.282   -33169421.776 7 -25472570.187 6
  18153685.439   -23977204.176 6 -18574916.479 8
  20650677.220   -21180459.880 5 -16300480.739 5
 94  1 29  4  9 59.9890000  0  8 24  9  2  7 12 13  4 26
  19976598.392    -7112352.075 5  -5427773.217 5
  18565045.845   -20875281.379 6 -16049485.824 7
  18866068.118   -13754177.622 6 -10660791.156 6
  18231811.642   -27562540.075 7 -21260920.280 9
  19480469.314   -13504972.436 6 -10319870.900 6
  17180841.774   -33218963.708 7 -25511174.272 6
  18133837.665   -24081496.238 6 -18656182.997 8
  20656911.868   -21147710.538 5 -16274961.789 5
 94  1 29  4 10 29.9890000  0  8 24  9  2  7 12 13  4 26
  19949471.196    -7254905.054 5  -5538853.424 5
  18545134.024   -20979908.421 6 -16131013.390 7
  18868363.712   -13742101.591 6 -10651381.268 7
  18236130.384   -27539847.520 7 -21243237.776 9
  19457073.337   -13627912.824 6 -10415668.597 6
  17171519.243   -33267955.080 7 -25549349.362 6
  18114086.798   -24185305.688 6 -18737073.463 8
  20663160.579   -21114862.175 5 -16249365.669 5
 94  1 29  4 10 59.9890000  0  8 24  9  2  7 12 13  4 26
  19922369.517    -7397304.218 5  -5649813.777 5
  18525304.681   -21084117.647 6 -16212215.379 7
  18870706.618   -13729795.320 6 -10641791.980 7
  18240486.837   -27516954.576 7 -21225399.117 9
  19433716.626   -13750662.891 6 -10511318.001 6
  17162301.759   -33316393.771 7 -25587093.787 6
  18094417.306   -24288649.696 6 -18817601.247 8
  20669424.384   -21081934.670 4 -16223707.908 5
 94  1 29  4 11 29.9890000  0  8 24  9  2  7 12 13  4 26
  19895306.712    -7539548.843 5  -5760653.717 5
  18505553.767   -21187906.153 6 -16293089.548 7
  18873088.259   -13717268.252 6 -10632030.645 7
  18244883.212   -27493856.278 7 -21207400.458 9
  19410392.634   -13873229.386 6 -10606824.357 6
  17153188.407   -33364289.858 7 -25624415.410 6
  18074837.689   -24391548.384 6 -18897782.038 8
  20675702.618   -21048933.023 4 -16197992.374 4
 94  1 29  4 11 59.9890000  0  8 24  9  2  7 12 13  4 26
  19868268.470    -7681614.850 5  -5871354.452 5
  18485884.985   -21291271.481 6 -16373633.951 7
  18875516.298   -13704506.278 6 -10622086.252 6
  18249315.782   -27470558.027 7 -21189245.988 9
  19387107.220   -13995608.426 6 -10702184.640 6
  17144175.189   -33411642.949 7 -25661313.910 6
  18055341.228   -24493997.795 6 -18977612.729 8
  20682005.907   -21015831.643 4 -16172199.098 4
 94  1 29  4 12 29.9880000  0  8 24  9  2  7 12 13  4 26
  19841272.801    -7823487.175 5  -5981904.257 5
  18466297.567   -21394196.713 6 -16453835.393 7
  18877994.457   -13691495.698 6 -10611948.121 7
  18253788.207   -27447060.172 7 -21170935.944 9
  19363855.035   -14117786.857 6 -10797388.578 6
  17135269.113   -33458445.724 7 -25697783.562 6
  18035935.645   -24595979.591 6 -19057079.021 8
  20688331.981   -20982595.674 4 -16146300.918 4
 94  1 29  4 12 59.9880000  0  8 24  9  2  7 12 13  4 26
  19814304.684    -7965196.069 5  -6092326.731 5
  18446793.746   -21496688.927 6 -16533699.456 7
  18880517.113   -13678248.365 6 -10601625.539 7
  18258294.410   -27423369.974 7 -21152476.057 9
  19340639.660   -14239789.389 6 -10892455.493 6
  17126465.512   -33504721.468 7 -25733842.581 7
  18016615.301   -24697513.590 6 -19136196.417 8
  20694684.598   -20949201.048 4 -16120279.153 4
 94  1 29  4 13 29.9880000  0  8 24  9  2  7 12 13  4 26
  19787378.051    -8106709.207 5  -6202596.670 5
  18427381.371   -21598716.673 6 -16613201.601 8
  18883088.473   -13664728.687 6 -10591090.743 7
  18262843.481   -27399469.230 7 -21133852.107 9
  19317462.606   -14361581.593 6 -10987358.502 6
  17117763.746   -33550441.799 7 -25769468.808 6
  17997386.129   -24798558.964 6 -19214933.054 8
  20701076.496   -20915610.072 4 -16094104.369 4
 94  1 29  4 13 59.9880000  0  8 24  9  2  7 12 13  4 26
  19760483.684    -8248039.171 5  -6312723.884 5
  18408050.254   -21700290.705 6 -16692350.197 8
  18885710.074   -13650939.347 6 -10580345.810 6
  18267427.270   -27375379.821 7 -21115081.140 9
  19294325.598   -14483172.270 6 -11082104.473 6
  17109166.395   -33595618.862 7 -25804671.707 6
  17978250.770   -24899122.662 6 -19293294.371 8
  20707503.059   -20881838.825 3 -16067789.140 4
 94  1 29  4 14 29.9880000  0  8 24  9  2  7 12 13  4 26
  19733618.715    -8389197.629 5  -6422717.440 5
  18388806.816   -21801412.847 6 -16771146.667 7
  18888387.231   -13636888.003 6 -10569396.731 7
  18272047.981   -27351091.316 7 -21096155.032 9
  19271225.738   -14604558.678 6 -11176691.276 6
  17100673.496   -33640253.630 7 -25839452.041 7
  17959204.277   -24999208.524 6 -19371283.341 8
  20713957.731   -20847915.349 3 -16041355.262 3
 94  1 29  4 14 59.9880000  0  8 24  9  2  7 12 13  4 26
  19706792.582    -8530185.721 5  -6532578.253 5
  18369650.606   -21902094.277 6 -16849599.730 7
  18891107.910   -13622581.293 6 -10558248.656 6
  18276707.770   -27326609.594 7 -21077078.373 9
  19248166.067   -14725741.147 6 -11271119.165 6
  17092280.957   -33684349.920 7 -25873812.785 6
  17940246.067   -25098823.735 6 -19448905.573 8
  20720435.152   -20813886.687 3 -16014839.429 2
 94  1 29  4 15 29.9880000  0  8 24  9  2  7 12 13  4 26
  19679999.434    -8671000.004 5  -6642303.637 5
  18350569.926   -22002348.429 6 -16927719.840 7
  18893879.215   -13608025.824 6 -10546906.753 7
  18281396.332   -27301970.455 7 -21057879.046 9
  19225144.387   -14846717.804 6 -11365386.695 6
  17083992.934   -33727909.510 7 -25907755.316 6
  17921379.317   -25197982.591 6 -19526172.202 8
  20726923.317   -20779795.560 4 -15988274.926 3
 94  1 29  4 15 59.9880000  0  8 24  9  2  7 12 13  4 26
  19653234.145    -8811641.974 5  -6751894.730 5
  18331574.629   -22102175.537 6 -17005507.197 7
  18896693.668   -13593231.196 6 -10535378.490 7
  18286114.434   -27277178.630 7 -21038560.746 9
  19202162.113   -14967484.292 6 -11459490.440 6
  17075806.168   -33770931.695 7 -25941279.089 6
  17902598.981   -25296681.367 6 -19603080.327 8
  20733419.488   -20745645.243 3 -15961664.303 3
 94  1 29  4 16 29.9880000  0  8 24  9  2  7 12 13  4 26
  19626500.223    -8952117.769 5  -6861356.345 5
  18312657.371   -22201583.234 6 -17082967.745 7
  18899553.895   -13578204.583 6 -10523669.451 6
  18290860.910   -27252233.488 7 -21019122.978 9
  19179223.137   -15088036.031 6 -11553426.862 6
  17067723.277   -33813415.396 7 -25974383.263 6
  17883902.160   -25394917.577 6 -19679628.006 8
  20739928.434   -20711436.303 4 -15935007.994 3
 94  1 29  4 16 59.9880000  0  8 24  9  2  7 12 13  4 26
  19599805.481    -9092415.652 5  -6970679.334 6
  18293820.746   -22300571.553 6 -17160101.491 7
  18902455.699   -13562942.333 6 -10511776.798 7
  18295635.762   -27227142.848 7 -20999571.833 9
  19156324.981   -15208369.303 6 -11647193.046 6
  17059740.059   -33855360.772 7 -26007067.962 6
  17865297.621   -25492676.324 6 -19755803.640 8
  20746455.910   -20677139.854 4 -15908283.523 2
 94  1 29  4 17 29.9880000  0  8 24  9  2  7 12 13  4 26
  19573142.535    -9232535.625 5  -7079863.704 5
  18275063.035   -22399140.087 6 -17236908.177 7
  18905404.262   -13547460.520 6 -10499713.098 6
  18300439.199   -27201901.135 7 -20979903.000 8
  19133465.840   -15328485.591 6 -11740790.184 6
  17051859.832   -33896772.930 7 -26039337.201 6
  17846788.840   -25589955.270 6 -19831605.432 8
  20753004.238   -20642737.919 4 -15881476.867 4
 94  1 29  4 17 59.9880000  0  8 24  9  2  7 12 13  4 26
  19546506.645    -9372480.715 5  -7188911.784 6
  18256386.191   -22497292.884 6 -17313390.869 7
  18908392.223   -13531759.698 6 -10487478.712 6
  18305278.629   -27176472.755 7 -20960088.675 8
  19110651.332   -15448381.030 6 -11834215.184 6
  17044078.777   -33937651.760 7 -26071190.826 6
  17828371.949   -25686735.613 6 -19907018.667 8
  20759569.715   -20608217.425 4 -15854577.798 4
 94  1 29  4 18 29.9880000  0  8 24  9  2  7 12 13  4  5
  19519915.293    -9512247.537 5  -7297820.953 6
  18237787.504   -22595030.261 6 -17389549.871 7
  18911422.395   -13515825.447 6 -10475062.428 6
  18310154.988   -27150851.733 7 -20940124.242 8
  19087876.887   -15568059.337 6 -11927470.999 6
  17036401.645   -33978004.685 7 -26102634.660 6
  17810051.246   -25783012.024 6 -19982039.234 8
  20739530.285          -0.64014
 94  1 29  4 18 59.9880000  0  8 24  9  2  7 12 13  4  5
  19493355.113    -9651808.570 5  -7406569.767 6
  18219270.863   -22692330.265 6 -17465368.044 8
  18914502.621   -13499643.757 6 -10462453.333 6
  18315066.902   -27125035.686 7 -20920007.858 8
  19065145.731   -15687518.674 6 -12020556.195 6
  17028822.152   -34017833.723 7 -26133670.279 6
  17791827.457   -25878782.479 6 -20056665.552 8
  20716948.106     -118651.703 4
 94  1 29  4 19 29.9880000  0  8 24  9  2  7 12 13  4  5
  19466835.106    -9791155.782 5  -7515151.974 6
  18200842.629   -22789175.703 6 -17540832.018 8
  18917632.191   -13483204.582 6 -10449643.598 6
  18320018.442   -27099009.355 7 -20899727.603 8
  19042454.902   -15806747.530 6 -12113461.793 6
  17021343.824   -34057131.384 7 -26164291.822 6
  17773697.207   -25974051.722 6 -20130901.316 8
  20694376.418     -237295.684 4        -0.19513
 94  1 29  4 19 59.9880000  0  8 24  9  2  7 12 13  4  5
  19440361.332    -9930298.247 5  -7623574.630 6
  18182497.895   -22885571.171 6 -17615945.374 8
  18920811.535   -13466494.792 6 -10436622.993 6
  18325009.223   -27072786.994 7 -20879294.595 8
  19019812.012   -15925748.806 6 -12206190.059 6
  17013964.824   -34095904.080 7 -26194504.305 6
  17755665.652   -26068817.677 6 -20204744.903 8
  20671794.598     -355954.567 4    -92461.622 4
 94  1 29  4 20 29.9880000  0  8 24  9  2  7 12 13  4  5
  19413920.676   -10069228.549 5  -7731831.980 6
  18164243.777   -22981505.921 6 -17690699.726 8
  18924039.363   -13449520.025 6 -10423395.919 6
  18330031.512   -27046395.739 7 -20858729.980 8
  18997207.621   -16044523.732 6
  17006685.981   -34134157.027 7 -26224311.795 6
  17737725.309   -26163092.602 6 -20278205.874 8
  20649208.020     -474658.352 4
 94  1 29  4 20 59.9880000  0  8 24  9  2  7 12 13  4  5
  19387522.887   -10207944.003 5  -7839921.907 5
  18146076.879   -23076975.743 6 -17765091.793 8
  18927319.301   -13432300.404 6 -10409978.042 6
  18335084.238   -27019842.504 6 -20838039.152 8
  18974652.191   -16163060.685 6 -12391108.409 6
  16999506.895   -34171882.537 7 -26253708.288 6
  17719877.598   -26256878.394 6 -20351285.700 8
  20626607.840     -593402.671 4
 94  1 29  4 21 29.9880000  0  8 24  9  2  7 12 13  4  5
  19361166.465   -10346461.993 5  -7947857.972 6
  18127994.879   -23171996.656 6 -17839134.063 8
  18930636.645   -13414850.880 6 -10396381.025 6
  18340167.051   -26993133.347 6 -20817226.829 8
  18952142.988   -16281355.634 6 -12483286.295 6
  16992428.840   -34209080.263 7 -26282693.518 6
  17702123.387   -26350171.808 6 -20423981.857 8
  20604005.012     -712182.082 4   -242655.945 4
 94  1 29  4 21 59.9880000  0  8 24  9  2  7 12 13  4  5
  19334841.192   -10484790.944 5  -8055646.741 6
  18109997.691   -23266568.153 6 -17912826.141 8
  18933999.293   -13397184.836 6 -10382615.299 6
  18345273.652   -26966289.100 6 -20796309.234 8
  18929675.621   -16399416.427 6 -12575281.717 6
  16985448.856   -34245762.226 7 -26311276.862 6
  17684463.746   -26442970.677 6 -20496292.646 8
  20581403.067     -830984.785 4   -335229.464 4
 94  1 29  4 22 29.9880000  0  8 24  9  2  7 12 13  4  5
  19308557.488   -10622913.831 5  -8163274.929 6
  18092087.645   -23360685.446 6 -17986164.288 8
  18937400.027   -13379313.040 6 -10368689.221 6
  18350406.473   -26939316.851 6 -20775291.893 8
  18907251.965   -16517244.738 6 -12667095.970 6
  16978566.254   -34281934.022 7 -26339462.668 6
  17666900.785   -26535280.858 7 -20568222.644 8
  20558788.895     -949792.103 4   -427806.578 5
 94  1 29  4 22 59.9880000  0  8 24  9  2  7 12 13  4  5
  19282317.863   -10760814.444 5  -8270729.931 6
  18074263.895   -23454339.623 6 -18059141.570 8
  18940845.020   -13361215.595 6 -10354587.339 6
  18355567.832   -26912195.752 6 -20754158.564 8
  18884876.731   -16634826.356 6 -12758718.022 6
  16971781.481   -34317585.180 7 -26367242.794 6
  17649432.051   -26627078.129 6 -20639752.970 8
  20536182.840    -1068582.212 4   -520370.284 5
 94  1 29  4 23 29.9880000  0  8 24  9  2  7 12 13  4  5
  19256119.152   -10898480.522 5  -8378002.170 6
  18056533.606   -23547526.602 6 -18131754.806 8
  18944336.074   -13342872.026 6 -10340293.664 6
  18360758.692   -26884916.411 6 -20732901.949 8
  18862551.449   -16752158.805 6 -12850145.889 6
  16965095.324   -34352717.448 7 -26394618.580 6
  17632061.715   -26718351.833 6 -20710875.327 8
  20513583.160    -1187361.365 4   -612925.472 5
 94  1 29  4 23 59.9880000  0  8 24  9  2  7 12 13  4  5
  19229970.152   -11035903.530 6  -8485085.018 6
  18038891.027   -23640247.139 6 -18204004.572 8
  18947873.856   -13324273.510 6 -10325801.329 6
  18365981.910   -26857482.897 6 -20711525.200 8
  18840268.668   -16869242.544 6 -12941379.963 6
  16958508.090   -34387335.082 7 -26421593.354 6
  17614790.192   -26809105.845 6 -20781592.730 8
  20490977.582    -1306147.492 4   -705486.073 4
 94  1 29  4 24 29.9880000  0  8 24  9  2  7 12 13  4  5
  19203866.637   -11173076.885 5  -8591973.317 6
  18021331.363   -23732516.531 6 -18275902.803 8
  18951462.707   -13305421.632 6 -10311111.571 6
  18371231.098   -26829892.518 6 -20690026.200 8
  18818037.527   -16986074.737 6 -13032418.036 7
  16952018.441   -34421439.559 7 -26448168.270 6
  17597620.848   -26899343.873 6 -20851908.058 8
  20468368.941    -1424971.013 4   -798075.800 4
 94  1 29  4 24 59.9880000  0  8 24  9  2  7 12 13  4  5
  19177809.582   -11310015.578 5  -8698678.755 6
  18003859.871   -23824333.830 6 -18347448.729 8
  18955093.692   -13286332.007 6 -10296236.529 6
  18376507.402   -26802158.466 6 -20668415.231 8
  18795852.137   -17102659.871 6 -13123263.579 6
  16945622.918   -34455039.409 7 -26474349.941 6
  17580542.129   -26989083.697 6 -20921835.164 8
  20445745.598    -1543849.087 5   -890708.029 4
 94  1 29  4 25 29.9880000  0  8 24  9  2  7 12 13  4  5
  19151797.824   -11446717.509 6  -8805199.722 6
  17986474.934   -23915684.134 6 -18418630.784 8
  18958772.043   -13266998.623 6 -10281171.564 6
  18381813.691   -26774283.914 6 -20646694.800 8
  18773716.785   -17218987.756 6 -13213908.668 7
  16939327.293   -34488128.274 7 -26500133.460 6
  17563559.192   -27078332.551 7 -20991379.708 8
  20423117.707    -1662769.338 4   -983373.161 5
 94  1 29  4 25 59.9880000  0  8 24  9  2  7 12 13  4  5
  19125827.106   -11583174.804 6  -8911530.059 6
  17969184.145   -24006550.043 6 -18489435.380 8
  18962499.949   -13247427.249 6 -10265921.160 6
  18387142.637   -26746271.876 6 -20624867.243 8
  18751627.387   -17335055.805 6 -13304351.313 7
  16933127.895   -34520708.104 7 -26525520.344 6
  17546671.902   -27167092.924 7 -21060543.627 8
  20400481.465    -1781723.137 4  -1076064.399 5
 94  1 29  4 26 29.9880000  0  8 24  9  2  7 12 13  4  5
  19099904.254   -11719400.989 6  -9017680.355 6
  17951986.957   -24096927.501 6 -18559859.421 8
  18966264.902   -13227634.158 6 -10250498.025 6
  18392497.152   -26718129.135 6 -20602937.866 8
  18729588.504   -17450876.061 6 -13394600.908 7
  16927022.817   -34552794.512 7 -26550522.758 6
  17529871.535   -27255369.103 7 -21129330.281 8
  20377834.574    -1900705.415 4  -1168777.885 5
 94  1 29  4 26 59.9880000  0  8 24  9  2  7 12 13  4  5
  19074026.973   -11855385.958 6  -9123642.652 6
  17934886.488   -24186788.437 6 -18629880.925 8
  18970081.965   -13207580.589 6 -10234871.880 6
  18397882.645   -26689833.351 6 -20580889.201 8
  18707597.981   -17566424.554 6 -13484638.686 7
  16921013.996   -34584368.022 7 -26575125.476 6
  17513170.223   -27343130.180 7 -21197715.522 8
  20355198.832    -2019665.534 3  -1261474.058 5
 94  1 29  4 27 29.9880000  0  8 24  9  2  7 12 13  4  5
  19048191.606   -11991149.370 5  -9229432.282 6
  17917877.160   -24276166.854 6 -18699526.410 8
  18973944.371   -13187276.245 6 -10219050.313 6
  18403295.668   -26661388.429 6 -20558724.306 8
  18685659.824   -17681717.395 6 -13574477.230 7
  16915099.215   -34615448.821 7 -26599344.251 6
  17496571.918   -27430360.387 7 -21265687.070 8
  20332561.699    -2138625.314 5  -1354169.961 5
 94  1 29  4 27 59.9880000  0  8 24  9  2  7 12 13  4  5
  19022403.801   -12126672.206 6  -9335034.478 6
  17900966.371   -24365048.999 6 -18768785.236 8
  18977857.199   -13166705.995 6 -10203021.564 6
  18408741.777   -26632767.172 6 -20536422.033 8
  18663774.691   -17796733.218 6 -13664099.928 7
  16909282.637   -34646019.606 7 -26623165.626 6
  17480080.902   -27517007.154 7 -21333204.021 8
  20309928.410    -2257572.972 4  -1446856.432 5
 94  1 29  4 28 29.9880000  0  8 24  9  2  7 12 13  4  5
  18996654.004   -12261981.581 6  -9440470.342 6
  17884136.731   -24453473.957 6 -18837687.797 8
  18981820.418   -13145882.713 6 -10186795.647 6
  18414217.137   -26603994.735 6 -20514001.963 8
  18641936.621   -17911483.785 6 -13753515.959 7
  16903559.012   -34676096.480 7 -26646602.151 6
  17463705.184   -27603076.136 7 -21400270.752 8
  20287291.942    -2376524.368 4  -1539545.812 4
 94  1 29  4 28 59.9880000  0  8 24  9  2  7 12 13  4  5
  18970946.621   -12397072.888 6  -9545736.279 6
  17867396.934   -24541454.918 6 -18906244.394 8
  18985831.020   -13124813.105 6 -10170377.795 6
  18419719.887   -26575077.545 6 -20491469.084 8
  18620152.879   -18025965.322 6 -13842722.338 7
  16897929.137   -34705679.774 7 -26669654.061 6
  17447434.801   -27688571.582 7 -21466890.571 8
  20264656.621    -2495491.985 4  -1632247.837 5
 94  1 29  4 29 29.9880000  0  8 24  9  2  7 12 13  4  5
  18945283.090   -12531933.340 6  -9650822.333 6
  17850739.770   -24628988.369 6 -18974452.283 8
  18989880.926   -13103513.897 6 -10153781.024 6
  18425249.145   -26546019.448 6 -20468826.428 8
  18598420.723   -18140173.777 6 -13931715.943 7
  16892393.512   -34734769.805 7 -26692321.614 6
  17431272.832   -27773504.353 7 -21533071.940 8
  20242006.707    -2614496.507 5  -1724978.613 5
 94  1 29  4 29 59.9880000  0  8 24  9  2  7 12 13  4  5
  18919666.809   -12666552.108 6  -9755720.065 6
  17834169.277   -24716058.713 6 -19042299.303 8
  18993980.754   -13081979.307 6 -10137000.842 6
  18430804.191   -26516833.048 6 -20446083.791 8
  18576738.926   -18254101.457 6 -14020490.756 7
  16886952.809   -34763363.155 7 -26714602.142 6
  17415212.965   -27857910.618 7 -21598843.037 8
  20219357.660    -2733524.126 5  -1817727.400 5
 94  1 29  4 30 29.9880000  0  8 24  9  2  7 12 13  4  5
  18894096.715   -12800919.505 6  -9860421.919 6
  17817688.801   -24802656.335 6 -19109777.977 8
  18998126.191   -13060200.526 6 -10120030.374 6
  18436382.973   -26487517.500 6 -20423240.501 7
  18555117.215   -18367742.673 6 -14109042.347 7
  16881605.879   -34791458.331 7 -26736494.486 6
  17399243.668   -27941826.194 7 -21664231.796 8
  20196702.715    -2852561.622 5  -1910483.869 5
 94  1 29  4 30 59.9880000  0  8 24  9  2  7 12 13  4  5
  18868577.496   -12935035.949 6  -9964928.230 6
  17801305.973   -24888772.528 6 -19176881.499 8
  19002314.191   -13038202.470 6 -10102889.052 6
  18441984.434   -26458077.074 6 -20400299.910 8
  18533542.082   -18481108.974 6 -14197379.725 7
  16876351.426   -34819071.199 7 -26758011.005 6
  17383361.770   -28025275.332 7 -21729257.088 8
  20174048.660    -2971613.620 4  -2003251.656 5
 94  1 29  4 31 29.9880000  0  8 24  9  2  7 12 13  4  5
  18843105.020   -13068878.892 6 -10069221.423 6
  17785013.660   -24974376.292 6 -19243585.741 8
  19006544.715   -13015967.391 6 -10085563.034 6
  18447611.965   -26428501.489 6 -20377253.998 8
  18512024.387   -18594184.033 6 -14285490.153 7
  16871191.285   -34846189.628 7 -26779142.244 6
  17367574.184   -28108240.417 7 -21793905.197 8
  20151400.598    -3090642.865 4  -2096001.702 5
 94  1 29  4 31 59.9880000  0  8 24  9  2  7 12 13  4  5
  18817690.777   -13202445.456 6 -10173299.250 6
  17768820.324   -25059464.065 6 -19309887.904 8
  19010818.941   -12993498.391 5 -10068054.747 6
  18453264.832   -26398797.597 6 -20354108.109 8
  18490560.035   -18706971.707 6 -14373376.657 7
  16866122.621   -34872821.879 7 -26799894.642 6
  17351881.473   -28190714.494 7 -21858170.703 8
  20128753.840    -3209634.952 5  -2188722.783 5
 94  1 29  4 32 29.9880000  0  8 24  9  2  7 12 13  4  5
  18792328.012   -13335730.704 6 -10277157.869 6
  17752731.754   -25144021.993 6 -19375777.195 8
  19015141.668   -12970793.467 6 -10050362.613 6
  18458943.746   -26368958.271 6 -20330856.702 8
  18469152.996   -18819462.702 6 -14461031.964 7
  16861149.027   -34898962.944 7 -26820264.298 6
  17336286.059   -28272656.839 7 -21922021.871 8
  20106118.973    -3328580.087 4  -2281407.265 5
 94  1 29  4 32 59.9870000  0  8 24  9  2  7 12 13  4  5
  18767016.374   -13468739.367 6 -10380800.964 6
  17736740.093   -25228061.833 6 -19441262.798 8
  19019504.038   -12947865.583 6 -10032496.754 6
  18464640.265   -26339016.265 6 -20307525.271 7
  18447803.210   -18931664.621 6 -14548462.026 7
  16856264.358   -34924627.820 7 -26840262.906 6
  17320799.577   -28354043.102 7 -21985439.730 8
  20083495.398    -3447494.739 5  -2374068.034 5
 94  1 29  4 33 29.9870000  0  8 24  9  2  7 12 13  4  5
  18741752.710   -13601482.625 6 -10484237.291 6
  17720843.460   -25311585.073 6 -19506345.882 8
  19023913.358   -12924686.689 5 -10014435.320 6
  18470357.663   -26308976.477 6 -20284117.682 7
  18426508.827   -19043574.056 6 -14635664.216 7
  16851471.796   -34949811.553 7 -26859886.619 6
  17305421.601   -28434860.736 7 -22048414.529 8
  20060865.655    -3566400.661 5  -2466722.015 5
 94  1 29  4 33 59.9870000  0  8 24  9  2  7 12 13  4  5
  18716544.241   -13733967.914 6 -10587472.566 6
  17705045.296   -25394603.881 6 -19571035.859 8
  19028371.148   -12901253.990 5  -9996176.077 6
  18476091.679   -26278843.298 6 -20260637.277 7
  18405269.593   -19155186.468 6 -14722634.905 7
  16846771.226   -34974516.847 7 -26879137.482 6
  17290150.773   -28515108.897 6 -22110945.548 8
  20038236.616    -3685318.997 5  -2559385.621 5
 94  1 29  4 34 29.9870000  0  8 24  9  2  7 12 13  4  5
  18691381.007   -13866200.241 6 -10690510.699 6
  17689340.812   -25477132.169 6 -19635343.599 8
  19032881.148   -12877565.385 5  -9977717.414 6
  18481842.093   -26248620.549 6 -20237087.050 7
  18384084.101   -19266503.759 6 -14809375.618 7
  16842160.538   -34998750.035 7 -26898020.459 6
  17274986.796   -28594800.273 7 -22173042.683 9
  20015603.530    -3804260.471 5  -2652067.243 5
 94  1 29  4 34 59.9870000  0  8 24  9  2  7 12 13  4  5
  18666268.116   -13998171.145 6 -10793345.154 6
  17673730.601   -25559170.765 6 -19699269.787 8
  19037439.819   -12853619.103 5  -9959057.997 6
  18487612.202   -26218298.121 6 -20213459.197 7
  18362958.515   -19377521.098 6 -14895882.646 7
  16837638.077   -35022510.738 7 -26916535.294 6
  17259923.773   -28673941.482 7 -22234711.147 9
  19992965.234    -3923236.863 5  -2744776.122 5
 94  1 29  4 35 29.9870000  0  8 24  9  2  7 12 13  4  5
  18641208.929   -14129868.155 6 -10895966.192 6
  17658214.210   -25640718.406 6 -19762813.397 8
  19042042.702   -12829418.016 5  -9940200.031 6
  18493405.054   -26187858.023 6 -20189739.653 7
  18341890.530   -19488235.718 6 -14982153.780 7
  16833206.757   -35045800.591 7 -26934683.237 6
  17244965.937   -28752546.051 7 -22295961.450 9
  19970315.046    -4042247.256 5  -2837511.464 5
 94  1 29  4 35 59.9870000  0  8 24  9  2  7 12 13  4  5
  18616201.062   -14261267.368 6 -10998355.161 6
  17642790.405   -25721776.903 6 -19825975.873 8
  19046695.929   -12804967.529 5  -9921147.715 6
  18499224.038   -26157281.883 6 -20165914.089 7
  18320882.530   -19598638.746 6 -15068182.110 7
  16828864.812   -35068615.444 7 -26952461.041 6
  17230110.273   -28830604.122 7 -22356785.908 9
  19947672.999    -4161256.350 5  -2930245.826 5
 94  1 29  4 36 29.9870000  0  8 24  9  2  7 12 13  4  5
  18591257.960   -14392353.763 6 -11100500.399 6
  17627459.398   -25802332.885 6 -19888746.782 8
  19051395.554   -12780277.109 5  -9901908.458 6
  18505069.874   -26126565.928 6 -20141979.581 7
  18299931.437   -19708729.104 6 -15153966.809 7
  16824613.359   -35090958.207 7 -26969870.983 6
  17215363.077   -28908108.756 6 -22417179.118 9
  19925025.694    -4280267.262 5  -3022981.602 5
 94  1 29  4 36 59.9870000  0  8 24  9  2  7 12 13  4  5
  18566377.679   -14523110.091 6 -11202388.431 6
  17612228.030   -25882370.722 6 -19951113.919 8
  19056138.351   -12755344.413 5  -9882480.394 6
  18510942.624   -26095696.930 6 -20117925.815 7
  18279045.523   -19818493.719 6 -15239497.674 7
  16820454.460   -35112820.551 7 -26986906.566 6
  17200723.288   -28985039.770 6 -22477125.356 9
  19902374.452    -4399279.341 5  -3115718.285 5
 94  1 29  4 37 29.9870000  0  8 24  9  2  7 12 13  4  5
  18541554.601   -14653541.656 6 -11304023.406 6
  17597097.030   -25961895.951 6 -20013081.625 8
  19060927.523   -12730173.121 5  -9862866.428 5
  18516845.304   -26064682.427 6 -20093758.679 7
  18258217.976   -19927938.431 6 -15324779.273 7
  16816381.890   -35134212.851 7 -27003575.894 6
  17186189.210   -29061413.439 6 -22536637.290 8
  19879731.741    -4518283.988 5  -3208449.160 5
 94  1 29  4 37 59.9870000  0  8 24  9  2  7 12 13  4  5
  18516794.835   -14783659.123 6 -11405413.640 6
  17582060.265   -26040901.155 6 -20074644.135 8
  19065763.491   -12704764.462 5  -9843067.519 5
  18522771.718   -26033537.656 6 -20069490.059 7
  18237453.843   -20037065.488 6 -15409813.366 7
  16812399.226   -35155141.626 7 -27019884.039 6
  17171762.882   -29137236.012 6 -22595719.816 9
  19857083.148    -4637285.128 5  -3301177.325 4
 94  1 29  4 38 29.9870000  0  8 24  9  2  7 12 13  4  5
  18492092.952   -14913474.318 6 -11506568.309 7
  17567127.374   -26119372.496 6 -20135790.617 8
  19070646.640   -12679110.696 5  -9823077.576 6
  18528722.577   -26002263.595 6 -20045120.654 7
  18216745.609   -20145875.208 6 -15494600.138 7
  16808504.476   -35175611.938 7 -27035834.924 7
  17157439.030   -29212511.857 6 -22654376.287 9
  19834433.671    -4756304.365 5  -3393919.588 5
 94  1 29  4 38 59.9870000  0  8 24  9  2  7 12 13  4  5
  18467443.835   -15043000.848 6 -11607498.055 7
  17552295.944   -26197314.159 6 -20196524.380 8
  19075573.765   -12653208.842 5  -9802894.332 6
  18534697.257   -25970877.006 6 -20020663.572 7
  18196100.007   -20254365.788 6 -15579138.247 7
  16804696.054   -35195626.317 7 -27051430.533 7
  17143217.468   -29287244.213 6 -22712609.270 9
  19811788.608    -4875319.227 5  -3486658.417 5
 94  1 29  4 39 29.9870000  0  8 24  9  2  7 12 13  4  5
  18442850.819   -15172242.524 6 -11708205.839 7
  17537563.890   -26274719.857 6 -20256840.517 8
  19080552.101   -12627051.540 5  -9782512.042 5
  18540686.554   -25939392.795 6 -19996130.415 7
  18175516.679   -20362530.284 6 -15663422.272 7
  16800974.655   -35215182.532 7 -27066669.146 7
  17129103.898   -29361424.297 6 -22770411.924 9
  19789145.046    -4994319.820 5  -3579386.155 5
 94  1 29  4 39 59.9870000  0  8 24  9  2  7 12 13  4  5
  18418312.358   -15301195.773 6 -11808688.899 6
  17522937.452   -26351589.246 6 -20316738.775 8
  19085577.702   -12600643.109 5  -9761934.090 5
  18546695.538   -25907812.416 6 -19971522.366 7
  18154999.655   -20470363.676 6 -15747448.327 7
  16797339.765   -35234279.897 7 -27081550.222 6
  17115096.796   -29435024.688 6 -22827762.895 9
  19766498.562    -5113310.107 5  -3672105.888 5
 94  1 29  4 40 29.9870000  0  8 24  9  2  7 12 13  4  5
  18393826.694   -15429867.821 6 -11908952.813 7
  17508409.616   -26427938.020 6 -20376231.313 8
  19090645.952   -12574001.837 5  -9741174.667 5
  18552724.530   -25876140.055 6 -19946842.607 7
  18134542.585   -20577867.357 6 -15831217.417 7
  16793792.562   -35252924.493 7 -27096078.468 6
  17101198.194   -29508054.026 6 -22884668.857 9
  19743857.796    -5232292.667 5  -3764819.537 5
 94  1 29  4 40 59.9870000  0  8 24  9  2  7 12 13  4  5
  18369397.054   -15558247.511 6 -12008988.889 7
  17493976.999   -26503777.571 6 -20435327.056 8
  19095758.359   -12547132.241 5  -9720237.313 5
  18558765.413   -25844390.391 6 -19922102.598 7
  18114149.249   -20685035.375 6 -15914724.941 7
  16790330.835   -35271114.963 7 -27110252.822 7
  17087409.030   -29580511.665 6 -22941129.311 9
  19721217.554    -5351258.558 5  -3857520.207 5
 94  1 29  4 41 29.9870000  0  8 24  9  2  7 12 13  4  5
  18345023.983   -15686331.560 6 -12108794.633 7
  17479641.944   -26579118.900 6 -20494034.600 8
  19100919.624   -12520034.164 5  -9699121.965 5
  18564820.929   -25812564.690 6 -19897303.358 7
  18093816.296   -20791872.378 6 -15997974.556 7
  16786952.726   -35288860.551 7 -27124080.549 6
  17073726.093   -29652409.479 6 -22997153.568 9
  19698578.616    -5470228.800 5  -3950224.274 5
 94  1 29  4 41 59.9870000  0  8 24  9  2  7 12 13  4  5
  18320706.319   -15814115.185 6 -12208366.273 7
  17465397.304   -26653959.950 6 -20552352.305 8
  19106120.155   -12492705.793 5  -9677827.168 5
  18570891.773   -25780657.365 6 -19872440.504 7
  18073551.148   -20898376.110 6 -16080964.471 7
  16783660.937   -35306163.387 7 -27137563.266 7
  17060149.562   -29723770.635 6 -23052759.654 9
  19675940.890    -5589195.433 5  -4042925.539 5
 94  1 29  4 42 29.9870000  0  8 24  9  2  7 12 13  4  5
  18296450.937   -15941575.591 6 -12307686.064 7
  17451255.616   -26728282.191 6 -20610265.750 8
  19111366.327   -12465121.129 5  -9656332.646 5
  18576980.257   -25748668.354 6 -19847514.006 7
  18053351.734   -21004527.903 6 -16163680.154 7
  16780454.780   -35323009.630 7 -27150690.212 6
  17046670.273   -29794605.064 6 -23107955.301 9
  19653305.585    -5708139.165 5  -4135608.963 5
 94  1 29  4 42 59.9870000  0  8 24  9  2  7 12 13  4  5
  18272255.062   -16068714.311 6 -12406755.185 7
  17437212.382   -26802090.099 6 -20667778.416 8
  19116662.804   -12437271.858 5  -9634631.942 5
  18583082.054   -25716604.279 6 -19822529.025 7
  18033217.726   -21110331.631 7 -16246124.623 7
  16777334.163   -35339407.580 7 -27163467.838 7
  17033290.413   -29864905.134 6 -23162734.565 9
  19630678.702    -5827064.140 5  -4228277.767 5
 94  1 29  4 43 29.9870000  0  8 24  9  2  7 12 13  4  5
  18248125.499   -16195526.525 6 -12505569.893 7
  17423266.171   -26875367.741 6 -20724877.880 8
  19122017.444   -12409159.180 5  -9612725.986 5
  18589199.859   -25684453.938 6 -19797476.823 7
  18013149.273   -21215789.294 7 -16328299.425 7
  16774298.429   -35355363.953 7 -27175901.369 7
  17020015.984   -29934667.706 6 -23217095.003 9
  19608051.421    -5945966.161 5  -4320928.669 5
 94  1 29  4 43 59.9870000  0  8 24  9  2  7 12 13  4  5
  18224058.671   -16321998.641 6 -12604119.571 7
  17409423.335   -26948109.992 6 -20781560.151 8
  19127411.101   -12380795.726 5  -9590624.614 5
  18595338.468   -25652204.443 6 -19772347.349 7
  17993146.898   -21320895.005 7 -16410199.976 7
  16771346.749   -35370877.577 7 -27187989.907 7
  17006847.632   -30003877.740 7 -23271024.888 9
  19585430.319    -6064837.668 5  -4413555.821 5
 94  1 29  4 44 29.9870000  0  8 24  9  2  7 12 13  4  5
  18200056.976   -16448128.336 6 -12702402.441 7
  17395683.288   -27020327.389 6 -20837833.455 8
  19132859.663   -12352190.069 5  -9568334.511 5
  18601494.437   -25619845.205 6 -19747132.360 7
  17973213.015   -21425648.014 7 -16491825.696 7
  16768476.999   -35385952.240 7 -27199736.401 7
  16993785.749   -30072505.132 7 -23324500.764 9
  19562814.523    -6183686.330 5  -4506165.172 5
 94  1 29  4 44 59.9870000  0  8 24  9  2  7 12 13  4  5
  18176122.913   -16573909.697 6 -12800413.906 7
  17382041.421   -27092007.771 6 -20893688.325 8
  19138345.194   -12323345.268 5  -9545858.098 5
  18607676.819   -25587354.780 6 -19721815.173 7
  17953349.437   -21530040.533 7 -16573170.542 7
  16765692.569   -35400584.910 7 -27211138.502 7
  16980843.405   -30140525.616 6 -23377503.754 9
  19540198.882    -6302510.929 5  -4598755.777 5
 94  1 29  4 45 29.9870000  0  8 24  9  2  7 12 13  4  5
  18152255.546   -16699341.178 6 -12898152.681 7
  17368501.929   -27163148.506 6 -20949122.649 8
  19143878.765   -12294278.699 5  -9523208.818 5
  18613884.898   -25554734.756 6 -19696396.956 7
  17933552.398   -21634074.073 7 -16654235.612 7
  16762992.601   -35414781.390 7 -27222200.658 7
  16968014.319   -30207949.537 6 -23430041.841 9
  19517594.202    -6421322.132 5  -4691335.915 5
 94  1 29  4 45 59.9870000  0  8 24  9  2  7 12 13  4  5
  18128450.023   -16824430.445 6 -12995624.831 7
  17355067.148   -27233770.466 6 -21004152.757 8
  19149449.382   -12265003.080 5  -9500396.678 5
  18620113.827   -25522003.265 6 -19670891.906 7
  17913821.405   -21737750.860 7 -16735022.724 7
  16760371.858   -35428548.816 7 -27232928.525 7
  16955294.788   -30274783.229 6 -23482120.029 9
  19494983.523    -6540137.724 5  -4783919.506 5
 94  1 29  4 46 29.9870000  0  8 24  9  2  7 12 13  4  5
  18104709.905   -16949182.414 6 -13092834.142 7
  17341726.312   -27303856.035 6 -21058764.900 8
  19155066.515   -12235496.474 5  -9477404.534 5
  18626363.249   -25489163.587 6 -19645302.559 7
  17894162.898   -21841064.165 7 -16815526.582 7
  16757835.569   -35441885.242 7 -27243320.539 7
  16942688.194   -30341035.269 7 -23533744.988 9
  19472373.007    -6658951.264 5  -4876501.465 5
 94  1 29  4 46 59.9870000  0  8 24  9  2  7 12 13  4  5
  18081034.718   -17073598.499 6 -13189781.728 7
  17328496.796   -27373385.729 6 -21112943.887 9
  19160722.444   -12205754.209 5  -9454228.762 5
  18632629.546   -25456233.117 6 -19619642.456 7
  17874573.351   -21944011.926 7 -16895745.622 7
  16755378.483   -35454793.158 7 -27253378.644 7
  16930187.882   -30406715.551 7 -23584924.422 9
  19449765.741    -6777763.389 5  -4969082.331 5
 94  1 29  4 47 29.9870000  0  8 24  9  2  7 12 13  4  5
  18057420.851   -17197680.565 6 -13286469.038 7
  17315368.624   -27442370.034 6 -21166697.885 9
  19166427.718   -12175769.000 5  -9430863.684 5
  18638910.460   -25423227.986 6 -19593924.182 7
  17855053.679   -22046595.249 7 -16975680.686 7
  16753002.234   -35467278.242 7 -27263107.281 7
  16917800.499   -30471817.205 7 -23635652.970 9
  19427155.773    -6896573.733 5  -5061661.817 5
 94  1 29  4 47 59.9870000  0  8 24  9  2  7 12 13  4  5
  18033871.835   -17321433.272 6 -13382899.706 7
  17302348.218   -27510804.253 6 -21220023.249 9
  19172184.648   -12145524.552 5  -9407296.607 5
  18645199.484   -25390161.897 6 -19568158.410 7
  17835600.765   -22148812.798 7 -17055330.710 7
  16750706.124   -35479343.940 7 -27272509.121 6
  16905521.327   -30536342.545 7 -23685932.445 9
  19404548.640    -7015372.363 5  -5154232.173 5
 94  1 29  4 48 29.9870000  0  8 24  9  2  7 12 13  4  5
  18010385.288   -17444857.914 6 -13479074.741 7
  17289430.663   -27578673.516 6 -21272908.397 9
  19177993.577   -12115005.631 5  -9383515.656 5
  18651506.296   -25357034.545 6 -19542344.891 7
  17816221.335   -22250658.426 7 -17134690.945 8
  16748488.843   -35490988.760 7 -27281583.002 7
  16893353.804   -30600289.427 7 -23735761.171 9
  19381946.444    -7134149.421 5  -5246785.732 5
 94  1 29  4 48 59.9870000  0  8 24  9  2  7 12 13  4  5
  17986960.413   -17567951.431 6 -13574991.755 7
  17276620.694   -27645993.022 6 -21325365.169 9
  19183849.421   -12084224.985 5  -9359530.776 5
  18657818.601   -25323861.764 6 -19516495.980 7
  17796911.851   -22352134.511 7 -17213763.222 8
  16746352.226   -35502219.731 7 -27290334.415 7
  16881295.288   -30663654.512 7 -23785136.556 9
  19359346.405    -7252904.607 5  -5339322.231 5
 94  1 29  4 49 29.9870000  0  8 24  9  2  7 12 13  4  5
  17963606.062   -17690694.084 6 -13670635.368 7
  17263916.804   -27712760.389 6 -21377391.689 9
  19189755.155   -12053173.374 5  -9335334.747 5
  18664141.788   -25290630.788 6 -19490601.712 7
  17777672.484   -22453229.846 7 -17292538.808 7
  16744294.546   -35513030.403 7 -27298758.312 7
  16869345.710   -30726448.862 7 -23834067.205 9
  19336757.109    -7371614.957 5  -5431823.810 5
 94  1 29  4 49 59.9870000  0  8 24  9  2  7 12 13  4  5
  17940315.062   -17813087.106 6 -13766006.543 7
  17251314.913   -27778969.525 6 -21428983.225 9
  19195715.780   -12021876.515 5  -9310947.602 5
  18670477.351   -25257337.710 6 -19464659.062 7
  17758506.741   -22553944.790 7 -17371017.991 8
  16742316.257   -35523425.758 7 -27306858.580 7
  16857500.905   -30788695.946 7 -23882571.418 9
  19314178.929    -7490275.318 5  -5524286.430 5
 94  1 29  4 50 29.9870000  0  8 24  9  2  7 12 13  4  5
  17917092.874   -17935118.103 6 -13861095.614 7
  17238823.773   -27844621.507 6 -21480140.610 9
  19201710.562   -11990348.246 5  -9286380.146 5
  18676826.194   -25223973.135 6 -19438660.703 7
  17739415.952   -22654271.250 7 -17449194.449 8
  16740419.233   -35533402.303 7 -27314632.516 7
  16845759.562   -30850388.538 7 -23930643.558 9
  19291607.491    -7608886.190 5  -5616710.482 6
 94  1 29  4 50 59.9870000  0  8 24  9  2  7 12 13  4  5
  17893940.288   -18056787.780 6 -13955903.168 7
  17226433.577   -27909727.090 6 -21530872.287 9
  19207752.312   -11958607.244 5  -9261646.948 5
  18683190.054   -25190529.460 6 -19412600.735 6
  17720395.640   -22754214.798 7 -17527072.560 8
  16738599.429   -35542970.606 7 -27322088.366 7
  16834124.804   -30911531.248 7 -23978287.246 9
  19269043.577    -7727456.431 5  -5709102.898 5
 94  1 29  4 51 29.9870000  0  8 24  9  2  7 12 13  4  5
  17870855.890   -18178092.865 6 -14050426.570 7
  17214152.304   -27974279.279 6 -21581172.672 9
  19213836.437   -11926656.676 5  -9236750.399 5
  18689573.952   -25156994.153 6 -19386469.304 7
  17701451.585   -22853770.668 7 -17604648.537 8
  16736853.866   -35552130.390 7 -27329225.824 7
  16822593.148   -30972121.205 7 -24025500.159 9
  19246488.944    -7845997.753 5  -5801472.730 5
 94  1 29  4 51 59.9870000  0  8 24  9  2  7 12 13  4  5
  17847838.585   -18299039.866 6 -14144670.975 7
  17201969.554   -28038288.050 6 -21631049.640 9
  19219950.327   -11894508.365 5  -9211699.800 5
  18695971.843   -25123367.331 6 -19360266.592 7
  17682580.140   -22952942.365 7 -17681925.185 8
  16735188.866   -35560889.929 7 -27336051.439 7
  16811176.007   -31032137.024 7 -24072265.725 9
  19223927.023    -7964538.330 5  -5893842.008 6
 94  1 29  4 52 29.9870000  0  8 24  9  2  7 12 13  4  5
  17824893.601   -18419618.511 6 -14238628.357 7
  17189892.444   -28101751.466 6 -21680501.657 9
  19226112.382   -11862127.408 5  -9186467.911 5
  18702390.655   -25089636.587 6 -19333982.910 7
  17663783.569   -23051723.236 7 -17758897.285 8
  16733599.077   -35569247.175 7 -27342563.574 7
  16799867.890   -31091554.662 7 -24118565.172 9
  19201369.437    -8083083.774 5  -5986215.075 5
 94  1 29  4 52 59.9860000  0  8 24  9  2  7 12 13  4  5
  17802022.197   -18539808.240 6 -14332282.673 7
  17177923.799   -28164660.362 6 -21729521.587 9
  19232326.291   -11829488.968 5  -9161035.397 5
  18708829.979   -25055790.037 6 -19307608.986 7
  17645063.768   -23150101.267 7 -17835555.491 8
  16732083.525   -35577197.889 7 -27348758.939 7
  16788677.924   -31150352.439 7 -24164381.620 9
  19178812.197    -8201621.447 5  -6078582.108 5
 94  1 29  4 53 29.9860000  0  8 24  9  2  7 12 13  4  5
  17779221.916   -18659629.493 6 -14425649.865 7
  17166053.221   -28227029.493 6 -21778120.914 9
  19238584.947   -11796595.429 5  -9135404.102 5
  18715290.322   -25021853.117 6 -19281164.648 6
  17626415.119   -23248091.948 7 -17911911.857 8
  16730646.408   -35584756.385 7 -27354648.674 7
  16777606.432   -31208543.069 7 -24209724.957 9
  19156257.775    -8320156.836 5  -6170947.324 5
 94  1 29  4 53 59.9860000  0  8 24  9  2  7 12 13  4  5
  17756494.486   -18779071.220 6 -14518721.331 7
  17154291.416   -28288838.071 6 -21826283.446 9
  19244896.768   -11763422.508 5  -9109555.093 5
  18721764.010   -24987826.938 6 -19254650.745 6
  17607844.768   -23345680.735 7 -17987955.075 8
  16729283.908   -35591915.691 7 -27360227.347 7
  16766652.010   -31266115.268 7 -24254586.405 9
  19133705.822    -8438657.459 5  -6263285.470 6
 94  1 29  4 54 29.9860000  0  8 24  9  2  7 12 13  4  5
  17733835.080   -18898139.029 6 -14611501.428 7
  17142636.807   -28350084.390 6 -21874007.853 9
  19251264.408   -11729958.943 5  -9083479.609 5
  18728254.924   -24953722.518 6 -19228075.877 6
  17589351.080   -23442862.238 7 -18063680.918 8
  16727998.463   -35598675.308 7 -27365494.581 7
  16755808.275   -31323086.680 7 -24298979.702 9
  19111165.502    -8557097.380 5  -6355576.318 5
 94  1 29  4 54 59.9860000  0  8 24  9  2  7 12 13  4  5
  17711245.416   -19016842.967 6 -14703997.994 7
  17131089.143   -28410772.538 6 -21921297.328 9
  19257684.940   -11696233.826 5  -9057200.330 5
  18734751.940   -24919568.323 6 -19201462.227 6
  17570937.432   -23539637.397 7 -18139090.123 8
  16726786.143   -35605040.600 7 -27370454.550 7
  16745073.619   -31379487.990 7 -24342928.764 9
  19088644.736    -8675465.769 5  -6447811.416 6
 94  1 29  4 55 29.9860000  0  8 24  9  2  7 12 13  4  5
  17688724.900   -19135196.833 6
  17119647.580   -28470893.265 6 -21968144.652 9
  19264142.807   -11662268.616 5
  18741261.486   -24885377.454 6
  17552597.846   -23636008.644 7 -18214184.607 8
  16725649.369   -35611019.094 7 -27375113.124 7
  16734447.510   -31435337.340 7 -24386447.728 9
  19066131.838    -8793763.543 5
 94  1 29  4 55 59.9860000  0  8 24  9  2  7 12 13  4  5
  17666272.065   -19253186.284 6 -14888161.592 7
  17108314.979   -28530448.664 6 -22014551.466 9
  19270655.869   -11628063.889 5
  18747774.486   -24851139.158 6
  17534335.088   -23731967.354 7 -18288957.626 8
  16724586.893   -35616606.734 7 -27379467.127 7
  16723927.088   -31490629.671 7 -24429532.652 9
  19043634.963    -8911995.840 5  -6632120.547 6
 94  1 29  4 56 29.9860000  0  8 24  9  2  7 12 13  4  5
  17643889.447   -19370805.316 6 -14979812.778 7
  17097086.182   -28589448.348 6 -22060525.255 9
  19277208.885   -11593640.613 5  -8977257.642 5
  18754298.025   -24816850.930 6 -19121422.734 6
  17516156.322   -23827511.572 7 -18363407.669 8
  16723596.260   -35621806.068 7 -27383518.559 7
  16713511.916   -31545363.094 7 -24472182.061 9
  19021142.666    -9030179.720 5  -6724211.873 6
 94  1 29  4 56 59.9860000  0  8 24  9  2  7 12 13  4  5
  17621580.721   -19488042.118 6 -15071166.121 7
  17085966.236   -28647880.827 6 -22106057.064 9
  19283794.643   -11559005.493 5  -8950269.253 5
  18760833.611   -24782509.915 6 -19094663.511 6
  17498054.065   -23922642.142 7 -18437535.384 8
  16722679.986   -35626622.842 7 -27387271.886 7
  16703203.533   -31599519.120 7 -24514381.552 9
  18998662.650    -9148337.004 5  -6816282.470 6
 94  1 29  4 57 29.9860000  0  8 24  9  2  7 12 13  4  5
  17599351.197   -19604877.077 6 -15162206.336 7
  17074958.213   -28705740.146 6 -22151142.258 9
  19290424.057   -11524135.184 5  -8923097.594 5
  18767382.424   -24748103.470 6 -19067853.300 6
  17480029.822   -24017347.097 7 -18511331.455 8
  16721837.940   -35631049.893 7 -27390721.533 7
  16693014.572   -31653071.301 7 -24556110.520 9
  18976177.283    -9266473.299 5  -6908336.718 6
 94  1 29  4 57 59.9860000  0  8 24  9  2  7 12 13  4  5
  17577191.033   -19721308.509 6 -15252932.118 7
  17064051.971   -28763047.474 6 -22195797.326 9
  19297110.213   -11489037.132 5  -8895748.477 5
  18773936.830   -24713648.344 6 -19041005.150 6
  17462090.604   -24111630.765 7 -18584799.248 8
  16721067.643   -35635096.031 7 -27393874.368 7
  16682936.682   -31706031.493 7 -24597378.190 9
  18953699.252    -9384602.648 5  -7000385.561 6
 94  1 29  4 58 29.9860000  0  8 24  9  2  7 12 13  4  5
  17555112.721   -19837341.319 6 -15343347.287 8
  17053251.072   -28819798.273 6 -22240018.730 9
  19303832.596   -11453712.291 5  -8868222.655 5
  18780500.596   -24679166.281 6 -19014136.021 6
  17444227.111   -24205495.080 7 -18657940.272 8
  16720369.815   -35638767.883 7 -27396735.551 7
  16672971.330   -31758407.571 7 -24638190.711 9
  18931221.729    -9502726.773 5  -7092430.319 6
 94  1 29  4 58 59.9860000  0  8 24  9  2  7 12 13  4  5
  17533107.588   -19952974.328 6 -15433450.919 8
  17042558.580   -28875993.645 6 -22283807.335 9
  19310596.760   -11418158.594 5  -8840518.505 5
  18787063.924   -24644668.167 6 -18987254.388 6
  17426444.822   -24298939.269 7 -18730753.927 8
  16719740.854   -35642069.570 7 -27399308.295 7
  16663115.565   -31810201.972 7 -24678549.978 9
  18908749.619    -9620827.848 5  -7184457.120 5
 94  1 29  4 59 29.9860000  0  8 24  9  2  7 12 13  4  5
  17511181.182   -20068194.197 6 -15523232.624 8
  17031971.729   -28931636.394 6 -22327165.330 9
  19317407.494   -11382368.205 5  -8812629.913 5
  18793633.150   -24610138.485 6 -18960348.150 6
  17408745.307   -24391949.285 7 -18803229.264 8
  16719182.580   -35644991.434 7 -27401585.070 7
  16653369.275   -31861413.528 7 -24718455.079 9
  18886284.393    -9738874.299 5  -7276441.369 6
 94  1 29  4 59 59.9860000  0  8 24  9  2  7 12 13  4  5
  17489332.455   -20183012.785 6 -15612701.642 7
  17021484.322   -28986743.497 6 -22370105.933 9
  19324259.736   -11346357.865 5  -8784569.923 5
  18800213.674   -24575565.863 6 -18933408.453 6
  17391130.033   -24484533.354 7 -18875372.694 8
  16718696.486   -35647546.758 7 -27403576.220 7
  16643734.111   -31912044.102 7 -24757907.464 9
  18863834.533    -9856855.945 5  -7368375.101 6
 94  1 29  5  0 29.9860000  0  8 24  9  2  7 12 13  4  5
  17467561.588   -20297414.203 6 -15701845.588 8
  17011105.674   -29041295.326 6 -22412613.866 9
  19331159.471   -11310108.513 5  -8756323.698 5
  18806807.455   -24540915.332 6 -18906408.045 6
  17373594.408   -24576679.089 7 -18947174.575 8
  16718284.322   -35649727.656 7 -27405275.624 7
  16634215.049   -31962062.602 7 -24796882.911 9
  18841399.877    -9974740.381 5  -7460233.108 6
 94  1 29  5  0 59.9860000  0  8 24  9  2  7 12 13  4  5
  17445872.924   -20411400.718 6 -15790666.240 8
  17000825.940   -29095309.084 6 -22454702.511 9
  19338099.604   -11273634.844 5  -8727902.683 5
  18813417.955   -24506170.627 6 -18879334.250 6
  17356140.182   -24668397.485 7 -19018643.451 8
  16717933.986   -35651550.056 7 -27406695.671 7
  16624812.049   -32011477.846 7 -24835388.288 9
  18818980.963   -10092543.173 5  -7552027.472 6
 94  1 29  5  1 29.9860000  0  8 24  9  2  7 12 13  4  5
  17424261.979   -20524947.374 6 -15879144.150 8
  16990655.065   -29148760.325 6 -22496352.842 9
  19345083.275   -11236909.828 5  -8699285.818 5
  18820055.893   -24471303.638 6 -18852165.179 6
  17338771.057   -24759669.571 7 -19089764.552 8
  16717661.307   -35652999.194 7 -27407824.876 7
  16615525.393   -32060272.978 7 -24873410.458 9
  18796578.619   -10210259.339 5  -7643754.345 6
 94  1 29  5  1 59.9860000  0  8 24  9  2  7 12 13  4  5
  17402737.838   -20638072.702 6 -15967293.756 8
  16980591.416   -29201637.283 6 -22537555.671 9
  19352124.025   -11199944.120 5  -8670481.396 5
  18826707.596   -24436344.227 6 -18824924.100 6
  17321485.947   -24850506.390 7 -19160546.487 8
  16717452.557   -35654091.088 7 -27408675.702 7
  16606355.010   -32108465.161 7 -24910962.804 9
  18774190.361   -10327925.783 5  -7735442.481 6
 94  1 29  5  2 29.9860000  0  8 24  9  2  7 12 13  4  5
  17381288.315   -20750776.138 6 -16055114.607 8
  16970644.775   -29253912.116 6 -22578289.318 9
  19359205.791   -11162729.084 5  -8641482.699 5
  18833370.760   -24401323.617 6 -18797635.315 6
  17304285.205   -24940905.699 7 -19230987.513 8
  16717310.190   -35654827.976 7 -27409249.898 7
  16597298.072   -32156067.636 7 -24948055.632 9
  18751803.299   -10445569.495 5  -7827112.893 6
 94  1 29  5  2 59.9860000  0  8 24  9  2  7 12 13  4  5
  17359921.924   -20863068.889 6 -16142615.442 8
  16960813.057   -29305574.672 6 -22618545.862 9
  19366329.565   -11125267.628 5  -8612292.001 5
  18840043.111   -24366267.304 6 -18770318.711 6
  17287165.143   -25030860.156 7 -19301081.901 8
  16717238.088   -35655207.521 7
  16588350.065   -32203094.675 7 -24984700.074 9
  18729419.682   -10563207.379 6  -7918778.754 6
 94  1 29  5  3 29.9860000  0  8 24  9  2  7 12 13  4  5
  17338627.057   -20974968.600 6 -16229810.017 8
  16951100.182   -29356615.227 6 -22658317.720 9
  19373507.072   -11087564.134 5  -8582912.690 4
  18846717.979   -24331189.589 6 -18742985.434 6
  17270133.596   -25120368.052 7 -19370828.318 8
  16717234.432   -35655232.415 7
  16579508.479   -32249549.980 7 -25020899.007 9
  18707037.025   -10680832.702 5  -8010434.840 6
 94  1 29  5  3 59.9860000  0  8 24  9  2  7 12 13  4  5
  17317409.322   -21086479.162 6 -16316701.353 8
  16941507.002   -29407038.702 6 -22697608.756 9
  19380729.354   -11049624.085 5  -8553349.044 5
  18853396.940   -24296087.436 6 -18715633.113 6
  17253186.291   -25209424.306 7 -19440222.804 8
  16717298.104   -35654902.486 7
  16570777.260   -32295434.476 7 -25056653.157 9
  18684653.916   -10798437.739 5  -8102075.115 6
 94  1 29  5  4 29.9860000  0  8 24  9  2  7 12 13  4  5
  17296263.041   -21197595.136 6 -16403285.221 8
  16932024.775   -29456867.712 6 -22736436.566 9
  19387993.346   -11011443.023 5  -8523597.596 4
  18860085.299   -24260942.338 6 -18688247.334 6
  17236327.744   -25298027.412 7 -19509264.185 8
  16717424.463   -35654220.732 7 -27408776.715 7
  16562153.752   -32340747.245 7 -25091961.798 9
  18662282.721   -10916001.868 5  -8193683.520 6
 94  1 29  5  4 59.9860000  0  8 24  9  2  7 12 13  4  5
  17275193.682   -21308318.568 6 -16489563.212 8
  16922648.893   -29506134.510 6 -22774826.284 9
  19395304.713   -10973043.592 5  -8493676.001 5
  18866782.533   -24225742.117 6 -18660818.599 6
  17219550.174   -25386188.058 7 -19577960.797 8
  16717623.010   -35653202.366 7 -27407983.187 7
  16553637.088   -32385495.253 7 -25126830.371 9
  18639920.760   -11033509.198 6  -8285247.662 6
 94  1 29  5  5 29.9860000  0  8 24  9  2  7 12 13  4  5
  17254206.916   -21418607.373 6 -16575502.521 8
  16913384.190   -29554830.076 6 -22812770.888 9
  19402653.416   -10934400.256 5  -8463564.337 5
  18873499.080   -24190457.174 6 -18633323.848 6
  17202859.877   -25473884.973 7 -19646296.049 8
  16717884.041   -35651830.697 7 -27406914.359 7
  16545233.143   -32429655.540 7 -25161240.975 9
  18617577.736   -11150930.845 5  -8376745.046 6
 94  1 29  5  5 59.9860000  0  8 24  9  2  7 12 13  4  5
  17233301.400   -21528456.464 6 -16661099.200 8
  16904220.830   -29602977.954 6 -22850288.731 9
  19410052.658   -10895511.843 5  -8433261.706 5
  18880225.377   -24155107.251 6 -18605778.466 6
  17186257.830   -25561125.621 7 -19714275.781 8
  16718212.104   -35650118.039 7 -27405579.825 7
  16536941.002   -32473240.728 7 -25195203.455 9
  18595247.604   -11268280.588 6  -8468186.392 6
 94  1 29  5  6 29.9860000  0  8 24  9  2  7 12 13  4  5
  17212481.190   -21637863.039 6 -16746351.065 8
  16895162.127   -29650581.469 6 -22887382.387 9
  19417495.783   -10856392.633 5  -8402779.238 5
  18886961.799   -24119716.738 6 -18578201.452 6
  17169744.565   -25647910.980 7 -19781900.735 8
  16718595.885   -35648069.879 7 -27403983.859 7
  16528755.744   -32516252.545 7 -25228719.153 9
  18572932.283   -11385554.715 6  -8559568.828 6
 94  1 29  5  6 59.9860000  0  8 24  9  2  7 12 13  4  5
  17191753.729   -21746808.370 6 -16831243.522 8
  16886210.854   -29697620.703 6 -22924036.343 9
  19424988.432   -10817034.206 5  -8372110.365 5
  18893703.135   -24084278.972 6 -18550587.621 6
  17153322.377   -25734216.447 7 -19849151.748 8
  16719056.635   -35645666.045 7 -27402110.743 7
  16520686.690   -32558660.275 7 -25261764.125 9
  18550635.057   -11502722.768 6  -8650868.601 6
 94  1 29  5  7 29.9860000  0  8 24  9  2  7 12 13  4  5
  17171100.080   -21855339.663 6 -16915813.352 8
  16877362.041   -29744121.626 6 -22960270.831 9
  19432518.650   -10777455.699 5  -8341270.010 5
  18900449.830   -24048832.657 6 -18522967.126 6
  17136984.408   -25820065.534 7 -19916047.147 8
  16719575.916   -35642934.806 7 -27399982.504 7
  16512726.572   -32600484.213 7 -25294354.204 9
  18528349.330   -11619819.948 6  -8742113.135 6
 94  1 29  5  7 59.9860000  0  8 24  9  2  7 12 13  4  5
  17150524.182   -21963457.867 6 -17000061.291 8
  16868617.174   -29790065.193 6 -22996071.020 9
  19440092.197   -10737654.726 5  -8310256.289 5
  18907198.713   -24013360.974 6 -18495326.850 6
  17120738.182   -25905447.864 7 -19982578.834 8
  16720158.572   -35639870.348 7 -27397594.620 7
  16504883.205   -32641703.307 7 -25326472.969 9
  18506084.322   -11736833.622 6  -8833292.613 6
 94  1 29  5  8 29.9860000  0  8 24  9  2  7 12 13  4  5
  17130027.947   -22071158.882 6 -17083984.147 8
  16859988.354   -29835423.871 6 -23031415.453 9
  19447711.049   -10697623.872 4  -8279063.450 5
  18913958.025   -23977835.085 6 -18467644.353 6
  17104580.486   -25990348.547 7 -20048735.212 8
  16720808.127   -35636462.494 7 -27394939.153 7
  16497158.408   -32682298.732 7 -25358105.762 9
  18483836.650   -11853742.588 6  -8924390.510 6
 94  1 29  5  8 59.9860000  0  8 24  9  2  7 12 13  4  5
  17109610.736   -22178462.394 6 -17167597.269 8
  16851464.494   -29880208.184 6 -23066312.330 9
  19455369.135   -10657363.395 5  -8247691.660 5
  18920729.299   -23942259.732 6 -18439923.316 6
  17088512.338   -26074785.489 7 -20114530.237 8
  16721516.900   -35632733.401 7 -27392033.375 7
  16489549.900   -32722285.863 7 -25389264.563 9
  18461604.502   -11970574.231 6  -9015428.161 6
 94  1 29  5  9 29.9860000  0  8 24  9  2  7 12 13  4  5
  17089270.697   -22285350.014 6 -17250886.311 8
  16843055.377   -29924391.379 6 -23100740.795 9
  19463082.393   -10616853.771 5  -8216125.759 4
  18927511.635   -23906626.700 6 -18412157.316 6
  17072534.729   -26158748.893 7 -20179956.258 8
  16722288.291   -35628678.146 7 -27388873.435 7
  16482056.541   -32761670.971 7 -25419954.246 9
  18439386.322   -12087339.596 6  -9106414.148 6
 94  1 29  5  9 59.9860000  0  8 24  9  2  7 12 13  4  5
  17069014.588   -22391793.995 6 -17333829.657 8
  16834762.854   -29967965.460 6 -23134694.632 9
  19470837.775   -10576096.882 5  -8184367.166 3
  18934300.400   -23870943.926 6 -18384352.565 6
  17056648.361   -26242232.639 7 -20245008.534 8
  16723122.650   -35624294.940 7 -27385457.952 7
  16474675.002   -32800463.474 7 -25450182.160 9
  18417177.838   -12204039.234 6  -9197348.933 6
 94  1 29  5 10 29.9860000  0  8 24  9  2  7 12 13  4  5
  17048844.057   -22497797.655 6 -17416429.901 8
  16826583.283   -30010948.334 6 -23168187.789 9
  19478638.221   -10535100.182 5  -8152421.728 4
  18941093.854   -23835237.796 6 -18356529.610 6
  17040851.979   -26325243.654 7 -20309692.438 8
  16724015.338   -35619595.490 7 -27381796.047 7
  16467399.315   -32838694.361 7 -25479972.459 9
  18394982.205   -12320681.364 6  -9288238.895 6
 94  1 29  5 10 59.9860000  0  8 24  9  2  7 12 13  4  5
  17028759.205   -22603346.094 6 -17498675.431 8
  16818517.158   -30053342.539 6 -23201222.247 9
  19486486.916   -10493862.829 4  -8120288.748 2
  18947894.783   -23799514.473 6 -18328693.265 6
  17025146.666   -26407774.177 7 -20374001.938 8
  16724971.252   -35614576.162 7 -27377884.881 7
  16460230.518   -32876362.627 7 -25509324.351 9
  18372795.838   -12437269.056 6  -9379086.451 6
 94  1 29  5 11 29.9860000  0  8 24  9  2  7 12 13  4  5
  17008760.377   -22708437.401 6 -17580564.749 8
  16810560.565   -30095161.187 6 -23233808.211 9
  19494373.221   -10452408.005 4  -8087986.313 4
  18954692.510   -23763783.800 6 -18300851.189 6
  17009532.752   -26489828.584 7 -20437940.437 8
  16725986.143   -35609246.106 7 -27373731.584 7
  16453167.166   -32913483.127 7 -25538249.404 9
  18350620.830   -12553805.985 6  -9469894.431 6
 94  1 29  5 11 59.9860000  0  8 24  9  2  7 12 13  4  5
  16988851.525   -22813064.675 6 -17662092.482 8
  16802710.729   -30136416.213 6 -23265954.991 9
  19502299.002   -10410750.318 4  -8055525.808 3
  18961494.510   -23728026.544 6 -18272988.409 6
  16994010.510   -26571404.811 7 -20501506.331 8
  16727059.979   -35603607.636 7 -27369337.973 7
  16446206.268   -32950048.071 7 -25566741.568 9
  18328455.275   -12670280.958 6  -9560654.142 6
 94  1 29  5 12 29.9860000  0  8 24  9  2  7 12 13  4  5
  16969028.033   -22917229.126 6 -17743259.580 8
  16794966.260   -30177111.894 6 -23297665.923 9
  19510270.557   -10368890.151 4  -8022907.534 2
  18968309.049   -23692221.490 6 -18245088.368 6
  16978578.065   -26652500.212 7 -20564697.551 8
  16728188.994   -35597662.722 7 -27364705.576 7
  16439356.346   -32986053.359 7 -25594797.628 9
  18306305.213   -12786683.479 6  -9651357.407 6
 94  1 29  5 12 59.9860000  0  8 24  9  2  7 12 13  4  5
  16949296.510   -23020921.734 6 -17824059.008 8
  16787329.494   -30217235.138 6 -23328930.800 9
  19518271.268   -10326815.915 4  -7990122.445 3
  18975139.291   -23656350.542 6 -18217136.985 6
  16963241.135   -26733099.932 7 -20627502.523 8
  16729381.479   -35591400.828 7 -27359826.180 7
  16432616.611   -33021472.946 7 -25622397.305 9
  18284170.002   -12903008.074 6  -9741999.940 6
 94  1 29  5 13 29.9850000  0  8 24  9  2  7 12 13  4  5
  16929652.747   -23124147.870 6 -17904494.943 8
  16779804.192   -30256788.431 6 -23359751.561 9
  19526319.911   -10284527.141 4  -7957170.204 4
  18981976.232   -23620415.345 6 -18189135.543 6
  16947997.083   -26813202.245 7 -20689919.908 8
  16730631.724   -35584827.700 7 -27354704.263 7
  16425986.849   -33056304.731 7 -25649538.949 9
  18262048.091   -13019246.618 6  -9832575.425 6
 94  1 29  5 13 59.9850000  0  8 24  9  2  7 12 13  4  5
  16910095.349   -23226922.056 6 -17984578.719 8
  16772386.271   -30295775.994 6 -23390131.481 9
  19534412.403   -10242006.767 4  -7924037.467 3
  18988825.755   -23584420.001 5 -18161087.231 6
  16932847.513   -26892806.892 7 -20751949.508 8
  16731943.872   -35577941.559 7 -27349338.445 7
  16419472.849   -33090545.413 7 -25676219.990 9
  18239947.583   -13135394.194 6  -9923080.029 6
 94  1 29  5 14 29.9850000  0  8 24  9  2  7 12 13  4  5
  16890620.232   -23329264.146 6 -18064325.790 8
  16765072.146   -30334205.050 6 -23420076.205 9
  19542550.200   -10199255.707 4  -7890724.983 2
  18995673.192   -23548416.244 5 -18133032.361 6
  16917792.310   -26971922.573 7 -20813598.079 8
  16733310.005   -35570758.583 7 -27343741.325 7
  16413065.841   -33124206.670 7 -25702449.536 9
  18217860.474   -13251461.809 6 -10013522.318 6
 94  1 29  5 14 59.9850000  0  8 24  9  2  7 12 13  4  5
  16871230.169   -23431162.291 6 -18143726.918 8
  16757869.466   -30372057.389 6 -23449571.549 9
  19550737.888   -10156259.151 4  -7857221.205 3
  19002528.427   -23512400.824 5 -18104968.404 6
  16902832.028   -27050535.608 7 -20874854.993 8
  16734735.091   -35563269.428 7 -27337905.617 7
  16406774.700   -33157267.083 7 -25728210.888 9
  18195791.177   -13367436.993 6 -10103892.588 6
 94  1 29  5 15 29.9850000  0  8 24  9  2  7 12 13  4  5
  16851923.841   -23532606.335 6 -18222774.214 8
  16750772.700   -30409335.652 6 -23478619.550 8
  19558957.794   -10113028.007 4  -7823534.635 2
  19009380.482   -23476379.809 5 -18076900.097 6
  16887970.239   -27128652.355 7 -20935725.190 8
  16736218.458   -35555484.957 7 -27331839.790 7
  16400595.599   -33189737.597 7 -25753512.584 9
  18173742.919   -13483314.943 6 -10194187.093 6
 94  1 29  5 15 59.9850000  0  8 24  9  2  7 12 13  4  5
  16832706.810   -23633593.772 6 -18301465.709 8
  16743790.013   -30446038.963 6 -23507219.543 9
  19567224.161   -10069572.081 3  -7789672.871 2
  19016236.638   -23440361.217 5 -18048833.668 6
  16873198.528   -27206277.400 7 -20996212.243 8
  16737753.732   -35547414.006 7 -27325550.734 7
  16394528.528   -33221627.626 7 -25778361.951 9
  18151705.825   -13599096.094 6 -10284406.169 6
 94  1 29  5 16 29.9850000  0  8 24  9  2  7 12 13  4  5
  16813579.528   -23734105.772 6 -18379786.743 8
  16736918.255   -30482144.478 6 -23535353.721 9
  19575540.271   -10025886.785 4  -7755632.422 2
  19023095.302   -23404316.250 5 -18020746.691 6
  16858523.669   -27283396.208 7 -21056304.825 8
  16739344.661   -35539046.225 7 -27319030.391 7
  16388574.997   -33252920.544 7 -25802746.039 9
  18129696.755   -13714772.538 6 -10374543.650 6
 94  1 29  5 16 59.9850000  0  8 24  9  2  7 12 13  4  5
  16794545.021   -23834144.596 6 -18457739.064 8
  16730162.333   -30517649.549 6 -23563020.024 9
  19583893.552    -9981996.611 3  -7721432.283 2
  19029962.771   -23368220.132 5 -17992619.853 5
  16843941.958   -27360009.957 7 -21116003.852 8
  16740992.692   -35530387.481 7 -27312283.311 7
  16382730.411   -33283627.262 7 -25826673.341 9
  18107704.036   -13830339.031 6 -10464595.464 6
 94  1 29  5 17 29.9850000  0  8 24  9  2  7 12 13  4  5
  16775598.966   -23933712.584 6 -18535324.502 9
  16723521.271   -30552552.354 6 -23590217.027 9
  19592284.474    -9937898.639 3  -7687070.271 2
  19036844.692   -23332072.327 5 -17964452.734 5
  16829459.396   -27436116.326 7 -21175307.517 8
  16742696.716   -35521439.613 7 -27305310.943 7
  16376997.200   -33313755.615 7 -25850149.981 9
  18085732.317   -13945795.347 6 -10554561.408 6
 94  1 29  5 17 59.9850000  0  8 24  9  2  7 12 13  4  5
  16756736.833   -24032818.048 6 -18612549.544 9
  16716996.247   -30586851.065 6 -23616943.324 9
  19600711.817    -9893585.304 3  -7652540.408 1
  19043731.708   -23295877.403 5 -17936248.899 5
  16815075.435   -27511711.197 7 -21234212.613 8
  16744453.935   -35512202.863 7 -27298113.490 7
  16371372.700   -33343304.282 7 -25873174.914 9
  18063782.888   -14061148.259 6 -10644446.794 7
 94  1 29  5 18 29.9850000  0  8 24  9  2  7 12 13  4  5
  16737967.247   -24131453.765 6 -18689408.546 9
  16710582.036   -30620558.885 6 -23643209.157 9
  19609187.091    -9849059.833 3  -7617845.282 2
  19050627.989   -23259643.360 5 -17908014.591 5
  16800788.021   -27586797.236 7 -21292721.214 8
  16746263.849   -35502684.146 7 -27290696.313 7
  16365857.177   -33372284.090 7 -25895756.581 9
  18041849.528   -14176412.025 6 -10734262.717 6
 94  1 29  5 18 59.9850000  0  8 24  9  2  7 12 13  4  5
  16719291.825   -24229602.053 6 -18765887.718 9
  16704278.341   -30653684.018 6 -23669020.947 9
  19617707.942    -9804305.995 3  -7582972.193 2
  19057526.974   -23223380.355 5 -17879757.713 5
  16786595.146   -27661372.084 7 -21350831.499 8
  16748127.669   -35492885.550 7 -27283061.047 7
  16360452.396   -33400696.465 7 -25917896.094 9
  18019932.958   -14291582.428 6 -10824005.883 6
 94  1 29  5 19 29.9850000  0  8 24  9  2  7 12 13  4  5
  16700708.732   -24327255.478 6 -18841981.294 9
  16698080.794   -30686244.522 6 -23694392.785 9
  19626262.786    -9759307.985 3  -7547908.820 2
  19064429.403   -23187105.463 5 -17851491.568 6
  16772502.513   -27735436.420 7 -21408543.981 8
  16750045.403   -35482811.674 7 -27275211.279 7
  16355152.185   -33428541.008 7 -25939593.141 9
  17998029.333   -14406669.713 6 -10913684.289 6
 94  1 29  5 19 59.9850000  0  8 24  9  2  7 12 13  4  5
  16682221.364   -24424399.674 6 -18917678.057 9
  16691993.685   -30718237.531 6 -23719322.414 9
  19634870.528    -9714076.062 3  -7512663.179 2
  19071336.067   -23150819.405 5 -17823216.721 6
  16758507.458   -27808979.528 7 -21465850.302 8
  16752015.864   -35472456.118 7 -27267142.017 7
  16349964.263   -33455806.983 7 -25960839.343 9
  17976149.411   -14521668.609 6 -11003293.817 7
 94  1 29  5 20 29.9850000  0  8 24  9  2  7 12 13  4  5
  16663832.958   -24521045.271 6 -18992986.305 9
  16686012.216   -30749665.381 6 -23743811.668 9
  19643521.638    -9668619.005 3  -7477242.104 2
  19078243.896   -23114524.142 5 -17794934.698 6
  16744611.278   -27882003.196 7 -21522751.872 8
  16754040.083   -35461825.045 7 -27258858.070 7
  16344883.903   -33482497.784 7 -25981637.372 9
  17954282.208   -14636581.460 6 -11092836.286 6
 94  1 29  5 20 59.9850000  0  8 24  9  2  7 12 13  4  5
  16645530.505   -24617219.104 6 -19067926.945 9
  16680140.669   -30780516.820 6 -23767851.758 9
  19652216.247    -9622944.850 3  -7441651.884 2
  19085152.450   -23078216.678 5 -17766643.178 6
  16730813.333   -27954506.337 7 -21579247.827 8
  16756115.114   -35450921.675 7 -27250361.937 7
  16339916.505   -33508612.914 7 -26001986.819 9
  17932431.310   -14751406.501 6 -11182310.342 7
 94  1 29  5 21 29.9850000  0  8 24  9  2  7 12 13  4  5
  16627311.489   -24712952.228 6 -19142524.170 9
  16674376.755   -30810799.423 6 -23791448.601 9
  19660947.044    -9577080.659 3  -7405913.584 2
  19092058.247   -23041906.942 5 -17738349.886 5
  16717114.966   -28026492.641 7 -21635341.052 8
  16758240.153   -35439753.807 7 -27241659.696 7
  16335055.505   -33534161.831 7 -26021895.062 9
  17910595.247   -14866149.592 6 -11271720.522 7
 94  1 29  5 21 59.9850000  0  8 24  9  2  7 12 13  4  5
  16609178.450   -24808251.831 6 -19216783.598 9
  16668725.263   -30840506.848 6 -23814597.264 9
  19669703.989    -9531023.893 3  -7370025.225 2
  19098969.614   -23005595.940 5 -17710055.612 6
  16703515.567   -28097957.898 7 -21691028.270 8
  16760412.864   -35428321.196 7 -27232751.167 7
  16330302.864   -33559146.777 7 -26041363.847 9
  17888777.364   -14980804.088 6 -11361061.696 7
 94  1 29  5 22 29.9850000  0  8 24  9  2  7 12 13  4  5
  16591127.435   -24903114.747 6 -19290702.746 9
  16663179.833   -30869641.916 6 -23837299.944 9
  19678512.552    -9484751.205 3  -7333968.609 3
  19105884.622   -22969267.836 5 -17681748.002 5
  16690017.825   -28168896.510 7 -21746305.119 8
  16762642.357   -35416622.458 7 -27223635.274 7
  16325652.466   -33583569.065 7 -26060394.200 9
  17866980.685   -15095347.634 6 -11450316.400 7
 94  1 29  5 22 59.9850000  0  8 24  9  2  7 12 13  4  5
  16573160.755   -24997531.509 6 -19364274.237 8
  16657739.747   -30898232.022 6 -23859577.967 9
  19687361.185    -9438273.898 3  -7297752.562 2
  19112796.364   -22932932.269 5 -17653434.588 5
  16676618.411   -28239314.785 7 -21801176.511 8
  16764915.497   -35404668.145 7 -27214320.225 7
  16321110.427   -33607441.634 7 -26078996.200 9
  17845203.708   -15209777.135 6 -11539482.253 7
 94  1 29  5 23 29.9850000  0  8 24  9  2  7 12 13  4  5
  16555282.380   -25091477.053 6 -19437478.543 8
  16652402.036   -30926285.289 6 -23881437.656 9
  19696244.646    -9391577.526 3  -7261365.813 3
  19119714.114   -22896593.351 5 -17625118.557 5
  16663317.739   -28309200.498 7 -21855632.915 8
  16767241.232   -35392449.976 7 -27204799.577 7
  16316674.294   -33630754.715 7 -26097162.230 9
  17823454.544   -15324078.672 6 -11628548.378 7
 94  1 29  5 23 59.9850000  0  8 24  9  2  7 12 13  4  5
  16537496.403   -25184935.390 6 -19510303.218 8
  16647168.036   -30953794.023 6 -23902873.033 9
  19705175.224    -9344664.827 3  -7224810.497 1
  19126627.614   -22860248.697 5 -17596798.068 5
  16650120.075   -28378558.662 7 -21909678.245 8
  16769615.052   -35379977.105 7 -27195080.460 7
  16312342.286   -33653514.302 7 -26114896.978 9
  17801725.974   -15438262.124 6 -11717522.488 7
 94  1 29  5 24 29.9850000  0  8 24  9  2  7 12 13  4  5
  16519807.200   -25277894.613 6 -19582738.963 9
  16642040.989   -30980746.183 6 -23923874.730 9
  19714140.591    -9297551.041 3  -7188098.512 1
  19133548.247   -22823886.376 5 -17568463.796 5
  16637021.192   -28447390.872 7 -21963313.736 8
  16772035.380   -35367255.249 7 -27185167.327 7
  16308115.935   -33675716.867 7 -26132197.671 9
  17780020.778   -15552328.804 6 -11806405.609 7
 94  1 29  5 24 59.9850000  0  8 24  9  2  7 12 13  4  5
  16502216.466   -25370341.908 6 -19654775.798 9
  16637024.591   -31007108.285 6 -23944416.639 9
  19723134.349    -9250242.653 3  -7151234.844 1
  19140473.638   -22787498.975 5 -17540109.985 5
  16624024.911   -28515685.887 7 -22016530.634 8
  16774506.107   -35354277.006 7 -27175054.412 7
  16304001.552   -33697346.215 7 -26149051.706 9
  17758338.224   -15666274.368 6 -11895194.361 7
 94  1 29  5 25 29.9850000  0  8 24  9  2  7 12 13  4  5
  16484718.482   -25462284.265 6 -19726419.183 8
  16632124.075   -31032849.677 6 -23964474.883 9
  19732173.185    -9202745.048 3  -7114223.769 1
  19147402.364   -22751077.725 5 -17511729.788 5
  16611133.286   -28583445.427 7 -22069330.284 8
  16777023.005   -35341048.279 7 -27164746.313 7
  16299995.841   -33718398.464 7 -26165456.048 9
  17736676.474   -15780102.371 6 -11983891.507 7
 94  1 29  5 25 59.9850000  0  8 24  9  2  7 12 13  4  5
  16467323.107   -25553701.986 6 -19797653.756 8
  16627348.685   -31057951.557 6 -23984034.806 9
  19741253.107    -9155051.718 3  -7077060.155 1
  19154344.810   -22714593.425 5 -17483300.467 5
  16598339.466   -28650666.504 7 -22121710.348 8
  16779586.638   -35327570.297 7 -27154243.989 7
  16296099.857   -33738868.776 7 -26181406.941 9
  17715040.513   -15893794.855 6 -12072483.048 7
 94  1 29  5 26 29.9850000  0  8 24  9  2  7 12 13  4  5
  16450025.732   -25644609.966 6 -19868491.131 9
  16622686.349   -31082447.931 6 -24003122.914 9
  19750365.747    -9107161.925 3  -7039743.444 2
  19161300.794   -22678057.558 5 -17454830.971 5
  16585647.505   -28717355.397 7 -22173675.721 8
  16782196.458   -35313852.903 7 -27143555.117 7
  16292313.864   -33758769.512 7 -26196914.014 9
  17693431.450   -16007354.187 6 -12160970.846 7
 94  1 29  5 26 59.9850000  0  8 24  9  2  7 12 13  4  5
  16432823.833   -25735002.739 6 -19938927.040 9
  16618138.888   -31106347.238 6 -24021745.768 9
  19759522.911    -9059055.990 3  -7002258.363 2
  19168265.607   -22641478.860 5 -17426328.098 6
  16573061.466   -28783501.529 7 -22225218.167 8
  16784856.380   -35299889.635 7 -27132674.651 7
  16288632.185   -33778110.107 7 -26211984.606 9
  17671846.857   -16120779.211 6 -12249353.968 7
 94  1 29  5 27 29.9850000  0  8 24  9  2  7 12 13  4  5
  16415718.747   -25824881.705 6 -20008962.591 9
  16613696.653   -31129687.002 6 -24039932.619 9
  19768718.966    -9010714.413 3  -6964589.591 2
  19175224.466   -22604868.162 5 -17397800.304 5
  16560579.474   -28849099.226 7 -22276333.264 8
  16787558.880   -35285678.703 7 -27121601.209 7
  16285058.138   -33796892.351 7 -26226620.116 9
  17650285.489   -16234081.631 6 -12337641.566 7
 94  1 29  5 27 59.9850000  0  8 24  9  2  7 12 13  4  5
  16398709.763   -25914261.679 6 -20078609.314 9
  16609353.505   -31152510.763 6 -24057717.380 9
  19777955.817    -8962143.714 3  -6926742.339 2
  19182194.216   -22568256.602 5 -17369271.829 5
  16548198.294   -28914157.100 7 -22327027.719 8
  16790307.200   -35271232.833 7 -27110344.697 7
  16281589.044   -33815125.762 7 -26240827.969 9
  17628745.567   -16347285.616 6 -12425852.461 7
 94  1 29  5 28 29.9850000  0  8 24  9  2  7 12 13  4  5
  16381797.528   -26003148.781 6 -20147871.976 9
  16605111.489   -31174809.692 6 -24075093.186 9
  19787250.169    -8913347.581 3  -6888719.431 1
  19189157.435   -22531659.928 5 -17340754.965 5
  16535924.357   -28978659.956 7 -22377289.691 8
  16793103.107   -35256540.451 7 -27098896.087 7
  16278226.966   -33832795.006 7 -26254596.212 9
  17607220.013   -16460394.700 6 -12513989.406 7
 94  1 29  5 28 59.9850000  0  8 24  9  2  7 12 13  4  5
  16364971.958   -26091566.647 6 -20216769.004 9
  16600967.544   -31196578.064 6 -24092055.574 9
  19796561.153    -8864348.289 3  -6850538.205 2
  19196116.364   -22495095.972 5 -17312263.593 5
  16523752.083   -29042619.289 7 -22427128.141 8
  16795944.083   -35241616.931 7 -27087267.372 7
  16274970.646   -33849907.620 7 -26267930.715 9
  17585715.396   -16573406.445 6 -12602050.514 7
 94  1 29  5 29 29.9850000  0  8 24  9  2  7 12 13  4  5
  16348236.575   -26179513.453 6 -20285298.966 9
  16596929.841   -31217802.305 6 -24108593.952 9
  19805934.060    -8815149.672 3  -6812201.651 2
  19203070.958   -22458548.228 5 -17283784.839 5
  16511686.247   -29106027.240 7 -22476536.943 8
  16798829.466   -35226458.114 7 -27075455.309 7
  16271823.599   -33866432.775 7 -26280807.455 9
  17564235.067   -16686293.444 6 -12690014.384 7
 94  1 29  5 29 59.9850000  0  8 24  9  2  7 12 13  4  5
  16331592.950   -26266976.181 6 -20353451.727 9
  16593001.825   -31238448.646 6 -24124682.026 8
  19815334.560    -8765763.793 3  -6773719.200 2
  19210023.052   -22422005.394 5 -17255309.900 5
  16499723.317   -29168887.303 7 -22525518.819 8
  16801755.599   -35211071.583 7 -27063465.813 7
  16268789.052   -33882393.171 7 -26293244.127 9
  17542779.482   -16799033.092 6 -12777863.458 7
 94  1 29  5 30 29.9850000  0  8 24  9  2  7 12 13  4  5
  16315039.677   -26353962.037 6 -20421232.897 9
  16589182.810   -31258514.482 6 -24140317.750 9
  19824770.919    -8716182.963 3  -6735084.834 2
  19216978.466   -22385464.118 5 -17226836.188 5
  16487866.646   -29231203.241 7 -22574076.700 8
  16804725.677   -35195464.885 7 -27051304.754 7
  16265854.614   -33897817.388 7 -26305263.005 9
  17521358.099   -16911608.251 6 -12865584.358 7
 94  1 29  5 30 59.9850000  0  8 24  9  2  7 12 13  4  5
  16298583.325   -26440441.947 6 -20488619.823 9
  16585476.872   -31277989.241 6 -24155492.893 9
  19834239.935    -8666375.147 3  -6696273.563 1
  19223937.380   -22348896.984 5 -17198342.331 5
  16476115.036   -29292957.127 7 -22622196.617 8
  16807739.497   -35179623.707 7 -27038960.985 7
  16263022.302   -33912694.530 7 -26316855.576 9
  17499972.208   -17023993.299 6 -12953157.110 7
 94  1 29  5 31 29.9850000  0  8 24  9  2  7 12 13  4  5
  16282226.974   -26526393.098 6 -20555594.735 9
  16581882.997   -31296873.216 6 -24170207.692 9
  19843770.982    -8616341.235 3  -6657286.164 2
  19230902.942   -22312297.802 5 -17169823.495 5
  16464471.177   -29354147.374 7 -22669877.334 8
  16810800.263   -35163550.185 7 -27026436.175 7
  16260293.661   -33927030.925 7 -26328026.790 9
  17478617.575   -17136206.335 6 -13040595.833 7
 94  1 29  5 31 59.9850000  0  8 24  9  2  7 12 13  4  5
  16265968.919   -26611824.510 6 -20622164.662 9
  16578399.521   -31315181.547 6 -24184473.945 9
  19853332.763    -8566083.677 3  -6618124.495 1
  19237868.138   -22275679.905 5 -17141290.084 5
  16452934.278   -29414778.056 7 -22717122.023 8
  16813901.411   -35147251.976 7 -27013736.280 7
  16257663.825   -33940853.359 7 -26338797.521 9
  17457294.239   -17248265.588 6 -13127914.736 7
 94  1 29  5 32 29.9850000  0  8 24  9  2  7 12 13  4  5
  16249805.489   -26696768.312 6 -20688354.617 8
  16575018.763   -31332937.652 6 -24198309.878 9
  19862928.700    -8515624.668 2  -6578805.797 2
  19244837.161   -22239064.493 5 -17112758.604 5
  16441502.435   -29474858.263 7 -22763937.770 8
  16817043.263   -35130742.002 7 -27000871.369 7
  16255134.052   -33954152.283 7 -26349160.315 9
  17435993.208   -17360201.384 6 -13215137.435 7
 94  1 29  5 32 59.9850000  0  8 24  9  2  7 12 13  4  5
  16233735.192   -26781212.973 6 -20754155.645 8
  16571749.567   -31350120.708 6 -24211699.283 9
  19872571.450    -8464977.887 2  -6539340.814 1
  19251809.700   -22202438.683 5 -17084219.022 5
  16430176.185   -29534377.068 7 -22810316.066 8
  16820225.857   -35114012.986 7 -26987835.783 7
  16252708.982   -33966903.571 7 -26359096.381 9
  17414714.622   -17472015.557 6 -13302265.351 7
 94  1 29  5 33 29.9850000  0  8 24  9  2  7 12 13  4  5
  16217763.357   -26865155.505 6 -20819565.400 8
  16568589.028   -31366722.108 6 -24224635.452 9
  19882244.450    -8414135.151 3  -6499723.142 1
  19258780.450   -22165797.726 5 -17055667.654 5
  16418957.724   -29593327.804 7 -22856251.712 8
  16823450.349   -35097061.909 7 -26974627.155 7
  16250385.091   -33979107.022 7 -26368605.565 9
  17393462.247   -17583705.129 6 -13389296.180 7
 94  1 29  5 33 59.9840000  0  7 24  9  7 12 13  4  5
  16201884.102   -26948605.263 6 -20884591.176 8
  16565539.391   -31382751.600 6 -24237125.972 9
  19265750.000   -22129152.698 5 -17027113.094 5
  16407845.109   -29651714.129 7 -22901747.551 8
  16826719.055   -35079898.331 7 -26961252.944 7
  16248165.266   -33990765.553 7 -26377690.137 9
  17372230.977   -17695265.947 6 -13476226.685 7
 94  1 29  5 34 29.9840000  0  7 24  9  7 12 13  4  5
  16186095.469   -27031548.550 6 -20949222.297 8
  16562602.031   -31398202.120 6 -24249165.340 9
  19272732.024   -22092481.215 5 -16998537.930 5
  16396845.547   -29709534.845 7 -22946802.658 8
  16830022.250   -35062519.741 7 -26947711.189 7
  16246054.149   -34001864.068 7 -26386338.326 9
  17351029.430   -17806693.002 6 -13563052.953 7
 94  1 29  5 34 59.9840000  0  7 24  9  7 12 13  4  5
  16170417.094   -27113954.497 6 -21013434.715 8
  16559770.102   -31413086.663 6 -24260763.700 9
  19279713.117   -22055781.247 5 -16969940.567 5
  16385948.383   -29766790.314 7 -22991417.318 8
  16833370.813   -35044932.599 7 -26934006.923 7
  16244046.133   -34012407.865 7 -26394554.267 9
  17329852.695   -17917972.978 6 -13649764.619 8
 94  1 29  5 35 29.9840000  0  7 24  9  7 12 13  4  5
  16154841.899   -27195805.408 6 -21077214.639 8
  16557041.734   -31427410.541 6 -24271925.177 9
  19286702.391   -22019051.201 5 -16941319.762 5
  16375160.336   -29823474.742 7 -23035587.004 8
  16836758.195   -35027134.548 7 -26920138.315 7
  16242148.242   -34022386.977 7 -26402330.199 9
  17308708.406   -18029090.316 6 -13736349.575 8
 94  1 29  5 35 59.9840000  0  7 24  9  7 12 13  4  5
  16139366.000   -27277118.378 6 -21140575.380 8
  16554419.195   -31441184.636 6 -24282658.251 9
  19293696.883   -21982306.389 5 -16912687.448 5
  16364482.406   -29879597.112 7 -23079318.727 8
  16840181.500   -35009138.238 7 -26906115.217 7
  16240357.617   -34031805.787 7 -26409669.533 9
  17287594.719   -18140047.562 6 -13822809.748 8
 94  1 29  5 36 29.9840000  0  7 24  9  7 12 13  4  5
  16124001.031   -27357878.904 6 -21203505.644 8
  16551904.211   -31454400.028 6 -24292955.986 9
  19300692.883   -21945542.832 5 -16884040.531 5
  16353912.688   -29935141.846 7 -23122600.346 8
  16843648.805   -34990931.254 7 -26891927.958 7
  16238672.383   -34040653.595 7 -26416563.926 9
  17266514.406   -18250818.484 6 -13909124.747 8
 94  1 29  5 36 59.9840000  0  7 24  9  7 12 13  4  5
  16108730.391   -27438114.631 6 -21266026.979 8
  16549496.406   -31467071.852 6 -24302830.139 9
  19307684.149   -21908788.918 5 -16855401.129 5
  16343448.328   -29990119.855 7 -23165440.359 8
  16847148.531   -34972528.041 7 -26877587.802 7
  16237095.375   -34048950.323 7 -26423028.907 9
  17245469.219   -18361417.271 6 -13995305.632 8
 94  1 29  5 37 29.9840000  0  7 24  9  7 12 13  4  5
  16093557.086   -27517848.789 6 -21328157.477 8
  16547190.149   -31479198.667 6 -24312279.620 9
  19314676.742   -21872047.001 5 -16826771.087 5
  16333098.102   -30044525.020 7 -23207834.002 8
  16850687.680   -34953925.981 7 -26863092.693 7
  16235618.055   -34056709.283 7 -26429074.857 9
  17224454.539   -18471842.438 6 -14081351.211 8
 94  1 29  5 37 59.9840000  0  7 24  9  7 12 13  4  5
  16078480.094   -27597096.803 6 -21389909.165 8
  16544980.688   -31490795.424 6 -24321316.071 9
  19321666.891   -21835320.445 5 -16798153.000 5
  16322851.914   -30098360.853 7 -23249784.007 8
  16854265.813   -34935131.800 7 -26848447.880 7
  16234238.219   -34063957.083 7 -26434722.492 9
  17203471.461   -18582105.562 6 -14167270.518 8
 94  1 29  5 38 29.9840000  0  7 24  9  7 12 13  4  5
  16063492.602   -27675848.210 6 -21451273.888 8
  16542873.500   -31501866.222 6 -24329942.688 8
  19328653.672   -21798598.269 5 -16769538.348 5
  16312718.820   -30151619.764 7 -23291284.464 8
  16857880.695   -34916141.273 7 -26833650.073 7
  16232957.672   -34070693.918 7 -26439971.968 9
  17182521.125   -18692210.963 6 -14253066.928 8
 94  1 29  5 38 59.9840000  0  7 24  9  7 12 13  4  5
  16048599.109   -27754107.214 6 -21512254.921 8
  16540866.016   -31512403.821 6 -24338153.806 9
  19335643.086   -21761869.884 5 -16740918.844 4
  16302694.391   -30204297.634 7 -23332332.158 8
  16861530.930   -34896953.673 7 -26818698.697 7
  16231770.547   -34076925.043 7 -26444827.393 9
  17161596.649   -18802159.613 6 -14338741.193 7
 94  1 29  5 39 29.9840000  0  7 24  9  7 12 13  4  5
  16033803.172   -27831864.944 6 -21572845.344 8
  16538963.547   -31522405.603 6 -24345947.421 9
  19342632.109   -21725146.773 5 -16712303.430 4
  16292778.000   -30256399.884 7 -23372931.318 8
  16865220.008   -34877577.676 7 -26803600.520 7
  16230680.133   -34082654.700 7 -26449292.061 9
  17140706.883   -18911946.533 6 -14424289.448 7
 94  1 29  5 39 59.9840000  0  7 24  9  7 12 13  4  5
  16019103.609   -27909102.212 6 -21633030.217 8
  16537168.141   -31531854.973 6 -24353310.594 9
  19349620.109   -21688422.247 5 -16683686.932 4
  16282973.609   -30307920.678 7 -23413077.401 8
  16868942.797   -34858010.670 7 -26788353.511 7
  16229687.899   -34087862.448 7 -26453350.048 9
  17119848.039   -19021558.737 6 -14509701.563 7
 94  1 29  5 40 29.9840000  0  7 24  9  7 12 13  4  5
  16004506.188   -27985821.878 6 -21692811.770 8
  16535476.758   -31540746.406 6 -24360239.012 9
  19356605.774   -21651711.401 5 -16655081.086 5
  16273279.774   -30358867.391 7 -23452776.145 8
  16872700.180   -34838263.104 7 -26772965.810 7
  16228796.320   -34092545.055 7 -26456998.833 9
  17099022.094   -19130994.115 6 -14594975.876 8
 94  1 29  5 40 59.9840000  0  7 24  9  7 12 13  4  5
  15990009.953   -28062005.241 6 -21752175.423 8
  16533890.281   -31549064.751 6 -24366720.854 9
  19363590.688   -21615008.460 5 -16626481.403 5
  16263693.781   -30409236.143 7 -23492024.539 7
  16876491.789   -34818334.645 7 -26757437.139 7
  16228010.758   -34096703.562 7 -26460239.229 9
  17078234.461   -19240240.930 6 -14680103.267 7
 94  1 29  5 41 29.9840000  0  7 24  9  7 12 13  4  5
  15975617.258   -28137638.979 6 -21811110.792 8
  16532417.289   -31556819.577 6 -24372763.582 9
  19370572.781   -21578311.869 5 -16597886.681 5
  16254218.453   -30459026.510 7 -23530822.237 7
  16880319.141   -34798227.902 7 -26741769.558 7
  16227316.469   -34100330.441 7 -26463065.367 9
  17057478.899   -19349305.001 6 -14765088.260 8
 94  1 29  5 41 59.9840000  0  7 24  9  7 12 13  4  5
  15961328.828   -28212725.179 6 -21869619.513 8
  16531045.914   -31564019.166 6 -24378373.660 9
  19377560.484   -21541607.385 5 -16569285.795 5
  16244856.227   -30508232.777 7 -23569164.787 8
  16884179.328   -34777939.990 7 -26725960.803 7
  16226728.649   -34103427.985 7 -26465479.043 9
  17036756.149   -19458200.711 6 -14849942.065 8
 94  1 29  5 42 29.9840000  0  7 24  9  7 12 13  4  5
  15947143.414   -28287261.810 6 -21927699.992 8
  16529781.094   -31570664.963 6 -24383552.225 9
  19384544.383   -21504891.242 5 -16540675.833 4
  16235605.750   -30556854.427 7 -23607051.802 8
  16888073.953   -34757473.816 7 -26710013.143 7
  16226234.828   -34106005.708 7 -26467487.663 9
  17016065.641   -19566935.440 6 -14934670.414 8
 94  1 29  5 42 59.9840000  0  7 24  9  7 12 13  4  5
  15933063.164   -28361249.507 6 -21985352.734 8
  16528621.688   -31576762.476 6 -24388303.548 9
  19391534.805   -21468165.188 5 -16512058.147 4
  16226462.828   -30604894.369 7 -23644485.525 8
  16892001.070   -34736835.277 7 -26693931.174 7
  16225842.766   -34108070.191 7 -26469096.351 9
  16995403.734   -19675515.126 6 -15019277.966 8
 94  1 29  5 43 29.9840000  0  7 24  9  7 12 13  4  5
  15919083.477   -28434713.971 6 -22042597.764 8
  16527562.070   -31582328.692 6 -24392640.877 9
  19398523.211   -21431430.176 5 -16483433.465 4
  16217429.766   -30652358.697 7 -23681470.725 8
  16895957.891   -34716033.436 7 -26677721.955 7
  16225551.953   -34109620.271 7 -26470304.209 9
  16974770.234   -19783944.834 6 -15103768.642 8
 94  1 29  5 43 59.9840000  0  7 24  9  7 12 13  4  5
  15905204.016   -28507655.496 6 -22099435.315 8
  16526607.172   -31587352.958 6 -24396555.905 9
  19405517.703   -21394674.471 5 -16454792.676 5
  16208508.328   -30699239.087 7 -23718000.906 8
  16899948.828   -34695062.959 7 -26661381.331 7
  16225350.500   -34110656.372 7 -26471111.556 9
  16954170.391   -19892198.251 6 -15188121.944 8
 94  1 29  5 44 29.9840000  0  7 24  9  7 12 13  4  5
  15891424.336   -28580073.325 6 -22155864.780 8
  16525755.024   -31591836.404 6 -24400049.524 9
  19412518.570   -21357895.351 5 -16426133.634 5
  16199699.945   -30745531.842 7 -23754073.194 8
  16903970.680   -34673923.135 7 -26644908.751 7
  16225253.750   -34111171.409 7
  16933609.922   -20000244.973 6 -15272314.195 8
 94  1 29  5 44 59.9840000  0  7 24  9  7 12 13  4  5
  15877739.555   -28651982.695 7 -22211898.057 8
  16524999.016   -31595788.205 6 -24403128.861 8
  19419520.149   -21321096.760 5 -16397459.420 5
  16191001.703   -30791236.714 7 -23789687.386 8
  16908025.867   -34652616.676 7 -26628306.323 7
  16225259.352   -34111164.915 7
  16913090.477   -20108071.753 6 -15356335.059 8
 94  1 29  5 45 29.9840000  0  8 24  9 20  7 12 13  4  5
  15864150.375   -28723390.771 6 -22267540.695 8
  16524348.227   -31599220.851 6 -24405803.671 9
  19876544.149          -0.35312
  19426525.297   -21284289.213 4 -16368778.232 5
  16182417.602   -30836355.138 7 -23824844.614 8
  16912113.070   -34631147.882 7 -26611577.396 7
  16225350.969   -34110644.021 7
  16892614.914   -20215675.603 6 -15440182.213 8
 94  1 29  5 45 59.9840000  0  8 24  9 20  7 12 13  4  5
  15850660.070   -28794290.550 6 -22322787.267 8
  16523790.422   -31602133.077 6 -24408072.946 9
  19850589.305     -136437.780 3        -0.48412
  19433525.367   -21247489.009 4 -16340102.777 5
  16173944.430   -30880880.980 7 -23859540.081 8
  16916228.328   -34609513.301 7 -26594719.279 7
  16225551.875   -34109616.671 7 -26470301.409 9
  16872180.211   -20323051.688 6 -15523851.896 8
 94  1 29  5 46 29.9840000  0  8 24  9 20  7 12 13  4  5
  15837263.445   -28864683.785 7 -22377639.124 8
  16523340.805   -31604526.608 6 -24409938.038 8
  19824624.953     -272900.226 3   -106334.882 2
  19440524.524   -21210709.973 4 -16311443.812 5
  16165583.578   -30924818.016 7 -23893776.737 8
  16920375.805   -34587719.950 7 -26577737.449 7
  16225839.461   -34108089.868 7 -26469111.693 9
  16851788.016   -20430220.267 6 -15607359.883 8
 94  1 29  5 46 59.9840000  0  8 24  9 20  7 12 13  4  5
  15823968.164   -28934558.985 7 -22432087.312 8
  16522980.024   -31606389.190 6 -24411389.424 8
  19798643.563     -409381.858 3   -212684.216 3
  19447524.524   -21173956.535 4 -16282804.783 5
  16157334.680   -30968161.336 7 -23927550.762 7
  16924553.930   -34565765.437 7 -26560630.032 7
  16226225.188   -34106070.515 7 -26467538.170 9
  16831431.969   -20537195.391 7 -15690717.117 8
 94  1 29  5 47 29.9840000  0  8 24  9 20  7 12 13  4  5
  15810772.484   -29003901.907 6 -22486120.755 8
  16522730.094   -31607722.271 6 -24412428.201 8
  19772678.656     -545879.807 3   -319046.251 2
  19454509.461   -21137223.547 4 -16254181.682 4
  16149199.563   -31010908.523 7 -23960860.262 8
  16928761.656   -34543650.350 7 -26543397.511 7
  16226701.367   -34103563.801 7 -26465584.892 9
  16811111.399   -20643982.624 7 -15773927.945 8
 94  1 29  5 47 59.9840000  0  8 24  9 20  7 12 13  4  5
  15797677.399   -29072711.952 6 -22539738.971 8
  16522577.578   -31608521.573 6 -24413051.056 8
  19746698.227     -682396.174 3   -425422.660 2
  19461499.281   -21100503.546 4 -16225568.699 3
  16141179.484   -31053062.418 7 -23993707.463 8
  16933001.883   -34521380.080 7 -26526044.068 7
  16227269.977   -34100572.151 6 -26463253.736 9
  16790824.016   -20750589.325 7 -15856998.105 8
 94  1 29  5 48 29.9840000  0  8 24  9 20  7 12 13  4  5
  15784687.250   -29140978.350 7 -22592933.556 8
  16522529.992   -31608775.837 6
  19720714.734     -818930.800 3   -531813.289 2
  19468484.813   -21063785.524 4 -16196957.277 5
  16133269.149   -31094623.520 7 -24026092.748 7
  16937267.875   -34498957.794 7 -26508572.162 6
  16227933.438   -34097091.981 6 -26460541.921 9
  16770571.320   -20857016.121 7 -15939928.090 8
 94  1 29  5 48 59.9840000  0  8 24  9 20  7 12 13  4  5
  15771802.000   -29208690.244 6 -22645696.065 8
  16522588.594   -31608474.561 6
  19694725.758     -955473.919 3   -638210.551 1
  19475476.422   -21027060.007 4 -16168340.004 4
  16125473.039   -31135582.814 6 -24058009.104 7
  16941563.133   -34476377.319 7 -26490976.993 6
  16228690.445   -34093116.130 7 -26457443.860 9
  16750357.984   -20963243.786 7 -16022702.892 8
 94  1 29  5 49 29.9840000  0  8 24  9 20  7 12 13  4  5
  15759018.375   -29275864.887 6 -22698039.943 8
  16522746.227   -31607645.088 6 -24412368.117 8
  19668740.367    -1092039.148 3   -744625.023 3
  19482464.094   -20990336.965 4 -16139724.650 5
  16117793.305   -31175954.507 6 -24089467.568 8
  16945888.141   -34453655.210 7 -26473271.452 6
  16229540.555   -34088647.919 7 -26453962.136 9
  16730178.102   -21069283.193 7 -16105330.985 8
 94  1 29  5 49 59.9840000  0  8 24  9 20  7 12 13  4  5
  15746339.844   -29342498.302 7 -22749962.079 8
  16523005.899   -31606285.587 6 -24411308.773 8
  19642746.649    -1228622.089 3   -851053.288 3
  19489444.899   -20953625.052 4 -16111117.973 5
  16110221.359   -31215735.221 6 -24120465.543 8
  16950239.383   -34430791.096 7 -26455455.262 6
  16230481.609   -34083682.939 7 -26450093.326 9
  16710037.320   -21175127.015 7 -16187806.686 8
 94  1 29  5 50 29.9840000  0  8 24  9 20  7 12 13  4  5
  15733760.211   -29408597.090 6 -22801467.627 8
  16523360.156   -31604413.700 6 -24409850.157 8
  19616758.422    -1365226.695 3   -957498.458 2
  19496422.555   -20916945.622 3 -16082536.640 5
  16102764.570   -31254929.606 7 -24151006.636 8
  16954615.609   -34407791.690 7 -26437533.651 6
  16231523.938   -34078235.972 7 -26445848.939 9
  16689933.719   -21280771.597 7 -16270127.134 8
 94  1 29  5 50 59.9840000  0  8 24  9 20  7 12 13  4  5
  15721286.875   -29474153.710 6 -22852550.691 8
  16523810.297   -31602040.658 6 -24408001.039 8
  19590755.430    -1501835.693 3  -1063947.019 2
  19503404.102   -20880280.120 4 -16053966.132 5
  16095420.711   -31293521.181 7 -24181078.003 7
  16959020.172   -34384643.533 7 -26419496.137 7
  16232652.516   -34072299.657 7 -26441223.242 9
  16669872.633   -21386190.195 7 -16352271.494 8
 94  1 29  5 51 29.9840000  0  8 24  9 20  7 12 13  4  5
  15708910.586   -29539181.514 6 -22903221.696 8
  16524356.086   -31599185.668 6 -24405776.373 8
  19564755.539    -1638451.327 3  -1170400.750 3
  19510383.320   -20843620.503 4 -16025400.218 5
  16088191.305   -31331513.336 7 -24210682.286 7
  16963453.680   -34361352.374 7 -26401347.194 6
  16233871.664   -34065878.247 7 -26436219.558 9
  16649856.078   -21491379.892 7 -16434237.501 8
 94  1 29  5 51 59.9840000  0  8 24  9 20  7 12 13  4  5
  15696638.367   -29603681.221 6 -22953481.198 8
  16524989.727   -31595844.562 6 -24403172.919 8
  19538756.977    -1775081.948 3  -1276866.192 3
  19517354.375   -20806967.922 4 -15996839.767 4
  16081072.977   -31368915.237 7 -24239826.638 8
  16967911.680   -34337929.648 7 -26383095.727 6
  16235182.031   -34058994.084 7 -26430855.272 9
  16629883.594   -21596338.979 7 -16516023.799 8
 94  1 29  5 52 29.9840000  0  8 24  9 20  7 12 13  4  5
  15684465.266   -29667639.775 6 -23003319.025 8
  16525720.711   -31592002.044 6 -24400178.765 8
  19512760.656    -1911714.477 3  -1383333.110 3
  19524338.961   -20770292.632 4 -15968261.645 4
  16074070.813   -31405714.959 6 -24268501.748 8
  16972392.594   -34314366.016 7 -26364734.459 6
  16236586.055   -34051627.958 7 -26425115.440 9
  16609956.313   -21701058.111 7 -16597623.126 8
 94  1 29  5 52 59.9840000  0  8 24  9 20  7 12 13  4  5
  15672396.555   -29731061.385 6 -23052738.450 8
  16526553.719   -31587651.370 6 -24396788.640 8
  19486759.258    -2048350.562 3  -1489802.790 2
  19531321.195   -20733581.817 4 -15939655.832 5
  16067182.977   -31441915.227 6 -24296709.751 7
  16976904.445   -34290666.503 6 -26346267.312 6
  16238077.836   -34043769.273 7 -26418991.784 9
  16590072.688   -21805543.046 7 -16679039.955 8
 94  1 29  5 53 29.9840000  0  8 24  9 20  7 12 13  4  5
  15660431.945   -29793945.860 7 -23101739.336 8
  16527478.383   -31582769.837 6 -24392984.857 8
  19460752.625    -2184994.188 3  -1596278.334 1
  19538312.672   -20696853.041 3 -15911036.016 4
  16060406.063   -31477520.800 6 -24324454.366 7
  16981440.734   -34266838.378 6 -26327699.951 6
  16239667.852   -34035414.892 7 -26412481.886 9
  16570234.953   -21909800.737 7 -16760279.708 8
 94  1 29  5 53 59.9830000  0  8 24  9 20  7 12 13  4  5
  15648570.651   -29856275.791 7 -23150308.106 8
  16528509.066   -31577348.737 6 -24388760.644 8
  19434756.691    -2321633.402 3  -1702750.452 1
  19545300.206   -20660124.596 3 -15882416.469 4
  16053744.237   -31512524.200 6 -24351729.757 7
  16985998.519   -34242878.350 6 -26309029.806 6
  16241355.441   -34026562.218 7 -26405583.698 9
  16550438.605   -22013828.479 7 -16841340.291 8
 94  1 29  5 54 29.9830000  0  8 24  9 20  7 12 13  4  5
  15636810.269   -29918072.888 7 -23198461.678 8
  16529640.870   -31571406.267 6 -24384130.156 8
  19408755.112    -2458277.348 3  -1809226.254 2
  19552284.300   -20623406.442 3 -15853804.934 5
  16047199.558   -31546928.996 6 -24378538.711 8
  16990581.167   -34218788.537 6 -26290258.520 6
  16243133.784   -34017214.949 7 -26398300.110 9
  16530683.214   -22117637.618 7 -16922230.535 8
 94  1 29  5 54 59.9830000  0  8 24  9 20  7 12 13  4  5
  15625151.362   -29979345.931 7 -23246206.898 8
  16530869.417   -31564957.609 6 -24379105.250 8
  19382747.058    -2594921.722 3  -1915702.378 2
  19559273.691   -20586711.042 4 -15825211.142 3
  16040766.323   -31580735.704 6 -24404881.616 8
  16995189.003   -34194573.335 6 -26271389.543 6
  16245000.980   -34007395.383 7 -26390648.503 9
  16510973.276   -22221217.378 7 -17002942.042 8
 94  1 29  5 55 29.9830000  0  8 24  9 20  7 12 13  4  5
  15613588.675   -30040098.714 7 -23293546.717 8
  16532190.964   -31558020.823 6 -24373699.969 8
  19356749.964    -2731562.941 3  -2022176.048 2
  19566248.355   -20550032.962 4 -15796630.838 4
  16034447.128   -31613941.589 6 -24430756.342 8
  16999821.105   -34170232.518 6 -26252422.674 6
  16246954.847   -33997120.780 7 -26382642.315 9
  16491305.784   -22324569.224 7 -17083475.943 9
 94  1 29  5 55 59.9830000  0  8 24  9 20  7 12 13  4  5
  15602126.401   -30100335.134 7 -23340484.185 8
  16533599.675   -31550616.208 6 -24367930.137 8
  19330746.761    -2868196.163 3  -2128643.520 2
  19573232.901   -20513359.349 4 -15768054.015 3
  16028242.761   -31646543.269 6 -24456160.255 8
  17004476.167   -34145764.620 6 -26233356.791 6
  16248996.331   -33986398.145 7 -26374287.020 9
  16471680.558   -22427701.309 7 -17163838.611 8
 94  1 29  5 56 29.9830000  0  8 24  9 20  7 12 13  4  5
  15590760.636   -30160067.857 7 -23387029.157 8
  16535096.081   -31542743.812 6 -24361795.811 8
  19304748.769    -3004825.208 3  -2235107.690 2
  19580212.753   -20476670.839 4 -15739465.588 4
  16022152.659   -31678545.822 6 -24481097.328 7
  17009154.253   -34121177.089 6 -26214197.675 6
  16251121.480   -33975238.260 7 -26365591.011 9
  16452098.448   -22530608.566 7 -17244026.087 9
 94  1 29  5 56 59.9830000  0  8 24  9 20  7 12 13  4  5
  15579491.722   -30219285.201 7 -23433172.529 8
  16536685.136   -31534384.215 6 -24355281.861 8
  19278748.831    -3141447.870 3  -2341566.891 3
  19587197.573   -20439964.950 4 -15710863.604 4
  16016176.425   -31709948.324 6 -24505566.813 7
  17013859.823   -34096471.100 6 -26194946.259 6
  16253328.425   -33963632.083 7 -26356547.235 9
  16432558.316   -22633287.904 7 -17324035.958 9
 94  1 29  5 57 29.9830000  0  8 24  9 20  7 12 13  4  5
  15568323.042   -30277973.184 7 -23478903.416 8
  16538373.589   -31525517.373 6 -24348372.639 8
  19252755.597    -3278062.087 4  -2448019.532 2
  19594181.198   -20403252.162 4 -15682256.260 3
  16010317.776   -31740750.170 6 -24529568.262 8
  17018582.245   -34071647.873 6 -26175603.490 6
  16255624.683   -33951570.427 7 -26347148.551 9
  16413061.355   -22735743.138 7 -17403871.203 9
 94  1 29  5 57 59.9830000  0  8 24  9 20  7 12 13  4  5
  15557260.214   -30336112.724 7 -23524206.942 8
  16540160.573   -31516122.053 6 -24341051.623 8
  19226757.019    -3414665.950 3  -2554464.098 3
  19601167.480   -20366544.027 3 -15653652.536 4
  16004569.409   -31770950.530 6 -24553101.018 7
  17023326.526   -34046708.911 6 -26156170.534 6
  16258008.706   -33939042.987 7 -26337386.907 9
  16393609.191   -22837967.296 7 -17483526.394 9
 94  1 29  5 58 29.9830000  0  8 24  9 20  7 12 13  4  5
  15546303.706   -30393691.621 7 -23569073.610 8
  16542050.964   -31506188.828 6 -24333311.455 8
  19200764.558    -3551256.670 3  -2660898.420 4
  19608145.925   -20329847.868 3 -15625058.146 4
  15998936.581   -31800548.074 6 -24576164.045 8
  17028097.066   -34021654.788 6 -26136647.837 6
  16260482.706   -33926044.441 7 -26327258.172 9
  16374203.831   -22939944.698 7 -17562989.299 9
 94  1 29  5 58 59.9830000  0  8 24  9 20  7 12 13  4  5
  15535455.198   -30450703.895 7 -23613498.749 7
  16544039.331   -31495736.940 6 -24325167.131 8
  19174772.714    -3687833.663 3  -2767322.035 3
  19615127.495   -20293185.209 3 -15596489.868 5
  15993418.753   -31829544.068 6 -24598758.336 8
  17032883.987   -33996488.661 6 -26117037.868 6
  16263045.120   -33912575.234 6 -26316762.685 9
  16354843.909   -23041683.085 7 -17642265.968 9
 94  1 29  5 59 29.9830000  0  8 24  9 20  7 12 13  4  5
  15524713.659   -30507148.936 7 -23657481.889 7
  16546121.581   -31484791.812 6 -24316638.466 8
  19148790.003    -3824390.987 4  -2873730.329 2
  19622098.136   -20256553.101 3 -15567945.387 3
  15988016.644   -31857933.790 6 -24620880.202 8
  17037697.034   -33971207.813 6 -26097338.500 6
  16265694.003   -33898648.649 7 -26305910.803 9
  16335530.566   -23143171.359 7 -17721347.748 9
 94  1 29  5 59 59.9830000  0  8 24  9 20  7 12 13  4  5
  15514075.042   -30563046.093 7 -23701038.103 7
  16548295.214   -31473378.257 6 -24307744.795 8
  19122806.487    -3960934.960 4  -2980128.264 2
  19629065.253   -20219938.883 3 -15539414.852 5
  15982728.644   -31885725.213 6 -24642535.870 7
  17042526.425   -33945822.153 6 -26077557.463 6
  16268429.292   -33884281.500 7 -26294715.628 9
  16316267.073   -23244406.179 7 -17800232.024 9
 94  1 29  6  0 29.9830000  0  8 24  9 20  7 12 13  4  5
  15503544.331   -30618396.578 7 -23744168.349 7
  16550555.206   -31461507.881 6 -24298495.158 8
  19096827.448    -4097452.520 4  -3086505.584 2
  19636027.800   -20183323.093 3 -15510883.080 4
  15977555.128   -31912906.883 6 -24663716.405 8
  17047379.362   -33920321.981 6 -26057687.211 6
  16271248.862   -33869468.542 7 -26283173.068 9
  16297054.862   -23345366.285 7 -17878902.234 9
 94  1 29  6  0 59.9830000  0  8 24  9 20  7 12 13  4  5
  15493115.144   -30673201.494 7 -23786873.469 8
  16552900.948   -31449181.174 6 -24288889.943 8
  19070853.995    -4233935.745 4  -3192856.157 2
  19642999.425   -20146694.844 3 -15482341.587 4
  15972499.245   -31939472.459 6 -24684416.870 8
  17052254.394   -33894702.749 6 -26037724.174 6
  16274150.386   -33854206.968 7 -26271280.930 9
  16277896.808   -23446041.492 7 -17957350.448 9
 94  1 29  6  1 29.9830000  0  8 24  9 20  7 12 13  4  5
  15482785.698   -30727479.583 7 -23829168.085 7
  16555335.573   -31436388.047 6 -24278921.285 8
  19044889.253    -4370390.736 4  -3299184.712 3
  19649979.487   -20110050.534 3 -15453787.605 3
  15967561.753   -31965429.467 6 -24704643.118 8
  17057149.253   -33868973.893 6 -26017675.720 6
  16277143.081   -33838492.668 7 -26259036.021 9
  16258791.433   -23546438.300 7 -18035581.725 9
 94  1 29  6  1 59.9830000  0  7 24  9 20 12 13  4  5
  15472555.355   -30781244.105 7 -23871062.503 7
  16557858.886   -31423125.642 6 -24268586.950 8
  19018926.519    -4506823.772 4  -3405496.181 4
  15962736.081   -31990785.886 6 -24724401.376 8
  17062064.503   -33843144.934 6 -25997549.256 6
  16280218.847   -33822326.183 7 -26246438.754 9
  16239736.269   -23646570.359 7 -18113606.699 9
 94  1 29  6  2 29.9830000  0  7 24  9 20 12 13  4  5
  15462422.745   -30834487.881 7 -23912551.146 7
  16560471.276   -31409389.224 6 -24257883.256 8
  18992969.120    -4643226.878 4  -3511784.318 3
  15958027.480   -32015535.584 6 -24743686.862 8
  17066999.378   -33817211.759 6 -25977341.593 6
  16283383.808   -33805698.051 7 -26233481.775 9
  16220733.956   -23746431.590 7 -18191420.640 9
 94  1 29  6  2 59.9830000  0  7 24  9 20 12 13  4  5
  15452388.019   -30887221.338 7 -23953642.148 7
  16563175.581   -31395167.064 6 -24246801.075 8
  18967017.456    -4779604.982 4  -3618052.982 3
  15953429.417   -32039685.319 6 -24762504.842 8
  17071952.089   -33791182.550 6 -25957059.095 6
  16286634.636   -33788621.501 7 -26220175.372 9
  16201780.159   -23846035.633 7 -18269034.181 9
 94  1 29  6  3 29.9830000  0  7 24  9 20 12 13  4  5
  15442451.191   -30939437.448 7 -23994330.016 7
  16565977.409   -31380456.003 6 -24235337.927 8
  18941067.964    -4915951.972 4  -3724297.411 2
  15948951.386   -32063230.845 6 -24780852.015 8
  17076926.222   -33765054.638 6 -25936699.686 6
  16289963.597   -33771116.043 7 -26206534.756 9
  16182874.597   -23945380.815 7 -18346446.008 9
 94  1 29  6  3 59.9830000  0  7 24  9 20 12 13  4  5
  15432617.620   -30991117.872 7 -24034600.471 7
  16568869.691   -31365270.133 6 -24223504.787 8
  18915131.323    -5052266.561 4  -3830516.573 3
  15944582.870   -32086172.328 6 -24798728.499 8
  17081911.464   -33738830.027 6 -25916264.926 6
  16293373.487   -33753201.310 7 -26192575.226 9
  16164021.573   -24044459.340 7 -18423650.050 9
 94  1 29  6  4 29.9830000  0  7 24  9 20 12 13  4  5
  15422882.972   -31042274.825 7 -24074463.022 7
  16571846.651   -31349630.617 6 -24211318.168 8
  18889194.042    -5188571.153 4  -3936727.932 4
  15940329.839   -32108534.182 6 -24816153.332 8
  17086916.237   -33712534.580 6 -25895774.978 6
  16296855.073   -33734897.376 7 -26178312.416 9
  16145213.894   -24143291.112 7 -18500661.822 9
 94  1 29  6  4 59.9830000  0  7 24  9 20 12 13  4  5
  15413250.511   -31092892.949 7 -24113905.704 8
  16574905.175   -31333533.080 6 -24198774.637 8
  18863263.073    -5324850.356 4  -4042919.519 4
  15936188.370   -32130303.304 6 -24833116.291 8
  17091938.128   -33686156.498 6 -25875220.630 6
  16300414.714   -33716193.175 7 -26163737.711 9
  16126455.605   -24241867.771 7 -18577474.795 9
 94  1 29  6  5 29.9830000  0  7 24  9 20 12 13  4  5
  15403723.511   -31142951.055 7 -24152912.017 8
  16578055.534   -31316985.808 6 -24185880.675 7
  18837333.566    -5461089.292 4  -4149079.734 3
  15932160.612   -32151466.388 6 -24849607.022 8
  17096972.761   -33659684.246 6 -25854592.896 6
  16304057.901   -33697057.053 7 -26148826.440 9
  16107747.761   -24340174.956 7 -18654077.791 9
 94  1 29  6  5 59.9830000  0  7 24  9 20 12 13  4  5
  15394301.417   -31192468.905 7 -24191497.349 8
  16581287.909   -31300008.163 6 -24172651.356 8
  18811415.378    -5597302.508 4  -4255219.903 3
  15928244.761   -32172039.889 6 -24865638.335 8
  17102029.605   -33633135.757 6 -25833905.770 6
  16307779.245   -33677482.442 7 -26133573.499 9
  16089090.034   -24438230.612 7 -18730484.799 9
 94  1 29  6  6 29.9830000  0  7 24  9 20 12 13  4  5
  15384982.222   -31241442.870 7 -24229658.869 8
  16584602.073   -31282585.701 6 -24159075.432 8
  18785503.753    -5733473.102 5  -4361326.873 3
  15924444.839   -32192008.927 6 -24881198.637 8
  17107096.089   -33606497.464 6 -25813148.675 6
  16311594.019   -33657455.153 7 -26117967.827 9
  16070481.448   -24536016.619 7 -18806681.693 9
 94  1 29  6  6 59.9830000  0  7 24  9 20 12 13  4  5
  15375765.651   -31289875.365 7 -24267398.467 7
  16588001.370   -31264719.550 6 -24145153.766 8
  18759602.901    -5869596.817 5  -4467397.306 5
  15920758.722   -32211371.392 6 -24896286.288 8
  17112180.894   -33579768.535 6 -25792320.936 6
  16315490.261   -33636985.353 7 -26102017.328 9
  16051925.089   -24633531.264 7 -18882667.125 9
 94  1 29  6  7 29.9830000  0  7 24  9 20 12 13  4  5
  15366649.855   -31337779.337 7 -24304726.222 8
  16591487.058   -31246404.238 6 -24130882.112 8
  18733704.214    -6005682.505 4  -4573438.090 3
  15917186.987   -32230138.242 6 -24910909.819 8
  17117286.831   -33552961.335 6 -25771432.213 6
  16319460.917   -33616096.074 7 -26085739.970 9
  16033420.370   -24730776.573 7 -18958442.693 9
 94  1 29  6  7 59.9830000  0  7 24  9 20 12 13  4  5
  15357634.667   -31385157.440 7 -24341644.219 8
  16595060.230   -31227623.770 6 -24116247.994 8
  18707813.558    -6141725.037 5  -4679445.250 4
  15913731.066   -32248306.547 6 -24925066.947 8
  17122401.862   -33526074.257 6 -25750481.243 6
  16323514.026   -33594814.196 7 -26069156.688 9
  16014970.386   -24827733.280 7 -19033993.373 9
 94  1 29  6  8 29.9830000  0  7 24  9 20 12 13  4  5
  15348718.566   -31432010.941 7 -24378153.436 8
  16598722.808   -31208376.638 6 -24101250.254 8
  18681935.847    -6277723.566 5  -4785418.108 5
  15910388.214   -32265877.407 6 -24938758.544 8
  17127532.675   -33499109.701 6 -25729469.917 6
  16327635.753   -33573145.908 7 -26052272.309 9
  15996576.261   -24924388.790 7 -19109309.352 9
 94  1 29  6  8 59.9830000  0  7 24  9 20 12 13  4  5
  15339901.737   -31478342.166 7 -24414255.680 8
  16602476.409   -31188651.998 6 -24085880.424 8
  18656064.972    -6413668.816 5  -4891349.471 4
  15907157.870   -32282843.934 6 -24951979.229 8
  17132679.339   -33472061.789 6 -25708393.627 6
  16331835.659   -33551090.306 7 -26035086.125 9
  15978241.269   -25020738.594 7 -19184387.128 9
 94  1 29  6  9 29.9830000  0  7 24  9 20 12 13  4  5
  15331182.917   -31524162.704 7 -24449959.983 8
  16606321.144   -31168462.043 6 -24070148.012 8
  18630204.448    -6549562.857 5  -4997240.946 3
  15904042.151   -32299210.636 6 -24964732.511 8
  17137839.003   -33444936.438 6 -25687256.991 6
  16336103.644   -33528651.066 7 -26017601.006 9
  15959966.925   -25116774.150 7 -19259220.029 9
 94  1 29  6  9 59.9830000  0  7 24  9 20 12 13  4  5
  15322558.495   -31569479.635 7 -24485271.869 8
  16610244.503   -31147825.837 6 -24054067.861 7
  18604353.808    -6685415.563 5  -5103100.187 4
  15901041.698   -32314989.211 6 -24977027.512 7
  17143013.948   -33417746.517 6 -25666070.048 6
  16340448.198   -33505831.249 7 -25999819.331 9
  15941747.198   -25212511.489 7 -19333820.554 9
 94  1 29  6 10 29.9830000  0  7 24  9 20 12 13  4  5
  15314033.605   -31614272.053 7 -24520175.046 8
  16614259.519   -31126734.338 6 -24037632.952 8
  18578515.214    -6821203.839 5  -5208909.241 5
  15898156.683   -32330159.109 6 -24988848.227 8
  17148206.269   -33390472.506 6 -25644817.581 6
  16344863.620   -33482605.599 7 -25981721.419 9
  15923586.706   -25307949.235 7 -19408187.626 9
 94  1 29  6 10 59.9830000  0  7 24  9 20 12 13  4  5
  15305609.737   -31658545.002 7 -24554673.439 7
  16618354.972   -31105205.016 6 -24020856.863 8
  18552686.683    -6956934.181 5  -5314673.113 5
  15895382.378   -32344729.147 6 -25000201.512 8
  17153406.433   -33363124.237 6 -25623507.251 6
  16349360.401   -33458994.531 7 -25963323.193 9
  15905478.550   -25403108.005 7 -19482337.308 9
 94  1 29  6 11 29.9830000  0  7 24  9 20 12 13  4  5
  15297288.105   -31702282.875 7 -24588754.898 8
  16622533.550   -31083247.124 6 -24003746.838 7
  18526868.995    -7092604.650 5  -5420390.360 4
  15892724.644   -32358699.594 6 -25011087.579 8
  17158626.378   -33335703.146 6 -25602140.174 6
  16353929.253   -33434982.450 7 -25944612.479 9
  15887423.995   -25497985.893 7 -19556268.126 9
 94  1 29  6 11 59.9830000  0  7 24  9 20 12 13  4  5
  15289064.339   -31745484.623 7 -24622418.594 8
  16626796.292   -31060872.248 6 -23986311.897 7
  18501061.386    -7228216.963 5  -5526062.273 4
  15890179.730   -32372074.966 6 -25021509.966 8
  17163857.300   -33308214.539 6 -25580720.487 6
  16358573.378   -33410571.314 7 -25925590.819 9
  15869421.159   -25592591.590 7 -19629986.844 9
 94  1 29  6 12 29.9830000  0  7 24  9 20 12 13  4  5
  15280945.870   -31788155.475 7 -24655668.603 8
  16631125.941   -31038097.779 6 -23968565.577 8
  18475266.862    -7363770.396 5  -5631688.318 5
  15887748.112   -32384856.730 6 -25031469.796 8
  17169099.948   -33280660.884 6 -25559250.120 6
  16363296.237   -33385756.174 7 -25906254.344 9
  15851471.784   -25686918.659 7 -19703488.461 9
 94  1 29  6 12 59.9830000  0  8 24  9 20 16 12 13  4  5
  15272928.237   -31830284.339 7 -24688496.281 8
  16635537.503   -31014916.517 6 -23950502.274 8
  18449485.456    -7499259.182 5  -5737263.967 5
  19589657.425          -0.16012
  15885429.526   -32397041.731 6 -25040964.612 8
  17174359.933   -33253040.058 6 -25537727.408 6
  16368098.620   -33360513.951 7 -25886585.076 9
  15833580.878   -25780933.402 7 -19776746.704 9
 94  1 29  6 13 29.9830000  0  8 24  9 20 16 12 13  4  5
  15265012.495   -31871880.336 7 -24720908.737 8
  16640027.972   -30991326.046 6 -23932120.119 8
  18423714.620    -7634683.645 5  -5842789.513 5
  19564555.706     -131972.996 3
  15883222.917   -32408632.731 6 -25049996.575 8
  17179626.339   -33225355.558 6 -25516155.073 6
  16372985.355   -33334840.629 7 -25866579.895 9
  15815754.362   -25874616.564 7 -19849746.576 9
 94  1 29  6 13 59.9830000  0  8 24  9 20 16 12 13  4  5
  15257197.737   -31912951.635 7 -24752912.342 7
  16644595.105   -30967321.532 6 -23913415.325 8
  18397957.667    -7770040.015 5  -5948261.998 5
  19539417.667     -264032.116 2        -0.29211
  15881129.792   -32419628.425 6 -25058564.662 8
  17184904.089   -33197607.013 6 -25494532.842 6
  16377951.808   -33308750.519 7 -25846249.945 9
  15797991.214   -25967959.220 7 -19922481.117 9
 94  1 29  6 14 29.9820000  0  8 24  9 20 16 12 13  4  5
  15249480.615   -31953505.862 7 -24784513.035 7
  16649241.334   -30942903.417 6 -23894388.234 8
  18372214.061    -7905327.367 5  -6053680.689 4
  19514266.779     -396178.068 2   -102971.083 1
  15879149.826   -32430034.460 6 -25066673.267 8
  17190196.912   -33169802.148 6 -25472866.730 6
  16382990.764   -33282262.335 7 -25825609.798 9
  15780295.490   -26060957.980 7 -19994947.681 9
 94  1 29  6 14 59.9820000  0  8 24  9 20 16 12 13  4  5
  15241859.397   -31993550.125 7 -24815716.350 7
  16653972.514   -30918054.264 6 -23875025.276 8
  18346480.545    -8040551.711 5  -6159050.295 4
  19489107.756     -528409.849 2   -206008.713 1
  15877282.233   -32439851.334 6 -25074322.799 8
  17195500.272   -33141939.809 6 -25451155.827 6
  16388100.279   -33255397.097 7 -25804675.849 9
  15762662.608   -26153618.748 7 -20067150.876 9
 94  1 29  6 15 29.9820000  0  8 24  9 20 16 12 13  4  5
  15234335.928   -32033090.669 7 -24846527.164 7
  16658781.693   -30892775.654 6 -23855327.686 7
  18320763.303    -8175704.333 5  -6264364.025 5
  19463935.553     -660711.992 2   -309101.204 1
  15875525.631   -32449077.404 6 -25081511.958 8
  17200812.709   -33114020.279 6 -25429400.343 6
  16393281.647   -33228181.535 7 -25783468.926 9
  15745089.959   -26245957.519 7 -20139103.169 9
 94  1 29  6 15 59.9820000  0  8 24  9 20 16 12 13  4  5
  15226909.045   -32072119.397 7 -24876939.158 7
  16663667.537   -30867079.722 6 -23835304.901 7
  18295057.225    -8310785.212 5  -6369621.830 5
  19438743.272     -793082.033 2   -412246.592 1
  15873879.990   -32457715.033 6 -25088242.590 8
  17206135.506   -33086046.604 6 -25407602.706 6
  16398528.436   -33200620.429 7 -25761992.736 9
  15727578.287   -26337990.065 7 -20210816.843 9
 94  1 29  6 16 29.9820000  0  8 24  9 20 16 12 13  4  5
  15219581.014   -32110631.742 7 -24906948.780 8
  16668637.686   -30840970.784 6 -23814960.285 7
  18269363.522    -8445795.347 5  -6474824.502 5
  19413552.147     -925525.014 3   -515448.886 1
  15872350.475   -32465768.068 6 -25094517.699 8
  17211468.654   -33058023.239 6
  16403835.428   -33172717.760 7
  15710120.170   -26429721.518 7 -20282295.898 9
 94  1 29  6 16 59.9820000  0  8 24  9 20 16 12 13  4  5
  15212349.037   -32148626.342 7 -24936554.959 8
  16673686.568   -30814448.040 6 -23794293.234 7
  18243685.154    -8580730.205 5  -6579968.562 4
  19388332.568    -1058025.841 3   -618696.331 1
  15870931.209   -32473234.735 6 -25100335.894 8
  17216809.108   -33029949.101 6 -25363890.386 6
  16409212.483   -33144465.466 7 -25718235.632 8
  15692722.717   -26521155.435 7 -20353543.112 9
